[[{"header":{"parameterUnit":"m.s-1","parameterCategory":1,"la1":30.6,"la2":29.2853,"lo1":-89.7004,"lo2":-87.6739,"dy":0.0162,"dx":0.0183,"nx":112,"ny":82,"refTime":"2023-07-18T12:00:00:Z","depth":0,"parameterNumber":2,"parameterNumberName":"U-component_of_WINDS"},"data":[0.0,0.0,0.0,0.0,0.0,0.0,0.0,0.0,0.0,0.0,0.0,0.0,0.0,0.0,0.0,0.0,0.0,0.0,0.0,0.0,0.0,0.0,0.0,0.0,0.0,0.0,0.0,0.0,0.0,0.0,0.0,0.0,0.0,0.0,0.0,0.0,0.0,0.0,0.0,0.0,0.0,0.0,0.0,0.0,0.0,0.0,0.0,0.0,0.0,0.0,0.0,0.0,0.0,0.0,0.0,0.0,0.0,0.0,0.0,0.0,0.0,0.0,0.0,0.0,0.0,0.0,0.0,0.0,0.0,0.0,0.0,0.0,0.0,0.0,0.0,0.0,0.0,0.0,0.0,0.0,0.0,0.0,0.0,0.0,0.0,0.0,0.0,0.0,0.0,0.0,0.0,0.4915,0.5089,0.5235,0.5235,0.5235,0.5145,0.4873,0.0,0.0,0.0,0.0,0.0,0.0,0.0,0.0,0.0,0.0,0.0,0.0,0.0,0.0,0.0,0.0,0.0,0.0,0.0,0.0,0.0,0.0,0.0,0.0,0.0,0.0,0.0,0.0,0.0,0.0,0.0,0.0,0.0,0.0,0.0,0.0,0.0,0.0,0.0,0.0,0.0,0.0,0.0,0.0,0.0,0.0,0.0,0.0,0.0,0.0,0.0,0.0,0.0,0.0,0.0,0.0,0.0,0.0,0.0,0.0,0.0,0.0,0.0,0.0,0.0,0.0,0.0,0.0,0.0,0.0,0.0,0.0,0.0,0.0,0.0,0.0,0.0,0.0,0.0,0.0,0.0,0.0,0.0,0.0,0.0,0.0,0.0,0.0,0.0,0.0,0.0,0.0,0.0,0.0,0.0,0.0,0.0,0.0,0.0,0.0,0.0,0.0,0.0,0.0,0.343,0.4542,0.466,0.4666,0.4666,0.4666,0.4701,0.4681,0.0,0.0,0.0,0.0,0.0,0.0,0.0,0.0,0.0,0.0,0.0,0.0,0.0,0.0,0.0,0.0,0.0,0.0,0.0,0.0,0.0,0.0,0.0,0.0,0.0,0.0,0.0,0.0,0.0,0.0,0.0,0.0,0.0,0.0,0.0,0.0,0.0,0.0,0.0,0.0,0.0,0.0,0.0,0.0,0.0,0.0,0.0,0.0,0.0,0.0,0.0,0.0,0.0,0.0,0.0,0.0,0.0,0.0,0.0,0.0,0.0,0.0,0.0,0.0,0.0,0.0,0.0,0.0,0.0,0.0,0.0,0.0,0.0,0.0,0.0,0.0,0.0,0.0,0.0,0.0,0.0,0.0,0.0,0.0,0.0,0.0,0.0,0.0,0.0,0.0,0.0,0.0,0.0,0.0,0.0,0.0,0.0,0.0,0.0,0.0,0.0,0.0,0.0,0.2997,0.3063,0.3768,0.4294,0.4714,0.4714,0.4714,0.4732,0.4775,0.4835,0.0,0.0,0.0,0.0,0.0,0.0,0.0,0.0,0.0,0.0,0.0,0.0,0.0,0.0,0.0,0.0,0.0,0.0,0.0,0.0,0.0,0.0,0.0,0.0,0.0,0.0,0.0,0.0,0.0,0.0,0.0,0.0,0.0,0.0,0.0,0.0,0.0,0.0,0.0,0.0,0.0,0.0,0.0,0.0,0.0,0.0,0.0,0.0,0.0,0.0,0.0,0.0,0.0,0.0,0.0,0.0,0.0,0.0,0.0,0.0,0.0,0.0,0.0,0.0,0.0,0.0,0.0,0.0,0.0,0.0,0.0,0.0,0.0,0.0,0.0,0.0,0.0,0.0,0.0,0.0,0.0,0.0,0.0,0.0,0.0,0.0,0.0,0.0,0.0,0.0,0.0,0.0,0.0,0.0,0.0,0.0,0.0,0.0,0.0,0.0,0.0,0.0,0.2115,0.2746,0.2759,0.3794,0.4431,0.4431,0.4634,0.4834,0.4834,0.4834,0.0,0.0,0.0,0.0,0.0,0.0,0.0,0.0,0.0,0.0,0.0,0.0,0.0,0.0,0.0,0.0,0.0,0.0,0.0,0.0,0.0,0.0,0.0,0.0,0.0,0.0,0.0,0.0,0.0,0.0,0.0,0.0,0.0,0.0,0.0,0.0,0.0,0.0,0.0,0.0,0.0,0.0,0.0,0.0,0.0,0.0,0.0,0.0,0.0,0.0,0.0,0.0,0.0,0.0,0.0,0.0,0.0,0.0,0.0,0.0,0.0,0.0,0.0,0.0,0.0,0.0,0.0,0.0,0.0,0.0,0.0,0.0,0.0,0.0,0.0,0.0,0.0,0.0,0.0,0.0,0.0,0.0,0.0,0.0,0.0,0.0,0.0,0.0,0.0,0.0,0.0,0.0,0.0,0.0,0.0,0.0,0.0,0.0,0.0,0.0,0.0,0.0,0.0978,0.1677,0.1708,0.2718,0.3324,0.3324,0.423,0.4834,0.4834,0.4834,0.0,0.0,0.0,0.0,0.0,0.0,0.0,0.0,0.0,0.0,0.0,0.0,0.0,0.0,0.0,0.0,0.0,0.0,0.0,0.0,0.0,0.0,0.0,0.0,0.0,0.0,0.0,0.0,0.0,0.0,0.0,0.0,0.0,0.0,0.0,0.0,0.0,0.0,0.0,0.0,0.0,0.0,0.0,0.0,0.0,0.0,0.0,0.0,0.0,0.0,0.0,0.0,0.0,0.0,0.0,0.0,0.0,0.0,0.0,0.0,0.0,0.0,0.0,0.0,0.0,0.0,0.0,0.0,0.0,0.0,0.0,0.0,0.0,0.0,0.0,0.0,0.0,0.0,0.0,0.0,0.0,0.0,0.0,0.0,0.0,0.0,0.0,0.0,0.0,0.0,0.0,0.0,0.0,0.0,0.0,0.0,0.0,0.0,0.0,0.0,0.0,0.0,-0.0099,0.08,0.0,0.2519,0.3425,0.413,0.4531,0.4834,0.4834,0.0,0.0,0.0,0.0,0.0,0.0,0.0,0.0,0.0,0.0,0.0,0.0,0.0,0.0,0.0,0.0,0.0,0.0,0.0,0.0,0.0,0.0,0.0,0.0,0.0,0.0,0.0,0.0,0.0,0.0,0.0,0.0,0.0,0.0,0.0,0.0,0.0,0.0,0.0,0.0,0.0,0.0,0.0,0.0,0.0,0.0,0.0,0.0,0.0,0.0,0.0,0.0,0.0,0.0,0.0,0.0,0.0,0.0,0.0,0.0,0.0,0.0,0.0,0.0,0.0,0.0,0.0,0.0,0.0,0.0,0.0,0.0,0.0,0.0,0.0,0.0,0.0,0.0,0.0,0.0,0.0,0.0,0.0,0.0,0.0,0.0,0.0,0.0,0.0,0.0,0.0,0.0,0.0,0.0,0.0,0.0,0.0,0.0,0.0,0.0,0.0,0.0,-0.1089,-0.05,0.0403,0.0,0.2519,0.3525,0.423,0.4632,0.4634,0.4331,0.0,0.0,0.0,0.0,0.0,0.0,0.0,0.0,0.0,0.0,0.0,0.0,0.0,0.0,0.0,0.0,0.0,0.0,0.0,0.0,0.0,0.0,0.0,0.0,0.0,0.0,0.0,0.0,0.0,0.0,0.0,0.0,0.0,0.0,0.0,0.0,0.0,0.0,0.0,0.0,0.0,0.0,0.0,0.0,0.0,0.0,0.0,0.0,0.0,0.0,0.0,0.0,0.0,0.0,0.0,0.0,0.0,0.0,0.0,0.0,0.0,0.0,0.0,0.0,0.0,0.0,0.0,0.0,0.0,0.0,0.0,0.0,0.0,0.0,0.0,0.0,0.0,0.0,0.0,0.0,0.0,0.0,0.0,0.0,0.0,0.0,0.0,0.0,0.0,0.0,0.0,0.0,0.0,0.0,0.0,0.0,0.0,0.0,0.0,0.0,0.0,0.0,-0.0201,-0.0,0.0403,0.1513,0.2519,0.3224,0.3224,0.413,0.4331,0.0,0.0,0.0,0.0,0.0,0.0,0.0,0.0,0.0,0.0,0.0,0.0,0.0,0.0,0.0,0.0,0.0,0.0,0.0,0.0,0.0,0.0,0.0,0.0,0.0,0.0,0.0,0.0,0.0,0.0,0.0,0.0,0.0,0.0,0.0,0.0,0.0,0.0,0.0,0.0,0.0,0.0,0.0,0.0,0.0,0.0,0.0,0.0,0.0,0.0,0.0,0.0,0.0,0.0,0.0,0.0,0.0,0.0,0.0,0.0,0.0,0.0,0.0,0.0,0.0,0.0,0.0,0.0,0.0,0.0,0.0,0.0,0.0,0.0,0.0,0.0,0.0,0.0,0.0,0.0,0.0,0.0,0.0,0.0,0.0,0.0,0.0,0.0,0.0,0.0,0.0,0.0,0.0,0.0,0.0,0.0,0.0,0.0,0.0,0.0,0.0,0.0,0.0,-0.1413,-0.0908,-0.0202,0.0706,0.1512,0.242,0.3127,0.3531,0.3328,0.2723,0.0,0.0,0.0,0.0,0.0,0.0,0.0,0.0,0.0,0.0,0.0,0.0,0.0,0.0,0.0,0.0,0.0,0.0,0.0,0.0,0.0,0.0,0.0,0.0,0.0,0.0,0.0,0.0,0.0,0.0,0.0,0.0,0.0,0.0,0.0,0.0,0.0,0.0,0.0,0.0,0.0,0.0,0.0,0.0,0.0,0.0,0.0,0.0,0.0,0.0,0.0,0.0,0.0,0.0,0.0,0.0,0.0,0.0,0.0,0.0,0.0,0.0,0.0,0.0,0.0,0.0,0.0,0.0,0.0,0.0,0.0,0.0,0.0,0.0,0.0,0.0,0.0,0.0,0.0,0.0,0.0,0.0,0.0,0.0,0.0,0.0,0.0,0.0,0.0,0.0,0.0,0.0,0.0,0.0,0.0,0.0,0.0,0.0,0.0,0.0,0.0,0.0,-0.0908,-0.0303,0.0504,0.1412,0.1917,0.2522,0.313,0.323,0.2927,0.2118,0.0,0.0,0.0,0.0,0.0,0.0,0.0,0.0,0.0,0.0,0.0,0.0,0.0,0.0,0.0,0.0,0.0,0.0,0.0,0.0,0.0,0.0,0.0,0.0,0.0,0.0,0.0,0.0,0.0,0.0,0.0,0.0,0.0,0.0,0.0,0.0,0.0,0.0,0.0,0.0,0.0,0.0,0.0,0.0,0.0,0.0,0.0,0.0,0.0,0.0,0.0,0.0,0.0,0.0,0.0,0.0,0.0,0.0,0.0,0.0,0.0,0.0,0.0,0.0,0.0,0.0,0.0,0.0,0.0,0.0,0.0,0.0,0.0,0.0,0.0,0.0,0.0,0.0,0.0,0.0,0.0,0.0,0.0,0.0,0.0,0.0,0.0,0.0,0.0,0.0,0.0,0.0,0.0,0.0,0.0,0.0,0.0,0.0,0.0,0.0,0.0,0.0,0.0504,0.1109,0.1816,0.2826,0.3029,0.3029,0.3029,0.3029,0.2624,0.1613,0.0,0.0,0.0,0.0,0.0,0.0,0.0,0.0,0.0,0.0,0.0,0.0,0.0,0.0,0.0,0.0,0.0,0.0,0.0,0.0,0.0,0.0,0.0,0.0,0.0,0.0,0.0,0.0,0.0,0.0,0.0,0.0,0.0,0.0,0.0,0.0,0.0,0.0,0.0,0.0,0.0,0.0,0.0,0.0,0.0,0.0,0.0,0.0,0.0,0.0,0.0,0.0,0.0,0.0,0.0,0.0,0.0,0.0,0.0,0.0,0.6679,0.0,0.0,0.0,0.0,0.0,0.0,0.0,0.0,0.0,0.0,0.0,0.0,0.0,0.0,0.0,0.0,0.0,0.0,0.0,0.0,0.0,0.0,0.0,0.0,0.0,0.0,0.0,0.0,0.0,0.0,0.0,0.0,0.0,0.0,0.0,0.0,0.0,0.0,0.0,0.0,0.0,-0.0908,-0.0303,0.0303,0.0909,0.1515,0.192,0.192,0.192,0.1616,0.101,0.0606,0.0,0.0,0.0,0.0,0.0,0.0,0.0,0.0,0.0,0.0,0.0,0.0,0.0,0.0,0.0,0.0,0.0,0.0,0.0,0.0,0.0,0.0,0.0,0.0,0.0,0.0,0.0,0.0,0.0,0.0,0.0,0.0,0.0,0.0,0.0,0.0,0.0,0.0,0.0,0.0,0.0,0.0,0.0,0.0,0.0,0.0,0.0,0.0,0.0,0.0,0.0,0.0,0.0,0.0,0.0,0.0,0.0,0.0,0.0,0.0,0.5271,0.0,0.0,0.0,0.0,0.0,0.0,0.0,0.0,0.0,0.0,0.0,0.0,0.0,0.0,0.0,0.0,0.0,0.0,0.0,0.0,0.0,0.0,0.0,0.0,0.0,0.0,0.0,0.0,0.0,0.0,0.0,0.0,0.0,0.0,0.0,0.0,0.0,0.0,0.0,0.0,-0.0909,-0.0303,0.0202,0.0909,0.1314,0.1617,0.1617,0.1617,0.1516,0.1212,0.0707,0.0,0.0,0.0,0.0,0.0,0.0,0.0,0.0,0.0,0.0,0.0,0.0,0.0,0.0,0.0,0.0,0.0,0.0,0.0,0.0,0.0,0.0,0.0,0.0,0.0,0.0,0.0,0.0,0.0,0.0,0.0,0.0,0.0,0.0,0.0,0.0,0.0,0.0,0.0,0.0,0.0,0.0,0.0,0.0,0.0,0.0,0.0,0.0,0.0,0.0,0.0,0.0,0.0,0.1611,0.2718,0.292,0.292,0.2616,0.2311,0.3114,0.3419,0.3123,0.0,0.0,0.0,0.0,0.0,0.0,0.0,0.0,0.0,0.0,0.0,0.0,0.0,0.0,0.0,0.0,0.0,0.0,0.0,0.0,0.0,0.0,0.0,0.0,0.0,-0.2221,-0.2321,0.0,0.0,0.0,0.0,0.0,0.0,0.0,0.0,0.0,0.0,0.0,0.0,-0.0707,-0.0303,0.0303,0.1313,0.1415,0.1415,0.1617,0.1617,0.1617,0.1617,0.101,0.0505,0.0,0.0,0.0,0.0,0.0,0.0,0.0,0.0,0.0,0.0,0.0,0.0,0.0,0.0,0.0,0.0,0.0,0.0,0.0,0.0,0.0,0.0,0.0,0.0,0.0,0.0,0.0,0.0,0.0,0.0,0.0,0.0,0.0277,0.0094,0.0,0.0,0.0,0.0,0.0,0.0,0.0,0.0,0.0,0.0,0.0,0.0,0.0,-0.5819,-0.4616,-0.4022,-0.3624,-0.3325,-0.292,-0.2315,-0.1509,-0.1509,-0.161,-0.1609,-0.1509,0.0,0.3123,0.2315,0.0,0.0,0.0,0.0,0.0,0.0,0.0,0.0,0.0,0.0,0.0,0.0,0.0,0.0,0.0,0.0,0.0,0.0,0.0,0.0,0.0,0.0,-0.2321,-0.2321,-0.2422,-0.2422,0.0,-0.2321,-0.2321,-0.2321,-0.2321,0.0,0.0,0.0,0.0,0.0,0.0,0.0,-0.1613,-0.1613,-0.111,0.0404,0.0606,0.0808,0.1516,0.1617,0.1617,0.1617,0.1516,0.1111,0.0404,0.0303,0.0,0.0,0.0,0.0,0.0,0.0,0.0,0.0,0.0,0.0,0.0,0.0,0.0,0.0,0.0,0.0,0.0,0.0,0.0,0.0,0.0,0.0,0.0,0.0,0.0,0.0,0.0,0.0,0.0,0.0743,-0.075,-0.2079,-0.4561,-0.6227,0.0,0.0,0.0,0.0,0.0,0.0,0.0,0.0,0.0,-0.7132,-0.6628,-0.6134,-0.5445,-0.545,-0.5452,-0.5253,-0.5253,-0.5048,-0.4642,-0.4642,-0.4135,-0.3224,-0.3224,-0.1912,-0.0,-0.0503,-0.1208,-0.2015,0.0,0.0,0.0,0.0,-0.323,-0.323,-0.323,-0.323,0.0,0.0,0.0,0.0,0.0,0.0,0.0,0.0,0.0,0.0,0.0,0.0,0.0,-0.2623,-0.2725,-0.2826,-0.2826,-0.2826,-0.2725,0.0,-0.2522,-0.2623,-0.2422,0.0,0.0,0.0,0.0,-0.2826,-0.1917,-0.1916,-0.1412,0.0202,0.0404,0.0707,0.1516,0.1617,0.1617,0.1617,0.1617,0.1212,0.0404,-0.0,-0.0807,0.0,0.0,0.0,0.0,0.0,0.0,0.0,0.0,0.0,0.0,0.0,0.0,0.0,0.0,0.0,0.0,0.0,0.0,0.0,0.0,0.0,0.0,0.0,0.0,0.0,0.0,0.0,0.0,-0.219,-0.2766,-0.4888,-0.5971,-0.6795,0.0,0.0,0.0,0.0,0.0,0.0,-0.7928,-0.8524,-0.8528,-0.7928,-0.7325,-0.7033,-0.7056,-0.7062,-0.7083,-0.7116,-0.7116,-0.7131,-0.7166,-0.6963,-0.6136,-0.49,-0.4698,-0.4187,-0.3468,-0.293,-0.2718,-0.282,-0.3025,-0.3128,-0.323,-0.323,-0.323,-0.323,-0.323,-0.323,-0.323,-0.3531,0.0,-0.413,-0.4931,0.0,0.0,0.0,0.0,-0.2623,-0.2623,-0.2725,-0.2927,-0.2927,-0.3029,-0.323,-0.323,-0.323,-0.313,0.0,-0.2725,-0.2826,-0.2623,0.0,0.0,0.0,0.0,-0.3027,-0.2422,-0.232,-0.1816,-0.0404,-0.0202,0.0101,0.0908,0.101,0.101,0.101,0.101,0.0707,0.0101,-0.0504,-0.121,-0.2017,0.0,0.0,0.0,0.0,0.0,0.0,0.0,0.0,0.0,0.0,0.0,0.0,0.0,0.0,0.0,0.0,0.0,0.0,0.0,0.0,0.0,0.0,0.0,0.0,0.0,0.0,0.0,0.0,0.0,-0.9099,-0.8212,0.0,0.0,0.0,0.0,-0.8726,-0.8722,-0.8726,-0.8726,-0.8825,-0.8825,-0.8726,-0.8722,-0.8726,-0.8726,-0.8726,-0.8803,-0.8947,-0.8947,-0.9032,-0.9186,-0.8347,-0.7925,-0.782,-0.699,-0.6571,-0.6343,-0.3573,-0.2618,-0.282,-0.282,-0.3024,-0.323,-0.323,-0.323,-0.323,-0.323,-0.323,-0.3331,-0.4433,-0.5429,-0.6224,-0.6323,-0.5629,0.0,0.0,-0.4033,-0.313,-0.313,-0.313,-0.323,-0.323,-0.323,-0.323,-0.323,-0.323,-0.323,0.0,-0.313,-0.313,-0.313,0.0,-0.323,-0.323,-0.323,-0.323,-0.313,-0.313,-0.2826,-0.2017,-0.1917,-0.1513,-0.0706,-0.0706,-0.0706,-0.0706,-0.0706,-0.0706,-0.0706,-0.0806,-0.121,-0.2017,-0.2017,0.0,0.0,0.0,0.0,0.0,0.0,0.0,0.0,0.0,0.0,0.0,0.0,0.0,0.0,0.0,0.0,0.0,0.0,0.0,0.0,0.0,0.0,0.0,0.0,0.0,0.0,0.0,0.0,-0.9221,-0.8726,0.0,-0.9316,-0.9019,-0.8866,-0.8967,-0.9481,-0.9839,-0.9957,-1.0472,-1.0472,-0.9965,-0.9965,-0.9756,-0.9138,-0.9138,-0.9271,-0.9327,-0.9327,-0.9361,-0.9418,-0.9104,-0.8891,-0.8895,-0.858,-0.8479,-0.8364,-0.7309,-0.6135,-0.4798,-0.4072,-0.3866,-0.3972,-0.4384,-0.4486,-0.459,-0.5421,-0.5629,-0.5733,-0.6044,-0.6455,-0.6763,-0.6763,-0.6559,-0.6251,-0.6251,-0.5421,-0.4486,-0.4486,-0.3866,-0.3347,-0.3347,-0.3347,-0.3347,-0.3347,-0.3347,-0.3347,-0.3347,-0.3285,-0.323,-0.323,-0.323,-0.3244,-0.3283,-0.3289,-0.3304,-0.3342,-0.3347,-0.3033,-0.2195,-0.209,-0.1776,-0.1044,-0.094,-0.1044,-0.1461,-0.1149,-0.1358,-0.2192,-0.188,-0.209,-0.2927,-0.2894,-0.298,0.0,0.0,0.0,0.0,0.0,0.0,0.0,0.0,0.0,0.0,0.0,0.0,0.0,0.0,0.0,0.0,0.0,0.0,0.0,0.0,0.0,0.0,0.0,0.0,0.0,0.0,-0.8911,-0.99,-0.9658,-0.9791,-1.078,-1.0584,-1.0632,-1.1152,-1.1678,-1.2054,-1.2098,-1.2324,-1.2122,-1.1606,-1.1196,-1.088,-1.0763,-1.0352,-1.0489,-1.0854,-1.0447,-1.0379,-1.0437,-1.0118,-1.0012,-0.9906,-0.969,-0.9583,-0.9583,-0.9583,-0.8625,-0.7229,-0.6187,-0.5631,-0.5525,-0.5838,-0.5943,-0.6049,-0.679,-0.7214,-0.7527,-0.7527,-0.7737,-0.8056,-0.7632,-0.7211,-0.6895,-0.6474,-0.5523,-0.4572,-0.4572,-0.4047,-0.3413,-0.3413,-0.3413,-0.3413,-0.3413,-0.3413,-0.3413,-0.3413,-0.3347,-0.3292,-0.3292,-0.3292,-0.3305,-0.3346,-0.3352,-0.3367,-0.3407,-0.3413,-0.3199,-0.2664,-0.2558,-0.2345,-0.1811,-0.1811,-0.2023,-0.2659,-0.2341,-0.2661,-0.3723,-0.3194,-0.3196,-0.3731,-0.3688,-0.3653,-0.3631,0.0,0.0,0.0,0.0,0.0,0.0,0.0,0.0,0.0,0.0,0.0,0.0,0.0,0.0,0.0,0.0,0.0,0.0,0.0,0.0,0.0,0.0,0.0,-0.9693,-0.9589,-1.0095,-1.1405,-1.1075,-1.1704,-1.405,-1.3857,-1.4061,-1.5172,-1.5172,-1.5178,-1.5184,-1.418,-1.3577,-1.3577,-1.2447,-1.2452,-1.3577,-1.2452,-1.2556,-1.3809,-1.2669,-1.2252,-1.2332,-1.1573,-1.1135,-1.1135,-1.0257,-0.9923,-0.9923,-0.9923,-0.9919,-0.9771,-0.8917,-0.8269,-0.7846,-0.7536,-0.7536,-0.7431,-0.7223,-0.7852,-0.8692,-0.8692,-0.9328,-1.0072,-0.901,-0.7852,-0.6693,-0.5636,-0.4475,-0.3524,-0.3524,-0.3524,-0.3524,-0.3524,-0.3525,-0.3417,-0.3417,-0.3418,-0.3418,-0.3418,-0.3418,-0.3417,-0.3413,-0.3413,-0.3413,-0.3414,-0.3416,0.0,-0.3417,-0.3418,-0.3418,-0.3418,-0.3418,-0.3418,-0.3418,-0.3417,-0.3737,-0.4374,-0.4374,-0.4587,-0.5224,-0.4693,-0.4372,-0.437,-0.437,-0.4332,-0.4254,0.0,0.0,0.0,0.0,0.0,0.0,0.0,0.0,0.0,0.0,0.0,0.0,0.0,0.0,0.0,0.0,0.0,0.0,0.0,0.0,0.0,0.0,-1.1564,-1.0745,-1.1164,-1.1909,-1.2842,-1.3496,-1.4247,-1.4856,-1.4856,-1.494,-1.5342,-1.5457,-1.5542,-1.5737,-1.5434,-1.5223,-1.5223,-1.4907,-1.4907,-1.5223,-1.4071,-1.3683,-1.4067,-1.2891,-1.2389,-1.2446,-1.2381,-1.2344,-1.2349,-1.2262,-1.2208,-1.2208,-1.2208,-1.2127,-1.1753,-0.9629,-0.8675,-0.8675,-0.9008,-0.9555,-1.0101,-0.9992,-0.9996,-1.0105,-1.0105,-1.0325,-1.0546,-1.0217,-0.9888,-0.9559,-0.9229,-0.8359,-0.7376,-0.7376,-0.6717,-0.606,-0.606,-0.5404,-0.486,-0.486,-0.4199,-0.354,-0.354,-0.354,-0.3512,-0.3427,-0.3413,-0.3427,-0.3467,-0.3473,0.0,-0.3533,-0.354,-0.354,-0.354,-0.354,-0.3759,-0.4199,-0.42,-0.4639,-0.5738,-0.5298,-0.541,-0.5957,-0.5408,-0.5049,-0.4986,-0.4984,-0.4731,0.0,0.0,0.0,0.0,0.0,0.0,0.0,0.0,0.0,0.0,0.0,0.0,0.0,0.0,0.0,0.0,0.0,0.0,0.0,0.0,0.0,0.0,-1.369,-1.343,-1.259,-1.271,-1.306,-1.3593,-1.4711,-1.5706,-1.6125,-1.6228,-1.6555,-1.7265,-1.7285,-1.7417,-1.7701,-1.7277,-1.6946,-1.6946,-1.6519,-1.6513,-1.6946,-1.5867,-1.5545,-1.5976,-1.4773,-1.4009,-1.3467,-1.3603,-1.3448,0.0,-1.3017,-1.3065,-1.3065,-1.3065,-1.2999,0.0,0.0,0.0,0.0,0.0,-1.1013,-1.1236,-1.1126,-1.1021,-1.0802,-1.0692,-1.0692,-1.0692,-1.0692,-1.0359,-0.9919,-0.9919,-0.903,-0.814,-0.814,-0.7584,-0.7138,-0.7138,-0.6586,-0.6144,-0.6144,-0.5146,-0.4369,-0.4369,-0.3921,0.0,-0.3497,-0.3486,-0.3606,-0.3859,-0.3863,-0.3989,-0.4362,-0.4369,-0.4369,-0.4369,-0.4369,-0.448,-0.4814,-0.4925,0.0,0.0,0.0,-0.5929,-0.6262,-0.5929,0.0,0.0,0.0,-0.5469,-0.5058,0.0,0.0,0.0,-0.3382,-0.3268,0.0,0.0,0.0,0.0,0.0,0.0,0.0,0.0,0.0,0.0,0.0,0.0,0.0,0.0,0.0,0.0,-1.4758,-1.5215,-1.4928,-1.4534,-1.4278,-1.4251,-1.5499,-1.6723,-1.7734,-1.784,-1.84,-1.9791,-1.982,-1.9938,-2.0223,0.0,0.0,0.0,0.0,-1.7655,-1.8651,-1.7544,-1.7537,-1.8534,-1.7315,-1.6204,-1.5084,-1.5112,-1.4561,-1.3551,-1.3466,-1.3361,-1.3365,-1.325,-1.3121,-1.3084,-1.288,-1.2682,-1.2402,-1.2183,-1.1964,-1.1634,-1.141,0.0,0.0,-1.0863,-1.0753,-1.0753,-1.0753,-0.9972,-0.9193,-0.9193,-0.8409,-0.7513,-0.7513,-0.7513,-0.7513,-0.7513,-0.7513,-0.7399,-0.7385,-0.6383,-0.5605,-0.5594,-0.4702,-0.4032,-0.4032,-0.381,-0.3811,-0.4369,-0.448,-0.4704,-0.5371,-0.5371,-0.5371,-0.5371,0.0,0.0,-0.5483,-0.5483,-0.5706,-0.6374,-0.6374,-0.6374,-0.6374,-0.6374,-0.6374,-0.6374,-0.6374,-0.633,-0.6243,-0.6349,-0.5651,-0.439,-0.3782,-0.3435,0.0,0.0,0.0,0.0,0.0,0.0,0.0,0.0,0.0,0.0,0.0,0.0,0.0,0.0,0.0,-1.5689,-1.5405,-1.5499,-1.6553,-1.7206,-1.7529,-1.7187,-1.8464,-1.9345,-1.9319,-1.9553,-1.9791,-2.012,-2.0142,-2.0172,-2.023,-2.0012,0.0,-1.9895,-1.9676,-1.9676,-1.9895,-1.8768,-1.8313,-1.8534,0.0,0.0,-1.6434,-1.6637,-1.6504,-1.6287,-1.5465,-1.5087,-1.5087,-1.4035,-1.3471,-1.3306,-1.3093,-1.298,-1.2947,-1.2947,-1.2715,-1.2375,-1.2375,-1.2034,-1.1579,-1.1574,-1.1347,-1.1118,-1.1118,-1.089,0.0,-1.0772,-1.0543,-1.0425,-1.0425,-1.0425,-1.0425,-1.0425,-0.9738,-0.9013,-0.8778,-0.785,-0.6922,-0.6826,-0.6586,-0.6475,-0.6475,-0.481,-0.3811,-0.4369,-0.448,-0.4704,-0.5371,-0.5371,-0.5371,-0.5371,-0.5371,-0.5594,-0.604,-0.6151,-0.6374,-0.7043,-0.7043,-0.7043,-0.7043,-0.7043,-0.7043,-0.7043,-0.7043,-0.6811,-0.6234,-0.7006,-0.6554,-0.5206,-0.4407,-0.4343,0.0,0.0,0.0,0.0,0.0,0.0,0.0,0.0,0.0,0.0,0.0,-1.5188,0.0,0.0,-1.6504,-1.7141,-1.7574,-1.8029,-1.8496,-1.9513,-1.9908,-1.8777,-1.9733,-2.0347,-2.0305,-2.0212,-2.0236,-2.0457,-2.0479,-2.0625,-2.0947,-2.0969,-2.1042,-2.1203,-2.105,-2.0969,-2.0969,-2.0224,-1.9794,-1.9794,-1.9224,-1.8658,-1.8084,-1.811,-1.7821,-1.7249,-1.6686,-1.6509,-1.6391,-1.5219,-1.4217,-1.3528,-1.3419,-1.3249,-1.3065,-1.3065,-1.295,-1.2836,-1.2607,-1.2373,-1.2144,-1.2029,-1.1684,-1.1454,-1.1454,-1.1335,-1.1224,-1.1224,-1.1224,-1.1224,-1.1224,-1.1224,-1.1224,-1.1224,-1.0759,-1.0271,-1.0185,-0.9252,-0.8428,-0.8467,-0.7945,-0.7452,-0.7676,-0.6619,-0.5917,-0.6475,-0.6584,-0.6808,-0.6927,-0.6927,-0.6818,-0.6374,-0.6262,-0.6374,-0.6707,-0.6707,-0.6932,-0.7154,-0.7154,-0.7154,-0.7154,-0.7154,-0.7154,-0.7154,-0.7154,-0.7043,-0.6707,-0.7595,-0.7482,-0.648,-0.6585,-0.6288,0.0,0.0,0.0,0.0,0.0,0.0,0.0,0.0,-1.4245,-1.4234,-1.5177,-1.6285,-1.7125,-1.7574,-1.7988,-1.8516,-1.97,-2.055,-2.0398,-2.1286,-2.1534,-2.0266,-2.0624,-2.0914,-2.0873,-2.0654,-2.0707,-2.1317,-2.1347,-2.1608,-2.244,-2.2587,-2.2598,-2.252,-2.2267,-2.2016,-2.1789,-2.1533,-2.1401,-2.1393,-2.1335,-2.0715,-1.9761,-1.97,-1.9087,-1.815,-1.7917,-1.7677,-1.7325,-1.6391,-1.5332,-1.4396,-1.4396,-1.4177,-1.3869,-1.3413,-1.3188,-1.3188,-1.2952,-1.2721,-1.2721,-1.249,-1.2142,-1.191,-1.191,-1.1674,-1.1442,-1.1442,-1.133,-1.133,-1.133,-1.133,-1.133,-1.133,-1.133,-1.1321,-1.1285,-1.0578,-0.9982,-1.0181,-0.9373,-0.872,-0.9061,-0.8953,-0.8856,-0.8585,-0.8796,-0.891,-0.8813,-0.8702,-0.8481,-0.7817,-0.7706,-0.7706,-0.7706,-0.7706,-0.7595,-0.7487,-0.7487,-0.7487,-0.7487,-0.7487,-0.7485,-0.7706,-0.7706,-0.7706,-0.7706,-0.8592,-0.8699,-0.8033,-0.891,-0.8404,-0.8481,-0.8662,-0.9015,-1.0353,-1.1372,-1.2243,0.0,0.0,-1.5423,-1.4379,-1.5309,-1.6562,-1.7423,-1.7869,-1.8611,-2.0142,-2.0404,-2.0756,-2.2049,-2.2104,-2.2213,-2.2519,-2.212,-2.1759,-2.1521,-2.144,-2.2027,-2.356,-2.3494,-2.3884,-2.545,-2.5467,-2.5028,-2.3897,-2.3866,-2.3276,-2.2132,-2.2096,-2.2074,-2.2067,-2.1781,-2.1525,-2.1394,-2.1104,-2.0859,-2.0737,-1.9557,-1.85,-1.7443,-1.7208,-1.7091,-1.6973,-1.6973,-1.6938,-1.6657,-1.444,-1.3618,-1.3618,-1.3618,-1.3379,-1.3136,-1.3136,-1.2897,-1.2534,-1.2534,-1.2294,-1.2055,-1.2055,-1.1943,-1.1715,-1.1715,-1.1715,-1.1715,-1.1715,-1.1715,-1.1671,-1.1504,-1.1585,-1.1653,-1.1487,-1.1663,-1.1765,-1.1765,-1.1972,-1.1381,-0.9168,-0.8903,-0.9127,-0.9578,-0.9688,-0.9578,-0.9467,-0.9467,-0.9467,-0.9467,-0.9467,-0.9137,-0.8374,-0.8374,-0.8374,-0.8374,-0.8374,-0.8702,-0.9467,-0.9467,-0.9467,-0.9467,-1.0355,-1.0355,-0.9578,-1.046,-1.0343,-1.0335,-1.0803,0.0,0.0,-1.3073,-1.3619,-1.4261,-1.5348,-1.6115,-1.6211,-1.6861,-1.7825,-1.9238,-1.9711,-2.0258,0.0,-2.1773,-2.2061,-2.2664,-2.2688,-2.2814,-2.3284,-2.3609,-2.3367,-2.2291,-2.2843,-2.3594,-2.4325,-2.4936,-2.5673,-2.6524,-2.6442,-2.6193,-2.5819,-2.5619,-2.4919,-2.3631,-2.343,-2.2989,-2.2184,-2.2045,-2.1979,-2.1979,-2.184,-2.1672,-2.1496,-2.09,-1.9843,-1.85,-1.85,-1.8033,-1.7443,-1.7443,-1.7443,-1.7325,-1.6273,-1.58,-1.58,-1.58,-1.58,-1.5564,-1.4862,-1.4386,-1.3904,-1.32,-1.2719,-1.2479,-1.2479,-1.2363,-1.2367,-1.2367,-1.2367,-1.2367,-1.2367,-1.2367,-1.2346,-1.2265,-1.2367,-1.246,-1.2495,-1.2628,-1.2673,-1.2906,-1.2919,-1.2543,-1.146,-1.1234,-1.1019,-1.0586,-1.0574,-1.0351,-0.9908,-0.9798,-0.9798,-0.9798,-0.9798,-0.9688,-0.9251,-0.9251,-0.9251,-0.9251,-0.9251,-0.9471,-0.9798,-0.9798,-0.9798,-0.9798,-1.0684,-1.0907,-1.0574,-1.1455,-1.1673,-1.1833,0.0,0.0,-1.3948,-1.4169,-1.4509,-1.5767,-1.6362,-1.6951,-1.7681,-1.8253,-1.9008,-2.0552,-2.1048,-2.1607,-2.2522,-2.2847,-2.3014,-2.3014,-2.3101,-2.3366,-2.3958,-2.4744,-2.4951,-2.4025,-2.4614,-2.5256,-2.5861,-2.6591,-2.7356,-2.7993,-2.7794,-2.7683,-2.7486,-2.7335,-2.6593,-2.5285,-2.5025,-2.4317,-2.3037,-2.2939,-2.2662,-2.2301,-2.222,-2.2052,-2.1832,-2.1832,-2.1217,-2.0048,-2.0048,-1.9573,-1.8736,-1.8736,-1.8736,-1.8736,-1.8736,-1.8164,-1.7443,-1.7443,-1.7443,-1.7208,-1.6391,-1.5919,-1.5558,-1.4619,-1.4143,-1.378,-1.343,-1.331,-1.3191,-1.284,-1.2719,-1.2719,-1.2719,-1.2719,-1.2719,-1.2719,-1.2719,-1.2964,-1.3204,-1.3209,-1.3235,-1.3471,-1.3343,-1.3221,-1.3164,-1.3032,-1.2636,-1.1753,-1.1568,-1.1296,-1.0574,-1.0566,-1.0566,-1.0566,-1.0566,-1.0457,-1.0127,-1.0127,-1.0127,-1.0127,-1.0127,-1.0237,-1.0457,-1.0566,-1.0566,-1.0566,-1.1122,-1.1485,-1.1537,-1.2202,-1.2449,0.0,0.0,-1.2635,-1.3948,-1.4169,-1.4553,-1.5987,-1.7034,-1.7764,-1.8039,-1.8999,-2.011,-2.1011,-2.1384,-2.1836,-2.2885,-2.3006,-2.3014,-2.3014,-2.3308,-2.3982,-2.5213,-2.5758,-2.6351,0.0,-2.6777,-2.7186,-2.9087,-2.8644,-2.9072,-3.0723,-3.0752,-3.0138,-2.892,-2.8792,-2.8188,-2.6996,-2.6866,-2.6252,-2.504,-2.469,-2.3808,-2.2601,-2.2315,-2.2176,-2.2169,-2.2169,-2.2162,-2.2154,-2.2154,-2.2035,-2.2027,-2.2027,-2.2027,-2.2027,-2.2027,-2.0064,-1.7443,-1.7443,-1.7443,-1.7443,-1.7325,-1.7325,-1.7325,-1.7325,-1.7091,-1.6615,-1.5322,-1.4847,-1.4252,-1.3075,-1.2719,-1.2719,-1.2719,-1.2719,-1.2719,-1.2719,-1.2964,-1.3204,-1.3204,-1.3444,-1.3679,-1.3679,-1.3674,-1.3603,-1.341,-1.3377,-1.3291,-1.3074,-1.2876,-1.2677,-1.2351,-1.2332,-1.2332,-1.2332,-1.2332,-1.2001,-1.1126,-1.1017,-1.1017,-1.1017,-1.1017,-1.1455,-1.2327,-1.2332,-1.2332,-1.2332,-1.2327,-1.244,-1.2758,-1.2758,-1.2749,0.0,0.0,-1.4804,-1.5244,-1.5905,-1.6698,-1.7124,-1.82,-1.9396,-2.005,-2.0659,-2.1412,-2.2565,-2.2632,-2.2746,-2.3209,-2.3173,-2.298,-2.2988,-2.4016,-2.5065,-2.577,-2.7213,0.0,0.0,0.0,0.0,-2.9385,-3.0016,-3.0577,-3.1102,-3.1005,-3.0645,-3.0274,-3.0274,-2.954,-2.8325,-2.8206,-2.7237,-2.5071,-2.4094,-2.3308,-2.2945,-2.2842,-2.2681,-2.2476,-2.2476,-2.2359,-2.2184,-2.2184,-2.2184,-2.2184,-2.2184,-2.2184,-2.2184,-2.2184,-2.1553,-2.0523,-2.0523,-2.0523,-2.0397,-1.9548,-1.9302,-1.9183,-1.8335,-1.7974,-1.7847,-1.7369,-1.7,-1.6749,-1.627,-1.6029,-1.579,-1.579,-1.5208,-1.4624,-1.4624,-1.4038,-1.3564,-1.3564,-1.3569,-1.3688,-1.3688,-1.3688,-1.3665,-1.3599,-1.3353,-1.315,-1.3079,-1.3008,-1.2937,-1.2862,-1.2857,-1.2857,-1.2857,-1.2857,-1.2744,-1.2406,-1.2402,-1.2402,-1.2402,-1.2402,-1.2519,-1.2857,-1.2857,-1.2857,-1.2857,-1.2857,-1.2895,-1.2965,-1.2965,-1.2999,-1.5891,-1.5891,-1.591,-1.6006,-1.6908,-1.7744,-1.7954,-1.9174,-2.0601,-2.1167,-2.1798,-2.2567,-2.3383,-2.3356,-2.3316,-2.3673,-2.3763,-2.3878,-2.3997,-2.5076,-2.6247,-2.7418,-2.8443,0.0,0.0,0.0,0.0,-3.009,-3.0733,-3.1112,-3.1112,-3.0995,-3.0889,-3.0889,-3.0889,-3.0518,-2.9658,-2.9658,-2.8334,-2.5798,-2.4941,-2.4209,-2.3845,-2.3845,-2.3731,-2.352,-2.3044,-2.2689,-2.2513,-2.2513,-2.2513,-2.2513,-2.2513,-2.2513,-2.2513,-2.2513,-2.2513,-2.2484,-2.2257,-2.2184,-2.2057,-2.1194,-2.0953,-2.0825,-1.9965,-1.9722,-1.9715,-1.9229,-1.8974,-1.8595,-1.8227,-1.7787,-1.7587,-1.7587,-1.6926,-1.6155,-1.5688,-1.4986,-1.4277,-1.3808,-1.3688,-1.3688,-1.3688,-1.3688,-1.3688,-1.3688,-1.3462,-1.3263,-1.3192,-1.3183,-1.3154,-1.3074,-1.3065,-1.3065,-1.3065,-1.3065,-1.3065,-1.3065,-1.3065,-1.3065,-1.3065,-1.3065,-1.3065,-1.3065,-1.3065,-1.3065,-1.3065,-1.3065,-1.3107,-1.3183,-1.3183,-1.3447,-1.5891,-1.591,-1.6095,-1.635,-1.7188,-1.8011,-1.8572,-2.0047,-2.1361,-2.1669,-2.2704,-2.3546,0.0,0.0,-2.3681,-2.414,-2.4812,-2.5489,-2.5973,-2.6334,-2.7507,0.0,0.0,0.0,0.0,0.0,0.0,-3.1325,0.0,-3.0889,-3.0889,-3.0889,-3.0889,-3.0889,-3.0889,-3.0889,-3.0889,-3.0889,-2.9549,-2.7134,-2.7013,-2.6407,-2.5194,-2.5194,-2.5194,-2.5071,-2.372,-2.323,-2.323,-2.3113,-2.3106,-2.3106,-2.3106,-2.3106,-2.3106,-2.3106,-2.3106,-2.3025,-2.244,-2.2235,-2.2235,-2.2235,-2.2235,-2.2235,-2.2235,-2.2235,-2.198,-2.0746,-2.049,-2.0106,-1.8882,-1.8428,-1.8105,-1.8086,-1.7766,-1.7226,-1.6048,-1.5688,-1.5337,-1.4157,-1.3923,-1.3923,-1.3923,-1.3923,-1.3923,-1.3923,-1.3923,-1.3737,-1.3429,-1.3405,-1.3325,-1.3121,-1.3098,-1.3098,-1.3098,-1.3098,-1.3098,-1.3098,-1.3098,-1.3098,-1.3098,-1.3098,-1.3098,-1.3098,-1.3212,-1.3212,-1.3212,-1.3212,-1.3317,-1.3635,-1.3517,-1.432,-1.5891,-1.6717,-1.7592,-1.7663,-1.9229,-2.0747,-2.0914,-2.1745,-2.2558,-2.2652,-2.3063,-2.3626,0.0,0.0,0.0,-2.5332,-2.474,0.0,-2.6503,-2.7445,0.0,-2.954,0.0,-3.1315,-3.1441,-3.1441,0.0,0.0,-3.1102,-3.1112,-3.0889,-3.0889,-3.0889,-3.0889,-3.0889,-3.0889,-3.0889,-2.9903,-2.9048,-2.8444,-2.7495,-2.6771,-2.6529,-2.6529,-2.6529,-2.6407,-2.5194,-2.4579,-2.4456,-2.3472,-2.3106,-2.3106,-2.3106,-2.3106,-2.3106,-2.3106,-2.3106,-2.3084,-2.293,-2.2871,-2.2871,-2.2871,-2.2871,-2.2871,-2.2871,-2.2871,-2.2748,-2.2493,-2.219,-2.189,-2.1631,-2.1299,-2.1019,-2.0788,-1.9949,-1.8998,-1.8428,-1.7566,-1.6856,-1.6509,-1.6509,-1.6509,-1.6509,-1.6509,-1.6509,-1.6509,-1.6509,-1.5784,-1.3851,-1.3613,-1.3589,-1.3537,-1.3528,-1.3528,-1.3528,-1.3528,-1.3528,-1.3528,-1.3528,-1.3528,-1.3528,-1.3528,-1.3528,-1.3528,-1.4462,-1.4928,-1.4928,-1.4928,-1.5424,-1.6417,-1.5483,-1.5751,-1.6668,-1.757,-1.8536,-1.8911,-2.0243,-2.1572,-2.1714,-2.2328,-2.3062,-2.3213,-2.3522,0.0,0.0,0.0,0.0,0.0,0.0,0.0,-2.7948,-2.8707,-2.9376,0.0,-3.082,0.0,-3.1325,-3.1325,-3.1218,0.0,-3.0995,-3.1112,-3.0889,-3.0889,-3.0976,-3.1162,-3.1162,-3.1162,-3.1162,-3.0243,-2.953,-2.892,-2.882,-2.8462,-2.7847,-2.7847,-2.7847,-2.7727,0.0,-2.5562,-2.5071,-2.434,-2.3596,-2.3106,-2.3106,-2.3106,-2.3106,-2.3106,-2.3106,-2.3106,-2.3106,-2.3106,-2.3106,-2.3106,-2.3106,-2.3106,-2.3106,-2.3106,-2.3106,-2.3106,-2.2974,-2.2835,-2.2835,-2.2608,-2.233,-2.2147,-2.1403,-2.0441,-1.9676,-1.8829,-1.8033,-1.756,-1.7443,-1.7443,-1.7443,-1.7443,-1.7443,-1.7443,-1.7443,-1.6856,-1.5451,-1.4867,-1.4515,-1.4515,-1.4043,-1.3688,-1.3688,-1.3688,-1.3688,-1.3688,-1.4277,-1.4515,-1.4515,-1.4981,-1.5332,-1.5332,-1.6037,-1.6391,-1.6391,-1.6504,-1.6912,-1.7624,-1.7028,-1.744,-1.7714,-1.8488,-1.9332,-2.0039,-2.0786,-2.1564,-2.1851,-2.2503,-2.3173,-2.3483,0.0,-2.4679,-2.6152,0.0,-2.5326,-2.8161,0.0,-2.8048,-2.9837,-3.0001,-3.0363,-3.1556,-3.049,-3.0138,-3.1092,-3.1334,-3.1218,-3.0889,-3.0889,-3.0889,-3.0889,-3.0947,-3.1162,-3.1592,-3.1601,-3.1572,-3.1514,-3.1152,-3.0332,-2.9166,-3.0392,-3.0274,-2.9166,-2.9166,-2.9166,-2.9048,0.0,0.0,-2.5554,-2.5194,-2.4456,-2.3355,-2.3106,-2.3106,-2.3106,-2.3106,-2.3106,-2.3106,-2.3106,-2.3106,-2.3106,-2.3106,-2.3106,-2.3106,-2.3106,-2.3106,-2.3106,-2.3106,-2.3106,-2.3106,-2.3106,-2.2901,-2.2674,-2.2637,-2.2213,-2.1435,-2.0267,-1.9773,-1.9203,-1.815,-1.791,-1.791,-1.791,-1.7941,-1.7966,-1.7966,-1.7997,-1.8022,-1.8022,-1.6785,-1.5806,-1.5806,-1.4867,-1.4157,-1.4157,-1.4187,-1.4201,-1.4201,-1.5292,-1.6023,-1.6023,-1.6961,-1.7551,-1.7551,-1.7669,-1.7787,-1.7787,-1.8025,-1.8261,-1.8507,-1.8623,-1.9351,-1.8452,-1.9671,-2.0944,-2.1346,-2.2337,-2.3142,-2.3205,-2.3336,0.0,0.0,0.0,-2.4979,-2.6202,-2.6217,0.0,-2.9275,0.0,0.0,0.0,0.0,-3.0246,0.0,0.0,0.0,0.0,0.0,0.0,0.0,0.0,0.0,-3.0889,-3.1221,-3.1611,-3.2041,-3.206,-3.1885,-3.1523,-3.1445,-3.1112,-3.0518,-3.0772,-3.0762,-3.0518,-3.0518,-3.0518,-3.0518,-2.9176,0.0,-2.8077,-2.5912,-2.4949,-2.4579,-2.3479,-2.3106,-2.3106,-2.3106,-2.3106,-2.3106,-2.3106,-2.3106,-2.3106,-2.3106,-2.3106,-2.3106,-2.3106,-2.3106,-2.3106,-2.3106,-2.3106,-2.3106,-2.3106,-2.3069,-2.2952,-2.2689,-2.2542,-2.2202,-2.156,-2.1082,-2.0852,-2.0615,-2.05,-2.05,-2.05,-2.072,-2.089,-2.089,-2.1235,-2.1398,-2.1398,-1.8912,-1.7091,-1.7091,-1.6862,-1.6744,-1.6744,-1.7054,-1.7177,-1.7177,-1.7623,-1.7863,-1.7863,-1.8106,-1.8228,-1.8228,-1.9203,-1.9813,-1.9813,-1.9866,-2.0382,-2.1484,-2.0429,-2.0705,-1.9621,-2.0745,-2.1782,-2.2309,-2.28,-2.3268,-2.3268,0.0,0.0,0.0,0.0,-2.6041,-2.7529,0.0,0.0,0.0,0.0,0.0,0.0,0.0,0.0,0.0,0.0,0.0,0.0,0.0,0.0,0.0,0.0,0.0,-3.1201,-3.1836,-3.2275,-3.249,-3.2285,-3.207,-3.1865,-3.1416,-3.1201,-3.1211,-3.0996,-3.1006,-3.1211,-3.0996,-3.0889,-3.0889,-3.0274,0.0,-2.8801,-2.7598,-2.6641,-2.592,-2.4702,-2.4092,-2.4092,-2.3355,-2.3106,-2.3106,-2.3106,-2.3106,-2.3106,-2.3106,-2.3106,-2.3106,-2.3106,-2.3106,-2.3106,-2.3106,-2.3106,-2.3106,-2.3106,-2.3106,-2.3069,-2.2915,-2.2747,-2.2498,-2.2045,-2.1825,-2.1715,-2.1715,-2.1715,-2.1715,-2.1715,-2.1847,-2.195,-2.195,-2.2081,-2.2184,-2.2184,-2.0809,-1.9661,-1.8941,-1.8338,-1.7859,-1.7859,-1.81,-1.8173,-1.8173,-1.891,-1.9351,-1.9351,-2.0086,-2.0335,-2.0335,-2.0953,-2.1321,-2.1321,-2.1462,-2.179,-2.2418,-2.1961,-2.2032,-2.081,-2.1573,-2.222,-2.2855,-2.3014,-2.3014,-2.3014,-2.3348,0.0,0.0,-2.5434,-2.7138,-2.8628,0.0,0.0,0.0,0.0,0.0,0.0,0.0,0.0,0.0,0.0,0.0,0.0,0.0,0.0,0.0,0.0,0.0,-3.1641,-3.2383,-3.2832,-3.293,-3.2607,-3.2353,-3.2168,-3.1592,-3.1377,-3.1514,-3.1279,-3.1338,-3.165,-3.1318,-3.1162,-3.1162,-3.1162,0.0,0.0,-2.9168,-2.8397,-2.7254,-2.6042,-2.5562,-2.5431,-2.4324,-2.3961,-2.3961,-2.3961,-2.372,-2.3479,-2.3479,-2.3355,-2.3106,-2.3106,-2.3106,-2.3106,-2.3106,-2.3106,-2.3106,-2.3106,-2.3106,-2.3106,-2.3106,-2.2857,-2.2557,-2.233,-2.2228,-2.2184,-2.2184,-2.2184,-2.2184,-2.2184,-2.2235,-2.2279,-2.2279,-2.2337,-2.2381,-2.2381,-2.2381,-2.2004,-2.1011,-1.9909,-1.9222,-1.9222,-1.928,-1.9311,-1.9311,-2.0354,-2.0889,-2.0889,-2.1883,-2.2381,-2.2381,-2.2381,-2.2381,-2.2381,-2.2608,-2.2725,-2.2732,-2.2988,-2.3106,-2.1532,-2.2196,-2.2529,-2.2919,-2.3014,-2.3014,-2.3014,0.0,0.0,-2.4047,-2.5641,-2.7331,-2.8673,-2.9865,0.0,0.0,0.0,0.0,0.0,0.0,0.0,0.0,0.0,0.0,0.0,0.0,0.0,0.0,0.0,0.0,0.0,-3.2549,-3.2969,-3.335,-3.333,-3.2939,-3.2178,-3.2471,-3.2246,-3.1523,-3.1875,-3.207,-3.2109,-3.207,-3.2051,-3.2051,-3.2051,0.0,0.0,-2.9971,-2.9259,-2.8564,-2.7366,-2.6771,-2.6771,-2.6745,-2.6624,-2.665,-2.665,-2.592,-2.4949,-2.4949,-2.4092,-2.3106,-2.3106,-2.3106,-2.3106,-2.3106,-2.3106,-2.3106,-2.3106,-2.3106,-2.3106,-2.3106,-2.2857,-2.2615,-2.2586,-2.2374,-2.2184,-2.2184,-2.2184,-2.2184,-2.2184,-2.2403,-2.2579,-2.2579,-2.2835,-2.3025,-2.3025,-2.3025,-2.3018,-2.2893,-2.227,-2.1817,-2.1817,-2.2054,-2.2205,-2.2205,-2.2603,-2.2893,-2.2893,-2.2901,-2.3025,-2.3025,-2.3025,-2.3025,-2.3025,-2.3054,-2.3062,-2.3062,-2.3098,-2.3106,-2.1755,-2.222,-2.2569,-2.2927,-2.3014,-2.3287,-2.4168,0.0,0.0,-2.6291,-2.7467,-2.8564,-2.9757,-3.1063,-3.2018,0.0,0.0,0.0,0.0,0.0,0.0,0.0,0.0,0.0,0.0,0.0,0.0,0.0,0.0,0.0,0.0,-3.2939,-3.3252,-3.3418,-3.3174,-3.2891,-3.2549,-3.2461,-3.2373,-3.2285,-3.2207,-3.2305,-3.2539,-3.2285,-3.2168,-3.2168,-3.2168,0.0,0.0,-3.1402,-3.0901,-3.0391,-2.9046,-2.842,-2.8086,-2.7237,-2.7004,-2.7013,-2.7013,-2.665,-2.6286,-2.6286,-2.592,-2.5186,-2.3596,-2.3106,-2.3106,-2.3106,-2.3106,-2.3106,-2.3106,-2.3106,-2.3106,-2.3106,-2.301,-2.2915,-2.2915,-2.282,-2.274,-2.274,-2.274,-2.274,-2.274,-2.2835,-2.2915,-2.2915,-2.3025,-2.3106,-2.3106,-2.3106,-2.3106,-2.3106,-2.2886,-2.274,-2.274,-2.2849,-2.2915,-2.2915,-2.304,-2.3106,-2.3106,-2.3106,-2.3106,-2.3106,-2.3106,-2.3106,-2.3106,-2.3106,-2.3106,-2.3106,-2.3106,-2.3106,-2.1894,-2.2291,-2.2704,-2.295,-2.3014,-2.344,0.0,0.0,0.0,-2.7875,-2.8988,-2.9757,-3.0587,-3.1893,-3.2727,0.0,0.0,0.0,0.0,0.0,0.0,0.0,0.0,0.0,0.0,0.0,0.0,0.0,0.0,0.0,0.0,-3.3262,-3.3418,-3.3418,-3.3135,-3.292,-3.2793,-3.2627,-3.2627,-3.2793,-3.2617,-3.2695,-3.2969,-3.2676,-3.2539,-3.2539,0.0,0.0,0.0,-3.2353,-3.21,-3.1589,-3.0708,-3.0082,-2.9589,-2.8634,-2.8202,-2.8104,-2.8104,-2.7855,-2.7607,-2.7607,-2.7254,-2.665,-2.4818,-2.3961,-2.3596,-2.323,-2.3106,-2.3106,-2.3106,-2.3106,-2.3106,-2.3106,-2.3106,-2.3106,-2.3106,-2.3106,-2.3106,-2.3106,-2.3106,-2.3106,-2.3106,-2.3106,-2.3106,-2.3106,-2.3106,-2.3106,-2.3106,-2.3106,-2.3106,-2.3106,-2.3106,-2.3106,-2.3106,-2.3106,-2.3106,-2.3106,-2.3106,-2.3106,-2.3106,-2.3106,-2.3106,-2.3106,-2.3106,-2.3106,-2.3106,-2.3106,-2.3106,-2.3106,-2.3106,-2.3106,-2.1957,-2.2474,-2.3014,-2.3014,-2.3014,-2.344,0.0,0.0,0.0,-2.8107,-2.9697,-3.082,-3.082,-3.1893,-3.2727,-3.2727,0.0,0.0,0.0,0.0,0.0,0.0,0.0,0.0,0.0,0.0,0.0,0.0,0.0,0.0,0.0,-3.3418,-3.3418,-3.3418,-3.3418,-3.3213,-3.2803,-3.3203,-3.3203,-3.2803,-3.3213,-3.3408,-3.3418,-3.3408,-3.3408,0.0,0.0,0.0,0.0,-3.2793,-3.2539,-3.2158,-3.2168,-3.1894,-3.1514,-3.1514,-3.125,-3.0889,-3.0889,-3.003,-2.892,-2.892,-2.8086,-2.7013,-2.7013,-2.6042,-2.4826,-2.3479,-2.3106,-2.3106,-2.3106,-2.3106,-2.3106,-2.3106,-2.3106,-2.3106,-2.3106,-2.3106,-2.3106,-2.3106,-2.3106,-2.3106,-2.3106,-2.3106,-2.3106,-2.3106,-2.3106,-2.3106,-2.3106,-2.3106,-2.3106,-2.3106,-2.3106,-2.3106,-2.3106,-2.3106,-2.3106,-2.3106,-2.3106,-2.3106,-2.3106,-2.3106,-2.3106,-2.3106,-2.3106,-2.3106,-2.3106,-2.3106,-2.3106,-2.3106,-2.3106,-2.3106,-2.1957,-2.2474,-2.3014,-2.3014,-2.3568,-2.4718,-2.6685,0.0,0.0,-3.0708,-3.108,-3.1063,-3.1903,-3.2373,-3.2727,-3.2727,-3.2727,0.0,0.0,0.0,0.0,0.0,0.0,0.0,0.0,0.0,0.0,0.0,0.0,0.0,0.0,-3.3418,-3.3418,-3.3418,-3.3418,-3.3359,-3.3223,-3.335,-3.335,-3.3223,-3.3359,-3.3418,-3.3418,-3.3418,0.0,0.0,0.0,0.0,0.0,-3.3223,-3.2978,-3.2598,-3.2598,-3.2334,-3.1924,-3.1631,-3.1435,-3.1279,-3.0986,-3.0645,-3.0274,-3.0274,-3.003,-2.9431,-2.8573,-2.7366,-2.6286,-2.592,-2.5798,-2.5798,-2.5798,-2.5798,-2.5798,-2.5798,-2.5798,-2.5798,-2.5798,-2.5798,-2.5798,-2.5798,-2.5063,-2.4456,-2.4456,-2.3728,-2.3106,-2.3106,-2.3106,-2.3106,-2.3106,-2.3106,-2.3106,-2.3106,-2.3106,-2.3106,-2.3106,-2.3106,-2.3106,-2.3106,-2.3106,-2.3106,-2.3106,-2.3106,-2.3106,-2.3106,-2.3106,-2.3106,-2.3106,-2.3106,-2.3106,-2.3106,-2.3106,-2.3604,0.0,-2.2577,-2.3127,-2.3568,-2.4231,0.0,0.0,0.0,0.0,-3.2074,-3.2018,-3.1777,-3.2498,-3.2727,-3.2727,-3.2727,-3.2727,0.0,0.0,0.0,0.0,0.0,0.0,0.0,0.0,0.0,0.0,0.0,0.0,0.0,0.0,0.0,-3.3418,-3.3418,-3.3418,-3.3418,-3.3418,-3.3418,-3.3418,-3.3418,-3.3418,-3.3418,-3.3418,-3.3418,0.0,0.0,0.0,0.0,0.0,-3.3418,-3.3271,-3.3037,-3.3037,-3.2773,-3.2373,-3.21,-3.1797,-3.1475,-3.1211,-3.1025,-3.0889,-3.0889,-3.0889,-3.0762,-2.9903,-2.8453,-2.7013,-2.7013,-2.7013,-2.7013,-2.7013,-2.7013,-2.7013,-2.7013,-2.7013,-2.7013,-2.7013,-2.7013,-2.7013,-2.7013,-2.6407,-2.5798,-2.5798,-2.5063,-2.4571,-2.4571,-2.4571,-2.4571,-2.4571,-2.4571,-2.4571,-2.4571,-2.4571,-2.4571,-2.4571,-2.372,-2.3106,-2.3106,-2.3106,-2.3106,-2.3106,-2.3106,-2.3106,-2.3106,-2.3106,-2.3355,-2.3845,-2.4332,-2.4332,-2.3845,-2.4332,-2.5063,0.0,0.0,0.0,0.0,0.0,0.0,0.0,0.0,0.0,0.0,0.0,-3.2727,-3.2727,-3.2727,-3.2727,-3.2727,0.0,0.0,0.0,0.0,0.0,0.0,0.0,0.0,0.0,0.0,0.0,0.0,0.0,0.0,0.0,0.0,-3.3418,-3.3418,-3.3418,-3.3418,-3.3418,-3.3418,-3.3418,-3.3418,-3.3418,-3.3418,-3.3418,-3.3418,0.0,0.0,0.0,0.0,0.0,-3.3418,-3.3418,-3.3418,-3.3418,-3.3184,-3.2832,-3.2803,-3.2275,-3.1562,-3.1533,-3.124,-3.0889,-3.0889,-3.0889,-3.0889,-3.0889,-2.9194,-2.7254,-2.7254,-2.7254,-2.7254,-2.7254,-2.7254,-2.7254,-2.7254,-2.7254,-2.7254,-2.7254,-2.7254,-2.7254,-2.7254,-2.7254,-2.7134,-2.7134,-2.7013,-2.7013,-2.7013,-2.7013,-2.7013,-2.7013,-2.7013,-2.7013,-2.7013,-2.7013,-2.7013,-2.7013,-2.4702,-2.323,-2.323,-2.3106,-2.3106,-2.323,-2.323,-2.323,-2.3355,-2.3355,-2.3969,-2.5194,-2.6407,-2.6407,-2.5317,-2.6407,-2.7013,-2.4863,0.0,-2.4454,-2.4787,0.0,0.0,0.0,0.0,0.0,0.0,0.0,0.0,0.0,0.0,0.0,0.0,0.0,0.0,0.0,0.0,0.0,0.0,0.0,0.0,0.0,0.0,0.0,0.0,0.0,0.0,0.0,0.0,-3.3418,-3.3418,-3.3418,-3.3418,-3.3418,-3.3418,-3.3418,-3.3418,-3.3418,-3.3418,-3.3418,-3.3418,0.0,0.0,0.0,0.0,-3.3418,-3.3418,-3.3418,-3.3418,-3.3418,-3.3359,-3.3232,-3.291,-3.2461,-3.1963,-3.1631,-3.124,-3.0889,-3.0889,-3.0889,-3.0889,-3.0889,-3.0528,-2.9922,-2.9922,-2.9922,-2.9922,-2.9922,-2.9922,-2.9922,-2.9922,-2.9922,-2.9922,-2.9922,-2.9922,-2.9922,-2.9922,-2.9185,-2.8444,-2.8444,-2.7615,-2.7013,-2.7013,-2.7013,-2.7013,-2.7013,-2.7013,-2.7013,-2.7013,-2.7013,-2.7013,-2.7013,-2.5554,-2.4579,-2.4579,-2.372,-2.3596,-2.4579,-2.4579,-2.5063,-2.6042,-2.6042,-2.6286,-2.6529,-2.6875,-2.6875,-2.6529,-2.69,-2.7495,-2.5248,-2.5313,-2.5,-2.6073,-2.7678,-2.9213,0.0,0.0,0.0,0.0,0.0,0.0,0.0,0.0,0.0,0.0,0.0,0.0,0.0,0.0,0.0,0.0,0.0,0.0,0.0,0.0,0.0,0.0,0.0,0.0,0.0,0.0,-3.3135,-3.3135,-3.332,-3.3418,-3.3418,-3.3418,-3.3418,-3.3418,-3.3418,-3.3418,-3.3418,-3.3418,-3.3418,0.0,0.0,0.0,-3.3418,-3.3418,-3.3418,-3.3418,-3.3418,-3.3418,-3.3389,-3.3164,-3.2822,-3.2393,-3.1963,-3.1406,-3.0889,-3.0889,-3.0889,-3.0889,-3.0889,-3.0889,-3.0889,-3.0889,-3.0889,-3.0889,-3.0889,-3.0889,-3.0889,-3.0889,-3.0889,-3.0889,-3.0889,-3.0889,-3.0889,-3.0889,-3.0274,-2.9785,-2.9785,-2.9303,-2.8829,-2.8829,-2.8829,-2.8829,-2.8829,-2.8829,-2.8829,-2.8829,-2.8829,-2.8829,-2.8829,-2.7607,-2.6641,-2.6042,-2.5309,-2.5186,-2.592,-2.5912,-2.6277,-2.7021,-2.7615,-2.7607,-2.7013,-2.8215,-2.8453,-2.7847,-2.8462,-2.9185,-2.5217,-2.5101,-2.5533,-2.7688,-2.8603,-2.9411,0.0,0.0,0.0,0.0,0.0,0.0,0.0,0.0,0.0,0.0,0.0,0.0,0.0,0.0,0.0,0.0,0.0,0.0,0.0,0.0,0.0,0.0,0.0,0.0,0.0,0.0,-3.2695,-3.2695,-3.3105,-3.333,-3.333,-3.3389,-3.3418,-3.3418,-3.3418,-3.3418,-3.3418,-3.3418,-3.3418,0.0,0.0,0.0,-3.3418,-3.3418,-3.3418,-3.3418,-3.3418,-3.3418,-3.3418,-3.3418,-3.3154,-3.2725,-3.2236,-3.1592,-3.0976,-3.0918,-3.0889,-3.0889,-3.0889,-3.0889,-3.0889,-3.0889,-3.0889,-3.0889,-3.0889,-3.0889,-3.0889,-3.0889,-3.0889,-3.0889,-3.0889,-3.0889,-3.0889,-3.0889,-3.0889,-3.0889,-3.0889,-3.0889,-3.0889,-3.0889,-3.0889,-3.0889,-3.0889,-3.0889,-3.0889,-3.0889,-3.0889,-3.0889,-3.0889,-2.9903,-2.8692,-2.7615,-2.7254,-2.7134,-2.7254,-2.7478,-2.7598,-2.7624,-2.8692,-2.8692,-2.7624,-2.9804,-3.0274,-2.9285,-3.0392,-3.0889,-2.7359,-2.6806,-2.6254,-2.7785,-2.8828,-2.9786,0.0,0.0,0.0,0.0,0.0,0.0,0.0,0.0,0.0,0.0,0.0,0.0,0.0,0.0,0.0,0.0,0.0,0.0,0.0,0.0,0.0,0.0,0.0,0.0,0.0,0.0,-3.2266,-3.2266,-3.2666,-3.2891,-3.2891,-3.3242,-3.3418,-3.3418,-3.3418,-3.3418,-3.3418,-3.3418,-3.3418,0.0,0.0,-3.3418,-3.3418,-3.3418,-3.3418,-3.3418,-3.3418,-3.3418,-3.3418,-3.3418,-3.3154,-3.2685,-3.1885,-3.1533,-3.1367,-3.1006,-3.0889,-3.0889,-3.0889,-3.0889,-3.0889,-3.0889,-3.0889,-3.0889,-3.0889,-3.0889,-3.0889,-3.0889,-3.0889,-3.0889,-3.0889,-3.0889,-3.0889,-3.0889,-3.0889,-3.0889,-3.0889,-3.0889,-3.0889,-3.0889,-3.0889,-3.0889,-3.0889,-3.0889,-3.0889,-3.0889,-3.0889,-3.0889,-3.0889,-3.0762,-3.0518,-3.0284,-2.8224,-2.7495,-2.8564,-2.9667,-3.0274,-3.0284,-3.0518,-3.0528,-3.0284,-3.0655,-3.0772,-3.0645,-3.0762,-3.0889,-2.8067,-2.758,-2.7257,-2.8668,-2.9006,-2.942,-3.0691,0.0,0.0,0.0,0.0,0.0,0.0,0.0,0.0,0.0,0.0,0.0,0.0,0.0,0.0,0.0,0.0,0.0,0.0,0.0,0.0,0.0,0.0,0.0,0.0,0.0,-3.1816,-3.1816,-3.2236,-3.2461,-3.2461,-3.2871,-3.3193,-3.3418,-3.3418,-3.3418,-3.3418,-3.3418,-3.3418,-3.3418,0.0,-3.3418,-3.3418,-3.3418,-3.3418,-3.3418,-3.3418,-3.3418,-3.3418,-3.3418,-3.3154,-3.2705,-3.209,-3.1709,-3.1445,-3.1025,-3.0889,-3.0889,-3.0889,-3.0889,-3.0889,-3.0889,-3.0889,-3.0889,-3.0889,-3.0889,-3.0889,-3.0889,-3.0889,-3.0889,-3.0889,-3.0889,-3.0889,-3.0889,-3.0889,-3.0889,-3.0889,-3.0889,-3.0889,-3.0889,-3.0889,-3.0889,-3.0889,-3.0889,-3.0889,-3.0889,-3.0889,-3.0889,-3.0889,-3.0889,-3.0889,-3.0889,-2.9795,-2.9313,-2.9912,-3.0528,-3.0889,-3.0889,-3.0889,-3.0889,-3.0889,-3.0889,-3.0889,-3.0889,-3.0889,-3.0889,-2.8223,-2.7921,-2.796,-2.8923,0.0,-2.8971,-3.0238,0.0,0.0,0.0,0.0,0.0,0.0,0.0,0.0,0.0,0.0,0.0,0.0,0.0,0.0,0.0,0.0,0.0,0.0,0.0,0.0,0.0,0.0,0.0,0.0,0.0,-3.1367,-3.1367,-3.1787,-3.2012,-3.2012,-3.2432,-3.2861,-3.3271,-3.3379,-3.3418,-3.3418,-3.3418,-3.3418,-3.3418,-3.3418,-3.3418,-3.3418,-3.3418,-3.3418,-3.3418,-3.3418,-3.3418,-3.3418,-3.3418,-3.3223,-3.2871,-3.2353,-3.1953,-3.1582,-3.1064,-3.0889,-3.0889,-3.0889,-3.0889,-3.0889,-3.0889,-3.0889,-3.0889,-3.0889,-3.0889,-3.0889,-3.0889,-3.0889,-3.0889,-3.0889,-3.0889,-3.0889,-3.0889,-3.0889,-3.0889,-3.0889,-3.0889,-3.0889,-3.0889,-3.0889,-3.0889,-3.0889,-3.0889,-3.0889,-3.0889,-3.0889,-3.0889,-3.0889,-3.0889,-3.0889,-3.0889,-3.0889,-3.0889,-3.0889,-3.0889,-3.0889,-3.0889,-3.0889,-3.0889,-3.0889,-3.0889,-3.0889,-3.0889,-3.0889,-3.0889,-2.8445,-2.7805,-2.7587,-2.7967,0.0,0.0,-3.0238,-3.0927,0.0,0.0,0.0,0.0,0.0,0.0,0.0,0.0,0.0,0.0,0.0,0.0,0.0,0.0,0.0,0.0,0.0,0.0,0.0,0.0,0.0,0.0,0.0,0.0,0.0,-3.0937,-3.1348,-3.1562,-3.1562,-3.1992,-3.2422,-3.2842,-3.3232,-3.3418,-3.3418,-3.3418,-3.3418,-3.3418,-3.3418,-3.3418,-3.3418,-3.3418,-3.3418,-3.3418,-3.3418,-3.3418,-3.3418,-3.3418,-3.3408,-3.3262,-3.2451,-3.2148,-3.1982,-3.1162,-3.0889,-3.0889,-3.0889,-3.0889,-3.0889,-3.0889,-3.0889,-3.0889,-3.0889,-3.0889,-3.0889,-3.0889,-3.0889,-3.0889,-3.0889,-3.0889,-3.0889,-3.0889,-3.0889,-3.0889,-3.0889,-3.0889,-3.0889,-3.0889,-3.0889,-3.0889,-3.0889,-3.0889,-3.0889,-3.0889,-3.0889,-3.0889,-3.0889,-3.0889,-3.0889,-3.0889,-3.0889,-3.0889,-3.0889,-3.0889,-3.0889,-3.0889,-3.0889,-3.0889,-3.0889,-3.0889,-3.0889,-3.0889,-3.0889,-3.0889,-2.9217,-2.8126,-2.7371,-2.8591,0.0,0.0,0.0,0.0,0.0,0.0,0.0,0.0,0.0,0.0,0.0,0.0,0.0,0.0,0.0,0.0,0.0,0.0,0.0,0.0,0.0,0.0,0.0,0.0,0.0,0.0,0.0,0.0,0.0,-3.0889,-3.1045,-3.1133,-3.1133,-3.1553,-3.1846,-3.2002,-3.2441,-3.2773,-3.3037,-3.3037,-3.3174,-3.3418,-3.3418,-3.3418,-3.3418,-3.3418,-3.3418,-3.3418,-3.3418,-3.3418,-3.3418,-3.3418,-3.3418,-3.3301,-3.2461,-3.2168,-3.2031,-3.1172,-3.0889,-3.0889,-3.0889,-3.0889,-3.0889,-3.0889,-3.0889,-3.0889,-3.0889,-3.0889,-3.0889,-3.0889,-3.0889,-3.0889,-3.0889,-3.0889,-3.0889,-3.0889,-3.0889,-3.0889,-3.0889,-3.0889,-3.0889,-3.0889,-3.0889,-3.0889,-3.0889,-3.0889,-3.0889,-3.0889,-3.0889,-3.0889,-3.0889,-3.0889,-3.0889,-3.0889,-3.0889,-3.0889,-3.0889,-3.0889,-3.0889,-3.0889,-3.0889,-3.0889,-3.0889,-3.0889,-3.0889,-3.0889,-3.0889,-3.0889,-2.9448,-2.8564,-2.8013,0.0,0.0,0.0,0.0,0.0,0.0,0.0,0.0,0.0,0.0,0.0,0.0,0.0,0.0,0.0,0.0,0.0,0.0,0.0,0.0,0.0,0.0,0.0,0.0,0.0,0.0,0.0,0.0,0.0,0.0,0.0,-3.0889,-3.0889,-3.0889,-3.1172,-3.1318,-3.1318,-3.1621,-3.206,-3.2598,-3.2598,-3.2754,-3.3037,-3.3164,-3.3223,-3.3232,-3.3369,-3.3418,-3.3418,-3.3418,-3.3418,-3.3418,-3.3418,-3.3418,-3.3301,-3.2461,-3.2168,-3.2031,-3.1172,-3.0889,-3.0889,-3.0889,-3.0889,-3.0889,-3.0889,-3.0889,-3.0889,-3.0889,-3.0889,-3.0889,-3.0889,-3.0889,-3.0889,-3.0889,-3.0889,-3.0889,-3.0889,-3.0889,-3.0889,-3.0889,-3.0889,-3.0889,-3.0889,-3.0889,-3.0889,-3.0889,-3.0889,-3.0889,-3.0889,-3.0889,-3.0889,-3.0889,-3.0889,-3.0889,-3.0889,-3.0889,-3.0889,-3.0889,-3.0889,-3.0889,-3.0889,-3.0889,-3.0889,-3.0889,-3.0889,-3.0889,-3.0898,-3.1025,-3.1094,-2.9132,-2.9259,0.0,0.0,0.0,0.0,0.0,0.0,0.0,0.0,0.0,0.0,0.0,0.0,0.0,0.0,0.0,0.0,0.0,0.0,0.0,0.0,0.0,0.0,0.0,0.0,0.0,0.0,0.0,0.0,0.0,0.0,0.0,0.0,-3.0889,-3.0889,-3.0889,-3.0889,-3.0889,-3.0889,-3.0889,-3.1338,-3.2158,-3.2158,-3.2168,-3.2187,-3.2607,-3.2793,-3.2832,-3.3252,-3.3418,-3.3418,-3.3418,-3.3418,-3.3418,-3.3418,-3.3418,-3.3301,-3.2461,-3.2168,-3.2021,-3.1172,-3.0889,-3.0889,-3.0889,-3.0889,-3.0889,-3.0889,-3.0889,-3.0889,-3.0889,-3.0889,-3.0889,-3.0889,-3.0889,-3.0889,-3.0889,-3.0889,-3.0889,-3.0889,-3.0889,-3.0889,-3.0889,-3.0889,-3.0889,-3.0889,-3.0889,-3.0889,-3.0889,-3.0889,-3.0889,-3.0889,-3.0889,-3.0889,-3.0889,-3.0889,-3.0889,-3.0898,-3.0898,-3.0898,-3.0889,-3.0889,-3.0889,-3.0889,-3.0889,-3.0889,-3.0898,-3.0898,-3.0898,-3.0918,-3.1328,-3.1523,-2.8834,-2.8047,0.0,0.0,0.0,0.0,0.0,0.0,0.0,0.0,0.0,0.0,0.0,0.0,0.0,0.0,0.0,0.0,0.0,0.0,0.0,0.0,0.0,0.0,0.0,0.0,0.0,0.0,0.0,0.0,0.0,0.0,0.0,0.0,-3.0889,-3.0889,-3.0889,-3.0889,-3.0889,-3.0889,-3.0889,-3.1182,-3.1709,-3.1709,-3.1875,-3.2178,-3.2305,-3.2519,-3.2832,-3.3252,-3.3418,-3.3418,-3.3418,-3.3418,-3.3418,-3.3418,-3.3232,-3.29,-3.2353,-3.1963,-3.1621,-3.1074,-3.0889,-3.0889,-3.0889,-3.0889,-3.0889,-3.0889,-3.0889,-3.0889,-3.0889,-3.0889,-3.0889,-3.0889,-3.0889,-3.0889,-3.0889,-3.0889,-3.0889,-3.0889,-3.0889,-3.0889,-3.0889,-3.0889,-3.0889,-3.0889,-3.0889,-3.0889,-3.0889,-3.0889,-3.0889,-3.0889,-3.0889,-3.0889,-3.0889,-3.0889,-3.1016,-3.1309,-3.1328,-3.1201,-3.0898,-3.0889,-3.0889,-3.0889,-3.0889,-3.1035,-3.1328,-3.1328,-3.1484,-3.1797,-3.1914,-3.1973,-2.8514,0.0,0.0,0.0,0.0,0.0,0.0,0.0,0.0,0.0,0.0,0.0,0.0,0.0,0.0,0.0,0.0,0.0,0.0,0.0,0.0,0.0,0.0,0.0,0.0,0.0,0.0,0.0,0.0,0.0,0.0,0.0,0.0,0.0,-3.0889,-3.0889,-3.0889,-3.0889,-3.0889,-3.0889,-3.0889,-3.1025,-3.1269,-3.1269,-3.1416,-3.167,-3.1836,-3.2148,-3.2578,-3.2998,-3.3174,-3.3193,-3.3359,-3.332,-3.3174,-3.3174,-3.291,-3.249,-3.206,-3.1738,-3.1445,-3.1025,-3.0889,-3.0889,-3.0889,-3.0889,-3.0889,-3.0889,-3.0889,-3.0889,-3.0889,-3.0889,-3.0889,-3.0889,-3.0889,-3.0889,-3.0889,-3.0889,-3.0889,-3.0889,-3.0889,-3.0889,-3.0889,-3.0889,-3.0889,-3.0889,-3.0889,-3.0889,-3.0889,-3.0889,-3.0957,-3.1123,-3.1143,-3.1211,-3.1387,-3.1396,-3.1504,-3.1758,-3.1777,-3.166,-3.1406,-3.1396,-3.1396,-3.1396,-3.1396,-3.1523,-3.1777,-3.1777,-3.1914,-3.2178,-3.2334,-3.2422,0.0,0.0,0.0,0.0,0.0,0.0,0.0,0.0,0.0,0.0,0.0,0.0,0.0,0.0,0.0,0.0,0.0,0.0,0.0,0.0,0.0,0.0,0.0,0.0,0.0,0.0,0.0,0.0,0.0,0.0,0.0,0.0,0.0,0.0,-3.0889,-3.0889,-3.0889,-3.0889,-3.0889,0.0,-3.0889,-3.0889,-3.0889,-3.0889,-3.0889,-3.0918,-3.1338,-3.1738,-3.2148,-3.2568,-3.2744,-3.2773,-3.3164,-3.3076,-3.2744,-3.2744,-3.2471,-3.2051,-3.165,-3.1494,-3.1396,-3.1016,-3.0889,-3.0889,-3.0889,-3.0889,-3.0889,-3.0889,-3.0889,-3.0889,-3.0889,-3.0889,-3.0889,-3.0889,-3.0889,-3.0889,-3.0889,-3.0889,-3.0889,-3.0889,-3.0889,-3.0889,-3.0889,-3.0889,-3.0889,-3.0889,-3.0928,-3.0947,-3.0947,-3.0986,-3.1152,-3.1533,-3.1572,-3.1738,-3.2129,-3.2168,-3.2187,-3.2226,-3.2226,-3.2246,-3.2285,-3.2207,-3.2168,-3.2168,-3.2168,-3.2187,-3.2226,-3.2226,-3.2246,-3.2295,-3.2676,-3.2851,0.0,0.0,0.0,0.0,0.0,0.0,0.0,0.0,0.0,0.0,0.0,0.0,0.0,0.0,0.0,0.0,0.0,0.0,0.0,0.0,0.0,0.0,0.0,0.0,0.0,0.0,0.0,0.0,0.0,0.0,0.0,0.0,0.0,-3.0889,-3.0889,-3.0889,-3.0889,-3.0889,-3.0889,0.0,-3.0889,-3.0889,-3.0889,-3.0889,-3.0889,-3.0918,-3.1338,-3.1572,-3.1689,-3.2119,-3.2305,-3.2314,-3.2402,-3.2383,-3.2305,-3.2305,-3.2031,-3.1641,-3.1553,-3.1299,-3.1006,-3.0918,-3.0889,-3.0889,-3.0889,-3.0889,-3.0889,-3.0889,-3.0889,-3.0889,-3.0889,-3.0889,-3.0889,-3.0889,-3.0889,-3.0889,-3.0889,-3.0889,-3.0889,-3.0889,-3.0889,-3.0889,-3.0889,-3.0889,-3.0889,-3.0889,-3.1172,-3.1377,-3.1377,-3.168,-3.1934,-3.2021,-3.2031,-3.207,-3.2158,-3.2168,-3.2305,-3.2637,-3.2656,-3.2803,-3.3135,-3.2519,-3.2168,-3.2168,-3.2168,-3.2334,-3.2656,-3.2656,-3.2832,-3.3154,-3.3242,-3.3281,0.0,0.0,0.0,0.0,0.0,0.0,0.0,0.0,0.0,0.0,0.0,0.0,0.0,0.0,0.0,0.0,0.0,0.0,0.0,0.0,0.0,0.0,0.0,0.0,0.0,0.0,0.0,0.0,0.0,0.0,0.0,-3.0889,-3.0889,-3.0889,-3.0889,-3.0889,-3.0889,-3.0889,-3.0889,-3.0889,-3.0889,-3.0889,-3.0889,-3.0889,-3.0889,-3.0898,-3.1123,-3.1211,-3.125,-3.168,-3.1855,-3.1875,-3.209,-3.2041,-3.1855,-3.1855,-3.1592,-3.1211,-3.1211,-3.1074,-3.0889,-3.0889,-3.0889,-3.0889,-3.0889,-3.0889,-3.0889,-3.0889,-3.0889,-3.0889,-3.0889,-3.0889,-3.0889,-3.0889,-3.0889,-3.0889,-3.0889,-3.0889,-3.0889,-3.0889,-3.0889,-3.0889,-3.0889,-3.1055,-3.126,-3.1475,-3.1689,-3.1836,-3.1836,-3.2031,-3.2246,-3.2451,-3.2471,-3.2549,-3.2754,-3.2764,-3.2861,-3.3076,-3.3096,-3.3193,-3.3408,-3.2998,-3.2764,-3.2764,-3.2764,-3.2871,-3.3096,-3.3096,-3.3203,-3.3418,-3.3418,-3.3418,0.0,0.0,0.0,0.0,0.0,0.0,0.0,0.0,0.0,0.0,0.0,0.0,0.0,0.0,0.0,0.0,0.0,0.0,0.0,0.0,0.0,0.0,0.0,0.0,0.0,0.0,0.0,0.0,0.0,0.0,-3.0889,-3.0889,-3.0889,-3.0889,-3.0889,-3.0889,-3.0889,-3.0889,-3.0889,-3.0889,-3.0889,-3.0889,-3.0889,-3.0889,-3.0889,-3.0889,-3.0889,-3.0889,-3.0918,-3.1269,-3.1406,-3.1445,-3.1807,-3.1728,-3.1406,-3.1406,-3.1191,-3.0889,-3.0889,-3.0889,-3.0889,-3.0889,-3.0889,-3.0889,-3.0889,-3.0889,-3.0889,-3.0889,-3.0889,-3.0889,-3.0889,-3.0889,-3.0889,-3.0889,-3.0889,-3.0889,-3.0889,-3.0889,-3.0889,-3.0889,-3.0947,-3.1025,-3.1103,-3.1406,-3.1758,-3.2119,-3.2226,-3.2275,-3.2275,-3.2334,-3.2519,-3.2861,-3.29,-3.3047,-3.3389,-3.3418,-3.3418,-3.3418,-3.3418,-3.3418,-3.3418,-3.3418,-3.3418,-3.3418,-3.3418,-3.3418,-3.3418,-3.3418,-3.3418,-3.3418,-3.3418,-3.3418,0.0,0.0,0.0,0.0,0.0,0.0,0.0,0.0,0.0,0.0,0.0,0.0,0.0,0.0,0.0,0.0,0.0,0.0,0.0,0.0,0.0,0.0,0.0,0.0,0.0,0.0,0.0,0.0,0.0,0.0,-3.0889,-3.0889,-3.0889,-3.0889,-3.0889,-3.0889,-3.0889,-3.0889,-3.0889,-3.0889,-3.0889,-3.0889,-3.0889,-3.0889,-3.0889,-3.0889,-3.0889,-3.0889,-3.0898,-3.0957,-3.0976,-3.0986,-3.1045,-3.1025,-3.0976,-3.0976,-3.0937,-3.0889,-3.0889,-3.0889,-3.0889,-3.0889,-3.0889,-3.0889,-3.0889,-3.0889,-3.0889,-3.0889,-3.0889,-3.0889,-3.0889,-3.0889,-3.0889,-3.0889,-3.0889,-3.0889,-3.0889,-3.0889,-3.0889,-3.0889,-3.1182,-3.1553,-3.1934,-3.2041,-3.21,-3.2158,-3.248,-3.2715,-3.2715,-3.3027,-3.3271,-3.333,-3.334,-3.3359,-3.3418,-3.3418,-3.3418,-3.3418,-3.3418,-3.3418,-3.3418,-3.3418,-3.3418,-3.3418,-3.3418,-3.3418,-3.3418,-3.3418,-3.3418,-3.3418,-3.3418,-3.3418,0.0,0.0,0.0,0.0,0.0,0.0,0.0,0.0,0.0,0.0,0.0,0.0,0.0,0.0,0.0,0.0,0.0,0.0,0.0,0.0,0.0,0.0,0.0,0.0,0.0,0.0,0.0,0.0,0.0,-3.0889,-3.0889,-3.0889,-3.0889,-3.0889,-3.0889,-3.0889,-3.0889,-3.0889,-3.0889,-3.0889,-3.0889,-3.0889,-3.0889,-3.0889,-3.0889,-3.0889,-3.0889,-3.0889,-3.0889,-3.0889,-3.0889,-3.0889,-3.0889,-3.0889,-3.0889,-3.0889,-3.0889,-3.0889,-3.0889,-3.1005,-3.1112,-3.1005,-3.0995,-3.1112,-3.1005,-3.0889,-3.0889,-3.0889,-3.0889,-3.0889,-3.0889,-3.0889,-3.0889,-3.0889,-3.0889,-3.0889,-3.0889,-3.0889,-3.0957,-3.1201,-3.1592,-3.2021,-3.2441,-3.2519,-3.2598,-3.2832,-3.3027,-3.3144,-3.3144,-3.331,-3.3418,-3.3418,-3.3418,-3.3418,-3.3418,-3.3418,-3.3418,-3.3418,-3.3418,-3.3418,-3.3418,-3.3418,-3.3418,-3.3418,-3.3418,-3.3418,-3.3418,-3.3418,-3.3418,-3.3418,-3.3418,-3.3418,0.0,0.0,0.0,0.0,0.0,0.0,0.0,0.0,0.0,0.0,0.0,0.0,0.0,0.0,0.0,0.0,0.0,0.0,0.0,0.0,0.0,0.0,0.0,0.0,0.0,0.0,0.0,0.0,0.0,-3.0889,-3.0889,-3.0889,-3.0889,-3.0889,-3.0889,-3.0889,-3.0889,-3.0889,-3.0889,-3.0889,-3.0889,-3.0889,-3.0889,-3.0889,-3.0889,-3.0889,-3.0889,-3.0889,-3.0889,-3.0889,-3.0889,-3.0889,-3.0889,-3.0889,-3.0889,-3.0889,-3.0889,-3.0889,-3.0889,-3.0995,-3.1218,-3.1005,-3.0995,-3.1102,-3.1005,-3.0889,-3.0889,-3.0889,-3.0889,-3.0889,-3.0889,-3.0889,-3.0889,-3.0889,-3.0889,-3.0918,-3.1025,-3.1055,-3.1211,-3.1738,-3.21,-3.2461,-3.2881,-3.2949,-3.3057,-3.3379,-3.3418,-3.3418,-3.3418,-3.3418,-3.3418,-3.3418,-3.3418,-3.3418,-3.3418,-3.3418,-3.3418,-3.3418,-3.3418,-3.3418,-3.3418,-3.3418,-3.3418,-3.3418,-3.3418,-3.3418,-3.3418,-3.3418,-3.3418,-3.3418,-3.3418,-3.3418,0.0,0.0,0.0,0.0,0.0,0.0,0.0,0.0,0.0,0.0,0.0,0.0,0.0,0.0,0.0,0.0,0.0,0.0,0.0,0.0,0.0,0.0,0.0,0.0,0.0,0.0,0.0,0.0,0.0,-3.0889,-3.0889,-3.0889,-3.0889,-3.0889,-3.0889,-3.0889,-3.0889,-3.0889,-3.0889,-3.0889,-3.0889,-3.0889,-3.0889,-3.0889,-3.0889,-3.0889,-3.0889,-3.0889,-3.0889,-3.0889,-3.0889,-3.0889,-3.0889,-3.0889,-3.0889,-3.0889,-3.0889,-3.0889,-3.0889,-3.0889,-3.0889,-3.0889,-3.0889,-3.0889,-3.0889,-3.0889,-3.0889,-3.0889,-3.0889,-3.0889,-3.0889,-3.0889,-3.0889,-3.0889,-3.0889,-3.0996,-3.1396,-3.1484,-3.1728,-3.2568,-3.2744,-3.29,-3.332,-3.3389,-3.3398,-3.3418,-3.3418,-3.3418,-3.3418,-3.3418,-3.3418,-3.3418,-3.3418,-3.3418,-3.3418,-3.3418,-3.3418,-3.3418,-3.3418,-3.3418,-3.3418,-3.3418,-3.3418,-3.3418,-3.3418,-3.3418,-3.3418,-3.3418,-3.3418,-3.3418,-3.3418,-3.3418,0.0,0.0,0.0,0.0,0.0,0.0,0.0,0.0,0.0,0.0,0.0,0.0,0.0,0.0,0.0,0.0,0.0,0.0,0.0,0.0,0.0,0.0,0.0,0.0,0.0,0.0,0.0,0.0,0.0,0.0,-3.0889,-3.0889,-3.0889,-3.0889,-3.0889,-3.0889,-3.0889,-3.0889,-3.0889,-3.0889,-3.0889,-3.0889,-3.0889,-3.0889,-3.0889,-3.0889,-3.0889,-3.0889,-3.0889,-3.0889,-3.0889,-3.0889,-3.0889,-3.0889,-3.0889,-3.0889,-3.0889,-3.0889,-3.0889,-3.1005,-3.1112,-3.1005,-3.1112,-3.145,-3.1005,-3.1112,-3.146,-3.1005,-3.0995,-3.1112,-3.0889,-3.0889,-3.0957,-3.123,-3.1299,-3.1484,-3.2187,-3.2334,-3.2432,-3.2734,-3.3008,-3.3242,-3.3398,-3.3418,-3.3418,-3.3418,-3.3418,-3.3418,-3.3418,-3.3418,-3.3418,-3.3418,-3.3418,-3.3418,-3.3418,-3.3418,-3.3418,-3.3418,-3.3418,-3.3418,-3.3418,-3.3418,-3.3418,-3.3418,-3.3418,-3.3418,-3.3418,-3.3418,-3.3418,-3.3418,-3.3418,-3.3418,0.0,0.0,0.0,0.0,0.0,0.0,0.0,0.0,0.0,0.0,0.0,0.0,0.0,0.0,0.0,0.0,0.0,0.0,0.0,0.0,0.0,0.0,0.0,0.0,0.0,0.0,0.0,0.0,0.0,0.0,-3.0889,-3.0889,-3.0889,-3.0889,-3.0889,-3.0889,-3.0889,-3.0889,-3.0889,-3.0889,-3.0889,-3.0889,-3.0889,-3.0889,-3.0889,-3.0889,-3.0889,-3.0889,-3.0889,-3.0889,-3.0889,-3.0889,-3.0889,-3.0889,-3.0889,-3.0889,-3.0889,-3.0889,-3.0889,-3.0995,-3.1102,-3.1005,-3.1112,-3.145,-3.1005,-3.1228,-3.145,-3.1005,-3.1112,-3.1218,-3.1005,-3.0996,-3.1172,-3.1455,-3.1738,-3.21,-3.2676,-3.2793,-3.2832,-3.2978,-3.3232,-3.3418,-3.3418,-3.3418,-3.3418,-3.3418,-3.3418,-3.3418,-3.3418,-3.3418,-3.3418,-3.3418,-3.3418,-3.3418,-3.3418,-3.3418,-3.3418,-3.3418,-3.3418,-3.3418,-3.3418,-3.3418,-3.3418,-3.3418,-3.3418,-3.3418,-3.3418,-3.3418,-3.3418,-3.3418,-3.3418,-3.3418,0.0,0.0,0.0,0.0,0.0,0.0,0.0,0.0,0.0,0.0,0.0,0.0,0.0,0.0,0.0,0.0,0.0,0.0,0.0,0.0,0.0,0.0,0.0,0.0,0.0,0.0,0.0,0.0,0.0,-3.0889,-3.0889,-3.0889,-3.0889,-3.0889,-3.0889,-3.0889,-3.0889,-3.0889,-3.0889,-3.0889,-3.0889,-3.0889,-3.0889,-3.0889,-3.0889,-3.0889,-3.0889,-3.0889,-3.0889,-3.0889,-3.0889,-3.0889,-3.0889,-3.0889,-3.0889,-3.0889,-3.0889,-3.0889,-3.0889,-3.0889,-3.0889,-3.0889,-3.0898,-3.0889,-3.0889,-3.0889,-3.0889,-3.0898,-3.1112,-3.1218,-3.1015,-3.1211,-3.1523,-3.1543,-3.2187,-3.2803,-3.2812,-3.2812,-3.293,-3.334,-3.3418,-3.3418,-3.3418,-3.3418,-3.3418,-3.3418,-3.3418,-3.3418,-3.3418,-3.3418,-3.3418,-3.3418,-3.3418,-3.3418,-3.3418,-3.3418,-3.3418,-3.3418,-3.3418,-3.3418,-3.3418,-3.3418,-3.3418,-3.3418,-3.3418,-3.3418,-3.3418,-3.3418,-3.3418,-3.3418,-3.3418,-3.3418,-2.8291,0.0,0.0,0.0,0.0,0.0,0.0,0.0,0.0,0.0,0.0,0.0,0.0,0.0,0.0,0.0,0.0,0.0,0.0,0.0,0.0,0.0,0.0,0.0,0.0,0.0,0.0,0.0,-3.0889,-3.0889,-3.0889,-3.0889,-3.0889,-3.0889,-3.0889,-3.0889,-3.0889,-3.0889,-3.0889,-3.0889,-3.0889,-3.0889,-3.0889,-3.0889,-3.0889,-3.0889,-3.0889,-3.0889,-3.0889,-3.0889,-3.0889,-3.0889,-3.0889,-3.0889,-3.0889,-3.0889,-3.0889,-3.0889,-3.0889,-3.0889,-3.0889,-3.0889,-3.0995,-3.1102,-3.1005,-3.1228,-3.145,-3.1005,-3.1112,-3.1287,-3.1378,-3.1435,-3.167,-3.2295,-3.2617,-3.2881,-3.3184,-3.3252,-3.3281,-3.3398,-3.3418,-3.3418,-3.3418,-3.3418,-3.3418,-3.3418,-3.3418,-3.3418,-3.3418,-3.3418,-3.3418,-3.3418,-3.3418,-3.3418,-3.3418,-3.3418,-3.3418,-3.3418,-3.3418,-3.3418,-3.3418,-3.3418,-3.3418,-3.3418,-3.3418,-3.3418,-3.3418,-3.3418,-3.3418,-3.3418,-3.3418,-3.3418,0.0,0.0,0.0,0.0,0.0,0.0,0.0,-3.0557,0.0,0.0,0.0,0.0,0.0,0.0,0.0,0.0,0.0,0.0,0.0,0.0,0.0,0.0,0.0,0.0,0.0,0.0,0.0,-3.0879,-3.0889,-3.0889,-3.0889,-3.0889,-3.0889,-3.0889,-3.0889,-3.0889,-3.0889,-3.0889,-3.0889,-3.0889,-3.0889,-3.0889,-3.0889,-3.0889,-3.0889,-3.0889,-3.0889,-3.0889,-3.0889,-3.0889,-3.0889,-3.0889,-3.0889,-3.0889,-3.0889,-3.0889,-3.0889,-3.0889,-3.0889,-3.0889,-3.0889,-3.0889,-3.1005,-3.1112,-3.1005,-3.1122,-3.1344,-3.1005,-3.1005,-3.12,-3.1643,-3.177,-3.1953,-3.2637,-3.293,-3.3125,-3.3369,-3.3418,-3.3418,-3.3418,-3.3418,-3.3418,-3.3418,-3.3418,-3.3418,-3.3418,-3.3418,-3.3418,-3.3418,-3.3418,-3.3418,-3.3418,-3.3418,-3.3418,-3.3418,-3.3418,-3.3418,-3.3418,-3.3418,-3.3418,-3.3418,-3.3418,-3.3418,-3.3418,-3.3418,-3.3418,-3.3418,-3.3418,-3.3418,-3.3418,-3.3418,-3.3418,0.0,0.0,0.0,0.0,0.0,0.0,-3.0029,-3.0478,-3.083,0.0,0.0,0.0,0.0,0.0,0.0,0.0,0.0,0.0,0.0,0.0,0.0,0.0,0.0,0.0,0.0,-3.0127,-3.0293,-3.0713,-3.0791,-3.081,-3.081,-3.0859,-3.0889,-3.0889,-3.0889,-3.0889,-3.0889,-3.0889,-3.0889,-3.0889,-3.0889,-3.0889,-3.0889,-3.0889,-3.0889,-3.0889,-3.0889,-3.0889,-3.0889,-3.0889,-3.0889,-3.0889,-3.0889,-3.0889,-3.0889,-3.0889,-3.0889,-3.0889,-3.0889,-3.0889,-3.0889,-3.0889,-3.0889,-3.0889,-3.0889,-3.0889,-3.0889,-3.0889,-3.0928,-3.1172,-3.1831,-3.2155,-3.2344,-3.2764,-3.3144,-3.3418,-3.3418,-3.3418,-3.3418,-3.3418,-3.3418,-3.3418,-3.3418,-3.3418,-3.3418,-3.3418,-3.3418,-3.3418,-3.3418,-3.3418,-3.3418,-3.3418,-3.3418,-3.3418,-3.3418,-3.3418,-3.3418,-3.3418,-3.3418,-3.3418,-3.3418,-3.3418,-3.3418,-3.3418,-3.3418,-3.3418,-3.3418,-3.3418,-3.3418,-3.3418,-3.3418,-3.3428,0.0,0.0,0.0,0.0,0.0,0.0,-2.959,-3.0029,-3.0439,0.0,0.0,0.0,0.0,0.0,0.0,0.0,0.0,0.0,0.0,0.0,0.0,0.0,0.0,0.0,0.0,-2.9687,-2.9736,-2.9824,-3.0137,-3.0332,-3.0332,-3.0684,-3.0889,-3.0889,-3.0889,-3.0889,-3.0889,-3.0889,-3.0889,-3.0889,-3.0889,-3.0889,-3.0889,-3.0889,-3.0889,-3.0889,-3.0889,-3.0889,-3.0889,-3.0889,-3.0889,-3.0889,-3.0889,-3.0889,-3.0889,-3.0889,-3.0889,-3.0889,-3.0889,-3.0889,-3.0889,-3.0889,-3.0889,-3.0889,-3.0889,-3.0889,-3.0889,-3.0889,-3.1133,-3.1494,-3.2054,-3.2476,-3.2773,-3.3203,-3.3359,-3.3418,-3.3418,-3.3418,-3.3418,-3.3418,-3.3418,-3.3418,-3.3418,-3.3418,-3.3418,-3.3418,-3.3418,-3.3418,-3.3418,-3.3418,-3.3418,-3.3418,-3.3418,-3.3418,-3.3418,-3.3418,-3.3418,-3.3418,-3.3418,-3.3418,-3.3418,-3.3418,-3.3418,-3.3418,-3.3418,-3.3418,-3.3418,-3.3418,-3.3418,-3.3428,-3.367,-3.3796,0.0,0.0,0.0,-2.8291,0.0,0.0,0.0,-2.9893,-3.0332,0.0,0.0,0.0,0.0,0.0,0.0,0.0,0.0,0.0,0.0,0.0,0.0,0.0,0.0,0.0,0.0,-2.9248,-2.9336,-2.9551,-2.9766,-2.9883,-2.9883,-3.0303,-3.0547,-3.0547,-3.0771,-3.0889,-3.0889,-3.0889,-3.0889,-3.0889,-3.0889,-3.0889,-3.0889,-3.0889,-3.0889,-3.0889,-3.0889,-3.0889,-3.0889,-3.0889,-3.0889,-3.0889,-3.0889,-3.0889,-3.0889,-3.0889,-3.0889,-3.0889,-3.0889,-3.0889,-3.0889,-3.0889,-3.0889,-3.0889,-3.0889,-3.0889,-3.0937,-3.1143,-3.1348,-3.166,-3.2314,-3.2637,-3.29,-3.332,-3.3418,-3.3418,-3.3418,-3.3418,-3.3418,-3.3418,-3.3912,-3.4153,-3.3544,-3.3418,-3.3418,-3.3418,-3.3418,-3.3418,-3.3418,-3.3418,-3.3418,-3.3418,-3.3418,-3.3418,-3.3418,-3.3418,-3.3418,-3.3418,-3.3418,-3.3418,-3.3418,-3.3418,-3.3418,-3.3418,-3.3418,-3.3418,-3.3418,-3.3418,-3.3418,-3.3428,-3.3796,-3.3922,0.0,0.0,0.0,0.0,0.0,-2.8906,0.0,0.0,0.0,0.0,0.0,0.0,0.0,0.0,0.0,0.0,0.0,0.0,0.0,0.0,0.0,0.0,0.0,0.0,0.0,-2.8799,-2.8945,-2.9297,-2.9404,-2.9443,-2.9443,-2.9922,-3.0195,-3.0195,-3.0644,-3.0889,-3.0889,-3.0889,-3.0889,-3.0889,-3.0889,-3.0889,-3.0889,-3.0889,-3.0889,-3.0889,-3.0889,-3.0889,-3.0889,-3.0889,-3.0889,-3.0889,-3.0889,-3.0889,-3.0889,-3.0889,-3.0889,-3.0889,-3.0889,-3.0889,-3.0889,-3.0889,-3.0889,-3.0889,-3.0889,-3.0947,-3.1084,-3.1426,-3.1631,-3.1924,-3.2617,-3.2861,-3.2998,-3.334,-3.3418,-3.3418,-3.3796,-3.3786,-3.3912,-3.4153,-3.5005,-3.5376,-3.4027,-3.3786,-3.3912,-3.4153,-3.366,-3.3544,-3.3786,-3.3544,-3.3418,-3.3418,-3.3418,-3.3418,-3.3418,-3.3418,-3.3418,-3.3418,-3.3418,-3.3418,-3.3418,-3.3418,-3.3418,-3.3418,-3.3418,-3.3544,-3.3544,-3.3544,-3.3544,-3.3544,-3.3796,-3.4047,0.0,0.0,0.0,0.0,-2.833,0.0,0.0,0.0,0.0,0.0,0.0,0.0,0.0,0.0,0.0,0.0,0.0,0.0,0.0,0.0,0.0,0.0,0.0,0.0,0.0,0.0,-2.8389,-2.8428,-2.8789,-2.8994,-2.8994,-2.9756,-3.0195,-3.0195,-3.0644,-3.0889,-3.0889,-3.0889,-3.0889,-3.0889,-3.0889,-3.0889,-3.0889,-3.0889,-3.0889,-3.0889,-3.0889,-3.0889,-3.0889,-3.0889,-3.0889,-3.0889,-3.0889,-3.0889,-3.0889,-3.0889,-3.0889,-3.0889,-3.0889,-3.0889,-3.0889,-3.0889,-3.0889,-3.0889,-3.0889,-3.1152,-3.1455,-3.1504,-3.206,-3.2676,-3.2773,-3.3076,-3.3359,-3.3408,-3.3418,-3.3796,-3.4891,-3.5129,-3.55,-3.6703,-3.6935,-3.6703,-3.5376,-3.5129,-3.5623,-3.6692,-3.4881,-3.3786,-3.5015,-3.4153,-3.3418,-3.3418,-3.3418,-3.3418,-3.3418,-3.3418,-3.3418,-3.3418,-3.3418,-3.3418,-3.3418,-3.3418,-3.3418,-3.3418,-3.367,-3.3796,-3.3796,-3.4173,-3.4173,-3.3796,-3.4173,-3.4548,0.0,0.0,0.0,0.0,0.0,0.0,-2.8818,0.0,-2.9385,0.0,0.0,0.0,0.0,0.0,0.0,0.0,0.0,0.0,0.0,0.0,0.0,0.0,0.0,0.0,0.0,0.0,0.0,0.0,0.0,-2.8555,-2.8555,-2.9121,-2.957,-2.9824,-3.0254,-3.0615,-3.0889,-3.0889,-3.0889,-3.0889,-3.0889,-3.0889,-3.0889,-3.0889,-3.0889,-3.0889,-3.0889,-3.0889,-3.0889,-3.0889,-3.0889,-3.0889,-3.0889,-3.0889,-3.0889,-3.0889,-3.0889,-3.0889,-3.0889,-3.0889,-3.0889,-3.0889,-3.0889,-3.0937,-3.1417,-3.1495,-3.1621,-3.2361,-3.3224,-3.3922,-3.4184,-3.4985,-3.5602,-3.5602,-3.5602,-3.5848,-3.6338,-3.646,-3.6703,-3.7177,-3.7899,-3.8257,-3.7659,-3.6935,-3.6703,-3.7177,-3.5725,-3.4767,-3.5376,-3.4278,-3.3418,-3.3418,-3.3418,-3.3418,-3.3418,-3.3418,-3.3418,-3.3418,-3.3544,-3.3796,-3.3922,-3.3922,-3.3922,-3.3922,-3.4173,-3.4173,-3.4173,-3.4298,-3.4423,-3.4423,-3.4673,-3.4797,-2.8291,0.0,0.0,0.0,0.0,0.0,0.0,0.0,0.0,0.0,0.0,0.0,0.0,0.0,0.0,0.0,0.0,0.0,0.0,0.0,0.0,0.0,0.0,0.0,0.0,0.0,0.0,0.0,-2.8291,-2.8291,-2.8291,-2.8691,-2.9121,-2.956,-2.998,-3.042,-3.0889,-3.0889,-3.0889,-3.0889,-3.0889,-3.0889,-3.0889,-3.0889,-3.0889,-3.0889,-3.0889,-3.0889,-3.0889,-3.0889,-3.0889,-3.0889,-3.0889,-3.0889,-3.0889,-3.0889,-3.0889,-3.0889,-3.0889,-3.0889,-3.0889,-3.0889,-3.1005,-3.1191,-3.2183,-3.2512,-3.2763,-3.4124,-3.5018,-3.566,-3.6009,-3.6703,-3.7298,-3.7418,-3.7418,-3.7418,-3.7887,-3.7899,-3.7899,-3.8268,-3.911,-3.9709,-3.9709,-3.8625,-3.7899,-3.8268,-3.6703,-3.5735,-3.6449,-3.4757,-3.366,-3.4507,-3.3902,-3.367,-3.4037,-3.3786,-3.367,-3.367,-3.3922,-3.4173,-3.4423,-3.4423,-3.4423,-3.4423,-3.4548,-3.4548,-3.4548,-3.4673,-3.4797,-3.5046,-3.4922,-3.4922,0.0,0.0,0.0,-2.8291,0.0,0.0,0.0,0.0,-2.8926,0.0,0.0,0.0,0.0,0.0,0.0,-2.8516,0.0,0.0,0.0,0.0,0.0,0.0,0.0,0.0,0.0,0.0,0.0,-2.8291,-2.8291,-2.8291,-2.8291,-2.8691,-2.9121,-2.956,-2.998,-3.042,-3.0889,-3.0889,-3.0889,-3.0889,-3.0889,-3.0889,-3.0889,-3.0889,-3.0889,-3.0889,-3.0889,-3.0889,-3.0889,-3.0889,-3.0889,-3.0889,-3.0889,-3.0889,-3.0889,-3.0889,-3.0889,-3.0889,-3.0889,-3.0889,-3.0889,-3.0889,-3.1112,-3.1626,-3.3287,-3.4297,-3.5221,-3.7011,-3.7617,-3.7735,-3.7757,-3.7528,-3.7418,-3.7757,-3.7528,-3.7779,-3.9322,-3.9334,-3.9463,-4.0815,-4.1069,-4.1184,-4.1184,-4.0071,-3.9592,-4.093,-3.779,-3.646,-3.9193,-3.5949,-3.4507,-3.7385,-3.5355,-3.4413,-3.5756,-3.4911,-3.4423,-3.4423,-3.4423,-3.4423,-3.4423,-3.4423,-3.4423,-3.4423,-3.4673,-3.4922,-3.4922,-3.517,-3.5418,-3.5418,-3.5046,-3.5046,0.0,0.0,-2.8291,-2.8291,0.0,0.0,0.0,0.0,0.0,0.0,0.0,0.0,0.0,0.0,0.0,-2.9189,-2.9375,0.0,0.0,0.0,0.0,0.0,0.0,0.0,0.0,0.0,0.0,-2.8291,-2.8291,-2.8291,0.0,-2.8428,-2.8828,-2.9551,-2.9707,-3.0137,-3.0889,-3.0889,-3.0889,-3.0889,-3.0889,-3.0889,-3.0889,-3.0889,-3.0889,-3.0889,-3.0889,-3.0889,-3.0889,-3.0889,-3.0889,-3.0889,-3.1112,-3.1652,-3.2311,-3.2113,-3.2133,-3.2238,-3.2892,-3.3222,-3.3222,-3.3222,-3.3101,-3.3319,-3.5244,-3.57,-3.5833,-3.7736,-3.8821,-3.9299,-3.9299,-3.9919,-4.0536,-4.0651,-4.0536,-4.0663,-4.1136,-4.1251,-4.1263,-4.1757,-4.1769,-4.1769,-4.1769,-4.139,-4.1148,-4.1184,-3.9463,-3.8602,-3.9557,-3.7757,-3.6792,-3.7985,-3.6549,-3.5715,-3.6082,-3.5139,-3.4548,-3.4673,-3.4673,-3.4797,-3.5046,-3.5046,-3.5046,-3.5046,-3.517,-3.517,-3.517,-3.5294,-3.5418,-3.5418,-3.5294,-3.5294,-2.8291,-2.8291,0.0,-2.8291,-2.8291,0.0,-2.8291,0.0,0.0,0.0,0.0,0.0,0.0,0.0,0.0,-2.9121,-2.9121,-2.9014,0.0,-2.8467,0.0,0.0,0.0,0.0,0.0,0.0,-2.8291,-2.8291,-2.8291,-2.8291,0.0,0.0,-2.8613,-2.9316,-2.9482,-2.9912,-3.0635,-3.081,-3.0889,-3.0889,-3.0889,-3.0889,-3.0889,-3.0889,-3.0889,-3.0889,-3.0889,-3.0889,-3.0889,-3.0889,-3.0889,-3.1005,-3.1662,-3.2416,-3.3077,-3.2985,-3.3222,-3.3776,-3.4436,-3.4659,-3.4547,-3.4547,-3.4651,-3.5016,-3.6849,-3.7449,-3.7713,-3.964,-4.0616,-4.0973,-4.0973,-4.148,-4.2098,-4.2211,-4.2211,-4.2098,-4.2211,-4.2211,-4.211,-4.211,-4.211,-4.211,-4.211,-4.2211,-4.2098,-4.1643,-4.0536,-4.0036,-4.0616,-3.9064,-3.8342,-3.9651,-3.7746,-3.6316,-3.5971,-3.5273,-3.4797,-3.5046,-3.5046,-3.517,-3.5428,-3.5418,-3.5418,-3.5418,-3.5418,-3.5418,-3.5418,-3.5418,-3.5418,-3.5418,-3.5418,-3.5418]},{"header":{"parameterUnit":"m.s-1","parameterCategory":1,"la1":30.6,"la2":29.2853,"lo1":-89.7004,"lo2":-87.6739,"dy":0.0162,"dx":0.0183,"nx":112,"ny":82,"refTime":"2023-07-18T12:00:00:Z","depth":0,"parameterNumber":3,"parameterNumberName":"V-component_of_WINDS"},"data":[0.0,0.0,0.0,0.0,0.0,0.0,0.0,0.0,0.0,0.0,0.0,0.0,0.0,0.0,0.0,0.0,0.0,0.0,0.0,0.0,0.0,0.0,0.0,0.0,0.0,0.0,0.0,0.0,0.0,0.0,0.0,0.0,0.0,0.0,0.0,0.0,0.0,0.0,0.0,0.0,0.0,0.0,0.0,0.0,0.0,0.0,0.0,0.0,0.0,0.0,0.0,0.0,0.0,0.0,0.0,0.0,0.0,0.0,0.0,0.0,0.0,0.0,0.0,0.0,0.0,0.0,0.0,0.0,0.0,0.0,0.0,0.0,0.0,0.0,0.0,0.0,0.0,0.0,0.0,0.0,0.0,0.0,0.0,0.0,0.0,0.0,0.0,0.0,0.0,0.0,0.0,-4.2313,-4.3001,-4.3416,-4.3416,-4.3416,-4.3466,-4.3615,0.0,0.0,0.0,0.0,0.0,0.0,0.0,0.0,0.0,0.0,0.0,0.0,0.0,0.0,0.0,0.0,0.0,0.0,0.0,0.0,0.0,0.0,0.0,0.0,0.0,0.0,0.0,0.0,0.0,0.0,0.0,0.0,0.0,0.0,0.0,0.0,0.0,0.0,0.0,0.0,0.0,0.0,0.0,0.0,0.0,0.0,0.0,0.0,0.0,0.0,0.0,0.0,0.0,0.0,0.0,0.0,0.0,0.0,0.0,0.0,0.0,0.0,0.0,0.0,0.0,0.0,0.0,0.0,0.0,0.0,0.0,0.0,0.0,0.0,0.0,0.0,0.0,0.0,0.0,0.0,0.0,0.0,0.0,0.0,0.0,0.0,0.0,0.0,0.0,0.0,0.0,0.0,0.0,0.0,0.0,0.0,0.0,0.0,0.0,0.0,0.0,0.0,0.0,0.0,-4.24,-4.3219,-4.3422,-4.3481,-4.3481,-4.3481,-4.3811,-4.454,0.0,0.0,0.0,0.0,0.0,0.0,0.0,0.0,0.0,0.0,0.0,0.0,0.0,0.0,0.0,0.0,0.0,0.0,0.0,0.0,0.0,0.0,0.0,0.0,0.0,0.0,0.0,0.0,0.0,0.0,0.0,0.0,0.0,0.0,0.0,0.0,0.0,0.0,0.0,0.0,0.0,0.0,0.0,0.0,0.0,0.0,0.0,0.0,0.0,0.0,0.0,0.0,0.0,0.0,0.0,0.0,0.0,0.0,0.0,0.0,0.0,0.0,0.0,0.0,0.0,0.0,0.0,0.0,0.0,0.0,0.0,0.0,0.0,0.0,0.0,0.0,0.0,0.0,0.0,0.0,0.0,0.0,0.0,0.0,0.0,0.0,0.0,0.0,0.0,0.0,0.0,0.0,0.0,0.0,0.0,0.0,0.0,0.0,0.0,0.0,0.0,0.0,0.0,-4.2864,-4.3799,-4.4175,-4.4598,-4.4851,-4.4851,-4.4851,-4.5025,-4.5433,-4.5054,0.0,0.0,0.0,0.0,0.0,0.0,0.0,0.0,0.0,0.0,0.0,0.0,0.0,0.0,0.0,0.0,0.0,0.0,0.0,0.0,0.0,0.0,0.0,0.0,0.0,0.0,0.0,0.0,0.0,0.0,0.0,0.0,0.0,0.0,0.0,0.0,0.0,0.0,0.0,0.0,0.0,0.0,0.0,0.0,0.0,0.0,0.0,0.0,0.0,0.0,0.0,0.0,0.0,0.0,0.0,0.0,0.0,0.0,0.0,0.0,0.0,0.0,0.0,0.0,0.0,0.0,0.0,0.0,0.0,0.0,0.0,0.0,0.0,0.0,0.0,0.0,0.0,0.0,0.0,0.0,0.0,0.0,0.0,0.0,0.0,0.0,0.0,0.0,0.0,0.0,0.0,0.0,0.0,0.0,0.0,0.0,0.0,0.0,0.0,0.0,0.0,0.0,-4.4031,-4.4896,-4.5111,-4.5663,-4.6018,-4.6018,-4.6017,-4.5997,-4.5997,-4.5997,0.0,0.0,0.0,0.0,0.0,0.0,0.0,0.0,0.0,0.0,0.0,0.0,0.0,0.0,0.0,0.0,0.0,0.0,0.0,0.0,0.0,0.0,0.0,0.0,0.0,0.0,0.0,0.0,0.0,0.0,0.0,0.0,0.0,0.0,0.0,0.0,0.0,0.0,0.0,0.0,0.0,0.0,0.0,0.0,0.0,0.0,0.0,0.0,0.0,0.0,0.0,0.0,0.0,0.0,0.0,0.0,0.0,0.0,0.0,0.0,0.0,0.0,0.0,0.0,0.0,0.0,0.0,0.0,0.0,0.0,0.0,0.0,0.0,0.0,0.0,0.0,0.0,0.0,0.0,0.0,0.0,0.0,0.0,0.0,0.0,0.0,0.0,0.0,0.0,0.0,0.0,0.0,0.0,0.0,0.0,0.0,0.0,0.0,0.0,0.0,0.0,0.0,-4.4813,-4.5203,-4.6023,-4.6092,-4.6091,-4.6091,-4.6036,-4.5997,-4.5997,-4.5997,0.0,0.0,0.0,0.0,0.0,0.0,0.0,0.0,0.0,0.0,0.0,0.0,0.0,0.0,0.0,0.0,0.0,0.0,0.0,0.0,0.0,0.0,0.0,0.0,0.0,0.0,0.0,0.0,0.0,0.0,0.0,0.0,0.0,0.0,0.0,0.0,0.0,0.0,0.0,0.0,0.0,0.0,0.0,0.0,0.0,0.0,0.0,0.0,0.0,0.0,0.0,0.0,0.0,0.0,0.0,0.0,0.0,0.0,0.0,0.0,0.0,0.0,0.0,0.0,0.0,0.0,0.0,0.0,0.0,0.0,0.0,0.0,0.0,0.0,0.0,0.0,0.0,0.0,0.0,0.0,0.0,0.0,0.0,0.0,0.0,0.0,0.0,0.0,0.0,0.0,0.0,0.0,0.0,0.0,0.0,0.0,0.0,0.0,0.0,0.0,0.0,0.0,-4.539,-4.5833,0.0,-4.6142,-4.6084,-4.6046,-4.6008,-4.5997,-4.5997,0.0,0.0,0.0,0.0,0.0,0.0,0.0,0.0,0.0,0.0,0.0,0.0,0.0,0.0,0.0,0.0,0.0,0.0,0.0,0.0,0.0,0.0,0.0,0.0,0.0,0.0,0.0,0.0,0.0,0.0,0.0,0.0,0.0,0.0,0.0,0.0,0.0,0.0,0.0,0.0,0.0,0.0,0.0,0.0,0.0,0.0,0.0,0.0,0.0,0.0,0.0,0.0,0.0,0.0,0.0,0.0,0.0,0.0,0.0,0.0,0.0,0.0,0.0,0.0,0.0,0.0,0.0,0.0,0.0,0.0,0.0,0.0,0.0,0.0,0.0,0.0,0.0,0.0,0.0,0.0,0.0,0.0,0.0,0.0,0.0,0.0,0.0,0.0,0.0,0.0,0.0,0.0,0.0,0.0,0.0,0.0,0.0,0.0,0.0,0.0,0.0,0.0,-4.5358,-4.5857,-4.6209,0.0,-4.6142,-4.6076,-4.6036,-4.5998,-4.6017,-4.6027,0.0,0.0,0.0,0.0,0.0,0.0,0.0,0.0,0.0,0.0,0.0,0.0,0.0,0.0,0.0,0.0,0.0,0.0,0.0,0.0,0.0,0.0,0.0,0.0,0.0,0.0,0.0,0.0,0.0,0.0,0.0,0.0,0.0,0.0,0.0,0.0,0.0,0.0,0.0,0.0,0.0,0.0,0.0,0.0,0.0,0.0,0.0,0.0,0.0,0.0,0.0,0.0,0.0,0.0,0.0,0.0,0.0,0.0,0.0,0.0,0.0,0.0,0.0,0.0,0.0,0.0,0.0,0.0,0.0,0.0,0.0,0.0,0.0,0.0,0.0,0.0,0.0,0.0,0.0,0.0,0.0,0.0,0.0,0.0,0.0,0.0,0.0,0.0,0.0,0.0,0.0,0.0,0.0,0.0,0.0,0.0,0.0,0.0,0.0,0.0,0.0,0.0,-4.6093,-4.6191,-4.6209,-4.6206,-4.6142,-4.6098,-4.6098,-4.6046,-4.6027,0.0,0.0,0.0,0.0,0.0,0.0,0.0,0.0,0.0,0.0,0.0,0.0,0.0,0.0,0.0,0.0,0.0,0.0,0.0,0.0,0.0,0.0,0.0,0.0,0.0,0.0,0.0,0.0,0.0,0.0,0.0,0.0,0.0,0.0,0.0,0.0,0.0,0.0,0.0,0.0,0.0,0.0,0.0,0.0,0.0,0.0,0.0,0.0,0.0,0.0,0.0,0.0,0.0,0.0,0.0,0.0,0.0,0.0,0.0,0.0,0.0,0.0,0.0,0.0,0.0,0.0,0.0,0.0,0.0,0.0,0.0,0.0,0.0,0.0,0.0,0.0,0.0,0.0,0.0,0.0,0.0,0.0,0.0,0.0,0.0,0.0,0.0,0.0,0.0,0.0,0.0,0.0,0.0,0.0,0.0,0.0,0.0,0.0,0.0,0.0,0.0,0.0,0.0,-4.6248,-4.6261,-4.6249,-4.6205,-4.6186,-4.6167,-4.6164,-4.6154,-4.615,-4.617,0.0,0.0,0.0,0.0,0.0,0.0,0.0,0.0,0.0,0.0,0.0,0.0,0.0,0.0,0.0,0.0,0.0,0.0,0.0,0.0,0.0,0.0,0.0,0.0,0.0,0.0,0.0,0.0,0.0,0.0,0.0,0.0,0.0,0.0,0.0,0.0,0.0,0.0,0.0,0.0,0.0,0.0,0.0,0.0,0.0,0.0,0.0,0.0,0.0,0.0,0.0,0.0,0.0,0.0,0.0,0.0,0.0,0.0,0.0,0.0,0.0,0.0,0.0,0.0,0.0,0.0,0.0,0.0,0.0,0.0,0.0,0.0,0.0,0.0,0.0,0.0,0.0,0.0,0.0,0.0,0.0,0.0,0.0,0.0,0.0,0.0,0.0,0.0,0.0,0.0,0.0,0.0,0.0,0.0,0.0,0.0,0.0,0.0,0.0,0.0,0.0,0.0,-4.6261,-4.6268,-4.6247,-4.6209,-4.621,-4.6201,-4.6203,-4.6196,-4.6196,-4.6201,0.0,0.0,0.0,0.0,0.0,0.0,0.0,0.0,0.0,0.0,0.0,0.0,0.0,0.0,0.0,0.0,0.0,0.0,0.0,0.0,0.0,0.0,0.0,0.0,0.0,0.0,0.0,0.0,0.0,0.0,0.0,0.0,0.0,0.0,0.0,0.0,0.0,0.0,0.0,0.0,0.0,0.0,0.0,0.0,0.0,0.0,0.0,0.0,0.0,0.0,0.0,0.0,0.0,0.0,0.0,0.0,0.0,0.0,0.0,0.0,0.0,0.0,0.0,0.0,0.0,0.0,0.0,0.0,0.0,0.0,0.0,0.0,0.0,0.0,0.0,0.0,0.0,0.0,0.0,0.0,0.0,0.0,0.0,0.0,0.0,0.0,0.0,0.0,0.0,0.0,0.0,0.0,0.0,0.0,0.0,0.0,0.0,0.0,0.0,0.0,0.0,0.0,-4.6228,-4.6217,-4.6214,-4.6203,-4.6209,-4.6209,-4.6209,-4.6209,-4.6215,-4.6202,0.0,0.0,0.0,0.0,0.0,0.0,0.0,0.0,0.0,0.0,0.0,0.0,0.0,0.0,0.0,0.0,0.0,0.0,0.0,0.0,0.0,0.0,0.0,0.0,0.0,0.0,0.0,0.0,0.0,0.0,0.0,0.0,0.0,0.0,0.0,0.0,0.0,0.0,0.0,0.0,0.0,0.0,0.0,0.0,0.0,0.0,0.0,0.0,0.0,0.0,0.0,0.0,0.0,0.0,0.0,0.0,0.0,0.0,0.0,0.0,-4.3395,0.0,0.0,0.0,0.0,0.0,0.0,0.0,0.0,0.0,0.0,0.0,0.0,0.0,0.0,0.0,0.0,0.0,0.0,0.0,0.0,0.0,0.0,0.0,0.0,0.0,0.0,0.0,0.0,0.0,0.0,0.0,0.0,0.0,0.0,0.0,0.0,0.0,0.0,0.0,0.0,0.0,-4.6261,-4.6288,-4.6288,-4.628,-4.6284,-4.6288,-4.6288,-4.6288,-4.628,-4.6278,-4.6285,0.0,0.0,0.0,0.0,0.0,0.0,0.0,0.0,0.0,0.0,0.0,0.0,0.0,0.0,0.0,0.0,0.0,0.0,0.0,0.0,0.0,0.0,0.0,0.0,0.0,0.0,0.0,0.0,0.0,0.0,0.0,0.0,0.0,0.0,0.0,0.0,0.0,0.0,0.0,0.0,0.0,0.0,0.0,0.0,0.0,0.0,0.0,0.0,0.0,0.0,0.0,0.0,0.0,0.0,0.0,0.0,0.0,0.0,0.0,0.0,-4.4533,0.0,0.0,0.0,0.0,0.0,0.0,0.0,0.0,0.0,0.0,0.0,0.0,0.0,0.0,0.0,0.0,0.0,0.0,0.0,0.0,0.0,0.0,0.0,0.0,0.0,0.0,0.0,0.0,0.0,0.0,0.0,0.0,0.0,0.0,0.0,0.0,0.0,0.0,0.0,0.0,-4.63,-4.6307,-4.6308,-4.63,-4.6309,-4.63,-4.63,-4.63,-4.6303,-4.6293,-4.6303,0.0,0.0,0.0,0.0,0.0,0.0,0.0,0.0,0.0,0.0,0.0,0.0,0.0,0.0,0.0,0.0,0.0,0.0,0.0,0.0,0.0,0.0,0.0,0.0,0.0,0.0,0.0,0.0,0.0,0.0,0.0,0.0,0.0,0.0,0.0,0.0,0.0,0.0,0.0,0.0,0.0,0.0,0.0,0.0,0.0,0.0,0.0,0.0,0.0,0.0,0.0,0.0,0.0,-4.6124,-4.6092,-4.6099,-4.6099,-4.6078,-4.6016,-4.5969,-4.6006,-4.6105,0.0,0.0,0.0,0.0,0.0,0.0,0.0,0.0,0.0,0.0,0.0,0.0,0.0,0.0,0.0,0.0,0.0,0.0,0.0,0.0,0.0,0.0,0.0,0.0,0.0,-4.6236,-4.6211,0.0,0.0,0.0,0.0,0.0,0.0,0.0,0.0,0.0,0.0,0.0,0.0,-4.6284,-4.6288,-4.6288,-4.629,-4.6306,-4.6306,-4.63,-4.63,-4.63,-4.63,-4.6297,-4.6306,0.0,0.0,0.0,0.0,0.0,0.0,0.0,0.0,0.0,0.0,0.0,0.0,0.0,0.0,0.0,0.0,0.0,0.0,0.0,0.0,0.0,0.0,0.0,0.0,0.0,0.0,0.0,0.0,0.0,0.0,0.0,0.0,-4.2304,-4.3047,0.0,0.0,0.0,0.0,0.0,0.0,0.0,0.0,0.0,0.0,0.0,0.0,0.0,-4.5744,-4.5842,-4.5977,-4.6049,-4.6111,-4.6099,-4.6094,-4.6108,-4.6108,-4.6105,-4.6085,-4.6088,0.0,-4.6105,-4.6094,0.0,0.0,0.0,0.0,0.0,0.0,0.0,0.0,0.0,0.0,0.0,0.0,0.0,0.0,0.0,0.0,0.0,0.0,0.0,0.0,0.0,0.0,-4.6211,-4.6211,-4.6206,-4.6206,0.0,-4.6211,-4.6211,-4.6211,-4.6211,0.0,0.0,0.0,0.0,0.0,0.0,0.0,-4.6202,-4.6202,-4.6237,-4.6287,-4.6305,-4.6301,-4.6303,-4.63,-4.63,-4.63,-4.6303,-4.6295,-4.6307,-4.6288,0.0,0.0,0.0,0.0,0.0,0.0,0.0,0.0,0.0,0.0,0.0,0.0,0.0,0.0,0.0,0.0,0.0,0.0,0.0,0.0,0.0,0.0,0.0,0.0,0.0,0.0,0.0,0.0,0.0,-4.2572,-4.2943,-4.329,-4.3394,-4.362,0.0,0.0,0.0,0.0,0.0,0.0,0.0,0.0,0.0,-4.5677,-4.5713,-4.5822,-4.6007,-4.6046,-4.6065,-4.6108,-4.6108,-4.6091,-4.6095,-4.6095,-4.6104,-4.6098,-4.6098,-4.6093,-4.6094,-4.6091,-4.6117,-4.6147,0.0,0.0,0.0,0.0,-4.6196,-4.6196,-4.6196,-4.6196,0.0,0.0,0.0,0.0,0.0,0.0,0.0,0.0,0.0,0.0,0.0,0.0,0.0,-4.6195,-4.6209,-4.6203,-4.6203,-4.6203,-4.6209,0.0,-4.6201,-4.6195,-4.6206,0.0,0.0,0.0,0.0,-4.6203,-4.621,-4.6191,-4.6228,-4.6289,-4.6307,-4.6303,-4.6303,-4.63,-4.63,-4.63,-4.63,-4.6293,-4.6307,-4.6269,-4.6223,0.0,0.0,0.0,0.0,0.0,0.0,0.0,0.0,0.0,0.0,0.0,0.0,0.0,0.0,0.0,0.0,0.0,0.0,0.0,0.0,0.0,0.0,0.0,0.0,0.0,0.0,0.0,0.0,-4.3617,-4.3662,-4.3751,-4.3873,-4.4148,0.0,0.0,0.0,0.0,0.0,0.0,-4.5545,-4.5438,-4.5457,-4.5545,-4.5607,-4.5692,-4.5847,-4.5885,-4.602,-4.6233,-4.6233,-4.6329,-4.6561,-4.6592,-4.6609,-4.6618,-4.6658,-4.6687,-4.6668,-4.6255,-4.6092,-4.6105,-4.6151,-4.6183,-4.6196,-4.6196,-4.6196,-4.6196,-4.6196,-4.6196,-4.6196,-4.6154,0.0,-4.6046,-4.5947,0.0,0.0,0.0,0.0,-4.6195,-4.6195,-4.6209,-4.6196,-4.6196,-4.6209,-4.6196,-4.6196,-4.6196,-4.6203,0.0,-4.6209,-4.6203,-4.6195,0.0,0.0,0.0,0.0,-4.619,-4.6206,-4.6192,-4.6214,-4.6268,-4.6269,-4.6269,-4.6261,-4.6278,-4.6278,-4.6278,-4.6278,-4.6264,-4.6269,-4.6228,-4.6195,-4.6206,0.0,0.0,0.0,0.0,0.0,0.0,0.0,0.0,0.0,0.0,0.0,0.0,0.0,0.0,0.0,0.0,0.0,0.0,0.0,0.0,0.0,0.0,0.0,0.0,0.0,0.0,0.0,0.0,0.0,-4.5227,-4.5416,0.0,0.0,0.0,0.0,-4.5419,-4.54,-4.5419,-4.5419,-4.54,-4.54,-4.5419,-4.54,-4.5419,-4.5419,-4.5419,-4.5822,-4.657,-4.657,-4.7011,-4.7817,-4.7951,-4.8002,-4.802,-4.8207,-4.8285,-4.8178,-4.6699,-4.6098,-4.6105,-4.6105,-4.6131,-4.6196,-4.6196,-4.6196,-4.6196,-4.6196,-4.6196,-4.6189,-4.6037,-4.5871,-4.5731,-4.5717,-4.5847,0.0,0.0,-4.6093,-4.6203,-4.6203,-4.6203,-4.6196,-4.6196,-4.6196,-4.6196,-4.6196,-4.6196,-4.6196,0.0,-4.6203,-4.6203,-4.6203,0.0,-4.6196,-4.6196,-4.6196,-4.6196,-4.6203,-4.6203,-4.6203,-4.6206,-4.621,-4.6206,-4.6205,-4.6205,-4.6205,-4.6205,-4.6205,-4.6205,-4.6205,-4.6204,-4.6195,-4.6206,-4.6206,0.0,0.0,0.0,0.0,0.0,0.0,0.0,0.0,0.0,0.0,0.0,0.0,0.0,0.0,0.0,0.0,0.0,0.0,0.0,0.0,0.0,0.0,0.0,0.0,0.0,0.0,0.0,0.0,-4.5321,-4.5419,0.0,-4.5282,-4.5342,-4.5611,-4.6129,-4.6086,-4.629,-4.6844,-4.6752,-4.6752,-4.6882,-4.6882,-4.6906,-4.7011,-4.7011,-4.7144,-4.7431,-4.7431,-4.7604,-4.7891,-4.7952,-4.7972,-4.7991,-4.8048,-4.8086,-4.8047,-4.7488,-4.7397,-4.765,-4.7737,-4.7793,-4.7804,-4.7709,-4.768,-4.767,-4.7583,-4.7559,-4.7546,-4.7508,-4.7434,-4.7371,-4.7371,-4.742,-4.7481,-4.7481,-4.7583,-4.768,-4.768,-4.7793,-4.7871,-4.7871,-4.7871,-4.7871,-4.7871,-4.7871,-4.7871,-4.7871,-4.6975,-4.6196,-4.6196,-4.6196,-4.6391,-4.6956,-4.7033,-4.7248,-4.7793,-4.7871,-4.7873,-4.7879,-4.7864,-4.7877,-4.786,-4.7862,-4.786,-4.781,-4.7857,-4.7852,-4.7821,-4.7854,-4.7864,-4.786,-4.7314,-4.7035,0.0,0.0,0.0,0.0,0.0,0.0,0.0,0.0,0.0,0.0,0.0,0.0,0.0,0.0,0.0,0.0,0.0,0.0,0.0,0.0,0.0,0.0,0.0,0.0,0.0,0.0,-4.5841,-4.5598,-4.5929,-4.6061,-4.5779,-4.5845,-4.6054,-4.6453,-4.6405,-4.6611,-4.7205,-4.7227,-4.7299,-4.7429,-4.7547,-4.76,-4.7567,-4.7678,-4.7808,-4.7967,-4.8117,-4.8312,-4.8579,-4.8646,-4.8668,-4.869,-4.8713,-4.8735,-4.8735,-4.8735,-4.8913,-4.91,-4.8631,-4.8483,-4.8495,-4.8419,-4.8406,-4.8393,-4.8314,-4.8272,-4.8205,-4.8205,-4.8172,-4.8139,-4.8188,-4.8253,-4.8299,-4.8358,-4.8475,-4.8594,-4.8594,-4.8699,-4.8806,-4.8806,-4.8806,-4.8806,-4.8806,-4.8806,-4.8806,-4.8806,-4.7871,-4.7072,-4.7072,-4.7072,-4.7267,-4.7852,-4.793,-4.8144,-4.8729,-4.8806,-4.8801,-4.8794,-4.88,-4.8811,-4.8794,-4.8794,-4.8767,-4.8697,-4.8733,-4.8736,-4.8666,-4.8723,-4.8762,-4.8764,-4.8199,-4.7751,-4.7459,0.0,0.0,0.0,0.0,0.0,0.0,0.0,0.0,0.0,0.0,0.0,0.0,0.0,0.0,0.0,0.0,0.0,0.0,0.0,0.0,0.0,0.0,0.0,-4.5602,-4.6103,-4.6495,-4.6171,-4.7034,-4.7384,-4.6681,-4.678,-4.6719,-4.6349,-4.6349,-4.6368,-4.6387,-4.6744,-4.6963,-4.6963,-4.7276,-4.7294,-4.6963,-4.7294,-4.7691,-4.8157,-4.855,-4.914,-4.9925,-5.0127,-5.0226,-5.0226,-5.0412,-5.0459,-5.0459,-5.0459,-5.044,-5.027,-4.8702,-4.8123,-4.8174,-4.8263,-4.8263,-4.8279,-4.833,-4.8212,-4.8068,-4.8068,-4.7988,-4.7898,-4.8029,-4.8212,-4.8387,-4.8521,-4.8701,-4.8857,-4.8857,-4.8857,-4.8857,-4.8857,-4.8877,-4.8865,-4.8865,-4.8884,-4.8884,-4.8884,-4.8884,-4.8865,-4.8806,-4.8806,-4.8806,-4.8826,-4.8845,0.0,-4.8865,-4.8884,-4.8884,-4.8884,-4.8884,-4.8884,-4.8884,-4.8865,-4.8842,-4.8769,-4.8769,-4.8749,-4.8685,-4.8739,-4.875,-4.873,-4.873,-4.8302,-4.7427,0.0,0.0,0.0,0.0,0.0,0.0,0.0,0.0,0.0,0.0,0.0,0.0,0.0,0.0,0.0,0.0,0.0,0.0,0.0,0.0,0.0,0.0,-4.7258,-4.701,-4.6953,-4.689,-4.6704,-4.6682,-4.6601,-4.6411,-4.6411,-4.6671,-4.7218,-4.7222,-4.7482,-4.8076,-4.8215,-4.8282,-4.8282,-4.838,-4.838,-4.8282,-4.8671,-4.8923,-4.9058,-4.94,-4.969,-4.9917,-5.0597,-5.0928,-5.0947,-5.157,-5.1844,-5.1844,-5.1844,-5.1502,-5.0907,-5.0119,-4.9836,-4.9836,-4.9817,-4.9735,-4.9647,-4.9669,-4.9688,-4.9666,-4.9666,-4.9641,-4.9614,-4.9663,-4.971,-4.9754,-4.9796,-4.995,-5.0104,-5.0104,-5.0177,-5.0261,-5.0261,-5.0355,-5.047,-5.047,-5.0529,-5.0618,-5.0618,-5.0618,-5.0229,-4.9001,-4.8806,-4.9001,-4.9586,-4.9664,0.0,-5.0521,-5.0618,-5.0618,-5.0618,-5.0618,-5.0583,-5.0529,-5.0548,-5.049,-5.0358,-5.0406,-5.0414,-5.0332,-5.0394,-5.0137,-4.9515,-4.9496,-4.9128,0.0,0.0,0.0,0.0,0.0,0.0,0.0,0.0,0.0,0.0,0.0,0.0,0.0,0.0,0.0,0.0,0.0,0.0,0.0,0.0,0.0,0.0,-4.7744,-4.802,-4.8248,-4.7852,-4.7495,-4.7406,-4.7378,-4.7284,-4.7163,-4.7128,-4.7407,-4.8088,-4.8143,-4.8511,-4.9301,-4.9472,-4.9566,-4.9566,-4.973,-4.9712,-4.9566,-4.9942,-5.0064,-4.9908,-5.0277,-5.0515,-5.0703,-5.1212,-5.1536,0.0,-5.221,-5.24,-5.24,-5.24,-5.2134,0.0,0.0,0.0,0.0,0.0,-5.0193,-5.0163,-5.0188,-5.0231,-5.0278,-5.0302,-5.0302,-5.0302,-5.0302,-5.0352,-5.044,-5.044,-5.0567,-5.0678,-5.0678,-5.0745,-5.079,-5.079,-5.0884,-5.0959,-5.0959,-5.1109,-5.122,-5.122,-5.1256,0.0,-5.0014,-4.9859,-5.0007,-5.0438,-5.0497,-5.0683,-5.1142,-5.122,-5.122,-5.122,-5.122,-5.1211,-5.1161,-5.115,0.0,0.0,0.0,-5.1043,-5.1004,-5.1043,0.0,0.0,0.0,-4.9936,-4.9154,0.0,0.0,0.0,-4.689,-4.6741,0.0,0.0,0.0,0.0,0.0,0.0,0.0,0.0,0.0,0.0,0.0,0.0,0.0,0.0,0.0,0.0,-4.8651,-4.9001,-4.9211,-4.8677,-4.8203,-4.8109,-4.842,-4.8569,-4.8396,-4.8357,-4.8565,-4.8985,-4.9057,-4.9347,-5.0053,0.0,0.0,0.0,0.0,-5.0912,-5.0556,-5.0951,-5.0932,-5.0578,-5.1008,-5.1393,-5.1753,-5.1846,-5.2065,-5.2397,-5.254,-5.2607,-5.2626,-5.2655,-5.2627,-5.2475,-5.1661,-5.0865,-5.021,-5.0263,-5.0316,-5.0393,-5.0424,0.0,0.0,-5.0565,-5.0588,-5.0588,-5.0588,-5.0708,-5.0836,-5.0836,-5.0931,-5.1032,-5.1032,-5.1032,-5.1032,-5.1032,-5.1032,-5.1029,-5.0932,-5.1067,-5.1178,-5.1081,-5.1171,-5.1228,-5.1228,-5.1265,-5.1284,-5.122,-5.1211,-5.119,-5.1105,-5.1105,-5.1105,-5.1105,0.0,0.0,-5.1093,-5.1093,-5.1069,-5.099,-5.099,-5.099,-5.099,-5.099,-5.099,-5.099,-5.099,-5.0641,-4.9943,-4.991,-4.9601,-4.8944,-4.8054,-4.763,0.0,0.0,0.0,0.0,0.0,0.0,0.0,0.0,0.0,0.0,0.0,0.0,0.0,0.0,0.0,-4.8646,-4.8859,-4.9157,-4.9472,-4.927,-4.8823,-4.8199,-4.7787,-4.788,-4.8732,-4.8702,-4.8985,-4.98,-4.9854,-4.9927,-5.0071,-5.0159,0.0,-5.0185,-5.0271,-5.0271,-5.0185,-5.0533,-5.0659,-5.0578,0.0,0.0,-5.134,-5.1972,-5.2343,-5.2451,-5.3493,-5.3945,-5.3945,-5.4269,-5.4029,-5.3366,-5.2513,-5.2059,-5.1926,-5.1926,-5.1963,-5.2045,-5.2045,-5.2125,-5.2228,-5.2209,-5.2259,-5.2308,-5.2308,-5.2356,0.0,-5.236,-5.2407,-5.2411,-5.2411,-5.2411,-5.2411,-5.2411,-5.2543,-5.2454,-5.1761,-5.1752,-5.1707,-5.099,-5.0884,-5.0898,-5.0898,-5.1122,-5.1284,-5.122,-5.1211,-5.119,-5.1105,-5.1105,-5.1105,-5.1105,-5.1105,-5.1081,-5.103,-5.1017,-5.099,-5.0921,-5.0921,-5.0921,-5.0921,-5.0921,-5.0921,-5.0921,-5.0921,-5.0874,-5.0771,-5.065,-5.0632,-5.0592,-4.9139,-4.8419,0.0,0.0,0.0,0.0,0.0,0.0,0.0,0.0,0.0,0.0,0.0,-4.8539,0.0,0.0,-4.9324,-4.9085,-4.9285,-4.9536,-4.9801,-4.9537,-4.9275,-4.9236,-4.884,-4.882,-4.9324,-4.9404,-4.9774,-5.0633,-5.0687,-5.1049,-5.1846,-5.19,-5.2082,-5.248,-5.21,-5.19,-5.19,-5.1671,-5.1566,-5.1566,-5.176,-5.1967,-5.2149,-5.2594,-5.2878,-5.3088,-5.3738,-5.3997,-5.4033,-5.4416,-5.4484,-5.4257,-5.3821,-5.3139,-5.24,-5.24,-5.2428,-5.2456,-5.2512,-5.2547,-5.2601,-5.2627,-5.2705,-5.2755,-5.2755,-5.2761,-5.2805,-5.2805,-5.2805,-5.2805,-5.2805,-5.2805,-5.2805,-5.2805,-5.2881,-5.2839,-5.2398,-5.2472,-5.2472,-5.1991,-5.1619,-5.1396,-5.1363,-5.1136,-5.0946,-5.0898,-5.0865,-5.0855,-5.0898,-5.0898,-5.0932,-5.099,-5.1004,-5.099,-5.0947,-5.0947,-5.0937,-5.0906,-5.0906,-5.0906,-5.0906,-5.0906,-5.0906,-5.0906,-5.0906,-5.0921,-5.0947,-5.0822,-5.0819,-5.0937,-5.0018,-4.9426,0.0,0.0,0.0,0.0,0.0,0.0,0.0,0.0,-4.8478,-4.9234,-4.9258,-4.9026,-4.8698,-4.9285,-4.9759,-4.9523,-4.9694,-4.992,-5.0172,-4.9844,-4.9823,-5.0478,-5.0101,-4.9874,-5.0082,-5.0173,-5.0615,-5.1463,-5.1535,-5.2167,-5.3513,-5.3536,-5.3891,-5.4706,-5.4092,-5.3815,-5.3929,-5.3295,-5.2969,-5.2951,-5.2806,-5.2926,-5.3207,-5.3042,-5.3162,-5.3468,-5.3547,-5.3606,-5.372,-5.4033,-5.4364,-5.468,-5.468,-5.3848,-5.2677,-5.2815,-5.2892,-5.2892,-5.293,-5.2986,-5.2986,-5.3041,-5.3122,-5.3175,-5.3175,-5.3207,-5.3257,-5.3257,-5.3301,-5.3301,-5.3301,-5.3301,-5.3301,-5.3301,-5.3301,-5.3263,-5.3091,-5.3177,-5.3212,-5.2996,-5.249,-5.2107,-5.2049,-5.1433,-5.0875,-5.0625,-5.0529,-5.0529,-5.0625,-5.0644,-5.0682,-5.0789,-5.0805,-5.0805,-5.0805,-5.0805,-5.0822,-5.0858,-5.0858,-5.0858,-5.0858,-5.0858,-5.0839,-5.0805,-5.0805,-5.0805,-5.0805,-5.0663,-5.0625,-5.0715,-5.0529,-5.022,-4.872,-4.9125,-4.924,-4.9774,-4.9752,-4.9565,0.0,0.0,-4.8915,-4.9334,-4.9687,-4.986,-4.9545,-5.0112,-5.0446,-4.9854,-4.9874,-5.011,-5.0408,-5.0533,-5.0784,-5.1482,-5.0271,-4.9746,-5.07,-5.0818,-5.1269,-5.2302,-5.246,-5.2713,-5.306,-5.3095,-5.3368,-5.3991,-5.3919,-5.4176,-5.478,-5.4689,-5.4635,-5.4617,-5.3911,-5.3614,-5.3624,-5.2898,-5.2618,-5.2645,-5.3011,-5.3348,-5.3683,-5.3758,-5.3796,-5.3833,-5.3833,-5.3721,-5.3645,-5.4365,-5.4617,-5.4617,-5.4617,-5.4676,-5.4715,-5.4715,-5.4771,-5.4836,-5.4836,-5.489,-5.4943,-5.4943,-5.5007,-5.5116,-5.5116,-5.5116,-5.5116,-5.5116,-5.5116,-5.4906,-5.4123,-5.3926,-5.3671,-5.2908,-5.2609,-5.2527,-5.2527,-5.2379,-5.1871,-5.0701,-5.0491,-5.047,-5.0446,-5.0425,-5.0446,-5.0467,-5.0467,-5.0467,-5.0467,-5.0467,-5.0528,-5.072,-5.072,-5.072,-5.072,-5.072,-5.0644,-5.0467,-5.0467,-5.0467,-5.0467,-5.0333,-5.0333,-5.0446,-5.0291,-5.0275,-4.8621,-4.9239,0.0,0.0,-4.9655,-4.9529,-4.9327,-4.943,-4.9596,-4.9524,-5.0028,-5.0335,-4.9792,-5.0362,-5.0776,0.0,-5.0677,-5.1042,-5.1204,-5.1258,-5.1544,-5.2297,-5.1507,-5.1274,-5.2197,-5.1915,-5.2072,-5.3069,-5.2872,-5.293,-5.3492,-5.362,-5.4002,-5.4744,-5.432,-5.4366,-5.5002,-5.4535,-5.4489,-5.4907,-5.4562,-5.4399,-5.4399,-5.4055,-5.3639,-5.3204,-5.3399,-5.3426,-5.3348,-5.3348,-5.3508,-5.3683,-5.3683,-5.3683,-5.372,-5.4069,-5.4209,-5.4209,-5.4209,-5.4209,-5.4277,-5.4514,-5.4642,-5.4746,-5.4981,-5.5094,-5.5149,-5.5149,-5.5195,-5.5214,-5.5214,-5.5214,-5.5214,-5.5214,-5.5214,-5.5119,-5.4756,-5.4653,-5.4512,-5.4123,-5.3631,-5.3299,-5.3243,-5.2798,-5.2246,-5.1694,-5.1204,-5.0751,-5.0344,-5.0287,-5.0313,-5.0383,-5.0404,-5.0404,-5.0404,-5.0404,-5.0425,-5.0527,-5.0527,-5.0527,-5.0527,-5.0527,-5.0486,-5.0404,-5.0404,-5.0404,-5.0404,-5.0264,-5.0236,-5.0287,-5.0114,-5.0063,-4.8821,0.0,0.0,-4.9457,-4.9415,-4.9377,-4.9257,-4.9618,-4.9936,-4.993,-5.0493,-5.084,-5.0236,-5.0813,-5.1214,-5.0883,-5.1315,-5.169,-5.169,-5.1886,-5.2175,-5.2571,-5.2465,-5.2605,-5.3334,-5.2785,-5.2654,-5.3317,-5.3044,-5.3115,-5.3775,-5.3966,-5.433,-5.5129,-5.4528,-5.4524,-5.5165,-5.4596,-5.4616,-5.5274,-5.504,-5.5049,-5.5196,-5.4997,-5.4581,-5.4037,-5.4037,-5.3862,-5.3621,-5.3621,-5.3775,-5.4031,-5.4031,-5.4031,-5.4031,-5.4031,-5.3896,-5.3683,-5.3683,-5.3683,-5.3758,-5.4033,-5.4174,-5.4259,-5.456,-5.4685,-5.4758,-5.4884,-5.4914,-5.4943,-5.5066,-5.5094,-5.5094,-5.5094,-5.5094,-5.5094,-5.5094,-5.5094,-5.5057,-5.5,-5.4496,-5.4088,-5.4029,-5.3518,-5.3025,-5.2798,-5.2267,-5.164,-5.0907,-5.0609,-5.043,-5.0287,-5.0249,-5.0249,-5.0249,-5.0249,-5.0272,-5.0339,-5.0339,-5.0339,-5.0339,-5.0339,-5.0317,-5.0272,-5.0249,-5.0249,-5.0249,-5.0169,-5.0247,-5.0475,-5.0339,-5.0399,0.0,0.0,-4.9749,-4.9457,-4.9415,-4.9527,-4.9945,-4.9825,-4.9818,-5.0591,-5.1156,-5.138,-5.104,-5.1625,-5.2072,-5.1705,-5.1672,-5.169,-5.169,-5.235,-5.2625,-5.1981,-5.252,-5.3142,0.0,-5.3125,-5.2785,-5.2746,-5.3032,-5.3266,-5.3483,-5.3534,-5.3815,-5.4391,-5.4437,-5.473,-5.5349,-5.5391,-5.5663,-5.624,-5.5455,-5.5414,-5.5939,-5.5233,-5.4888,-5.487,-5.487,-5.4852,-5.4834,-5.4834,-5.4882,-5.4864,-5.4864,-5.4864,-5.4864,-5.4864,-5.4386,-5.3683,-5.3683,-5.3683,-5.3683,-5.372,-5.372,-5.372,-5.372,-5.3796,-5.3924,-5.4326,-5.4458,-5.4616,-5.499,-5.5094,-5.5094,-5.5094,-5.5094,-5.5094,-5.5094,-5.5057,-5.5,-5.5,-5.4941,-5.4863,-5.4863,-5.4844,-5.456,-5.3783,-5.365,-5.3309,-5.2438,-5.1642,-5.0846,-5.0001,-4.9925,-4.9925,-4.9925,-4.9925,-4.9986,-5.0188,-5.0212,-5.0212,-5.0212,-5.0212,-5.0114,-4.9906,-4.9925,-4.9925,-4.9925,-4.9906,-5.0361,-5.1168,-5.1168,-5.1613,0.0,0.0,-4.9188,-4.9094,-4.9315,-4.9547,-4.9732,-5.0346,-5.086,-5.09,-5.1457,-5.2015,-5.2207,-5.205,-5.2001,-5.2437,-5.2047,-5.1919,-5.2555,-5.2395,-5.2551,-5.3426,-5.3123,0.0,0.0,0.0,0.0,-5.3562,-5.3324,-5.3229,-5.3332,-5.3433,-5.3618,-5.3783,-5.3783,-5.4124,-5.4703,-5.4765,-5.5231,-5.6311,-5.6418,-5.662,-5.679,-5.6536,-5.6138,-5.5631,-5.5631,-5.5341,-5.4907,-5.4907,-5.4907,-5.4907,-5.4907,-5.4907,-5.4907,-5.4907,-5.4716,-5.4527,-5.4527,-5.4527,-5.4554,-5.4822,-5.4888,-5.493,-5.5198,-5.5317,-5.5338,-5.551,-5.5175,-5.4782,-5.4926,-5.4549,-5.4171,-5.4171,-5.4378,-5.4578,-5.4578,-5.4773,-5.4912,-5.4912,-5.4931,-5.4901,-5.4901,-5.4901,-5.4806,-5.4541,-5.3556,-5.2741,-5.2456,-5.2172,-5.1888,-5.1585,-5.1566,-5.1566,-5.1566,-5.1566,-5.1594,-5.1676,-5.1657,-5.1657,-5.1657,-5.1657,-5.1649,-5.1566,-5.1566,-5.1566,-5.1566,-5.1566,-5.1717,-5.2002,-5.2002,-5.2134,-4.8909,-4.8909,-4.8964,-4.9262,-4.9455,-4.9763,-5.0352,-5.0945,-5.1312,-5.1419,-5.1982,-5.2525,-5.283,-5.2457,-5.2368,-5.3171,-5.2446,-5.2093,-5.2962,-5.287,-5.2932,-5.3522,-5.3494,0.0,0.0,0.0,0.0,-5.373,-5.35,-5.3348,-5.3348,-5.3416,-5.3501,-5.3501,-5.3501,-5.3668,-5.4059,-5.4059,-5.472,-5.5961,-5.6348,-5.6688,-5.6863,-5.6863,-5.6593,-5.6088,-5.6328,-5.6156,-5.5721,-5.5721,-5.5721,-5.5721,-5.5721,-5.5721,-5.5721,-5.5721,-5.5721,-5.5649,-5.5088,-5.4907,-5.4937,-5.5212,-5.5304,-5.5332,-5.5606,-5.5693,-5.5675,-5.5845,-5.5498,-5.5173,-5.5275,-5.4741,-5.4128,-5.4128,-5.4093,-5.4104,-5.4262,-5.45,-5.4711,-5.4871,-5.4901,-5.4901,-5.4901,-5.4901,-5.4901,-5.4901,-5.3992,-5.3196,-5.2911,-5.2873,-5.276,-5.2438,-5.24,-5.24,-5.24,-5.24,-5.24,-5.24,-5.24,-5.24,-5.24,-5.24,-5.24,-5.24,-5.24,-5.24,-5.24,-5.24,-5.257,-5.2873,-5.2873,-5.2948,-4.8909,-4.8964,-4.9171,-4.9951,-4.9917,-5.0165,-5.1728,-5.1552,-5.1254,-5.1993,-5.253,-5.2886,0.0,0.0,-5.3189,-5.3904,-5.2908,-5.226,-5.2958,-5.3695,-5.3696,0.0,0.0,0.0,0.0,0.0,0.0,-5.3179,0.0,-5.3501,-5.3501,-5.3501,-5.3501,-5.3501,-5.3501,-5.3501,-5.3501,-5.3501,-5.4141,-5.5325,-5.5385,-5.5676,-5.6257,-5.6257,-5.6257,-5.6311,-5.6915,-5.7138,-5.7138,-5.7206,-5.7188,-5.7188,-5.7188,-5.7188,-5.7188,-5.7188,-5.7188,-5.6989,-5.554,-5.5033,-5.5033,-5.5033,-5.5033,-5.5033,-5.5033,-5.5033,-5.5094,-5.5487,-5.554,-5.5618,-5.6025,-5.5476,-5.4904,-5.4849,-5.4275,-5.3814,-5.4177,-5.4262,-5.4382,-5.4742,-5.4822,-5.4822,-5.4822,-5.4822,-5.4822,-5.4822,-5.4822,-5.4587,-5.3859,-5.3764,-5.3442,-5.2627,-5.2532,-5.2532,-5.2532,-5.2532,-5.2532,-5.2532,-5.2532,-5.2532,-5.2532,-5.2532,-5.2532,-5.2532,-5.2504,-5.2504,-5.2504,-5.2504,-5.292,-5.3686,-5.3716,-5.3912,-4.8909,-4.9602,-5.0376,-5.0579,-5.1091,-5.1674,-5.2091,-5.1856,-5.1571,-5.1786,-5.2416,-5.3064,0.0,0.0,0.0,-5.4325,-5.3975,0.0,-5.3742,-5.3575,0.0,-5.3567,0.0,-5.3162,-5.311,-5.311,0.0,0.0,-5.3332,-5.3348,-5.3501,-5.3501,-5.3501,-5.3501,-5.3501,-5.3501,-5.3501,-5.3946,-5.4345,-5.4641,-5.5147,-5.5502,-5.5618,-5.5618,-5.5618,-5.5676,-5.6257,-5.6528,-5.6582,-5.7018,-5.7188,-5.7188,-5.7188,-5.7188,-5.7188,-5.7188,-5.7188,-5.7134,-5.6754,-5.6609,-5.6609,-5.6609,-5.6609,-5.6609,-5.6609,-5.6609,-5.6659,-5.6739,-5.6334,-5.5927,-5.5986,-5.5486,-5.4757,-5.4155,-5.4074,-5.4022,-5.3518,-5.3663,-5.387,-5.3997,-5.3997,-5.3997,-5.3997,-5.3997,-5.3997,-5.3997,-5.3997,-5.4153,-5.4538,-5.4598,-5.4503,-5.4295,-5.4257,-5.4257,-5.4257,-5.4257,-5.4257,-5.4257,-5.4257,-5.4257,-5.4257,-5.4257,-5.4257,-5.4257,-5.3975,-5.3828,-5.3828,-5.3828,-5.3789,-5.3699,-5.3996,-5.404,-4.9103,-4.9617,-5.0244,-5.0918,-5.1391,-5.1759,-5.2101,-5.1969,-5.1797,-5.2136,-5.2832,0.0,0.0,0.0,0.0,0.0,0.0,0.0,-5.3975,-5.3708,-5.3545,0.0,-5.3382,0.0,-5.3179,-5.3179,-5.3264,0.0,-5.3416,-5.3348,-5.3501,-5.3501,-5.3653,-5.3974,-5.3974,-5.3974,-5.3974,-5.4003,-5.4106,-5.4391,-5.4488,-5.4676,-5.4948,-5.4948,-5.4948,-5.5009,0.0,-5.609,-5.6311,-5.6653,-5.6966,-5.7188,-5.7188,-5.7188,-5.7188,-5.7188,-5.7188,-5.7188,-5.7188,-5.7188,-5.7188,-5.7188,-5.7188,-5.7188,-5.7188,-5.7188,-5.7188,-5.7188,-5.6862,-5.6518,-5.6518,-5.5957,-5.5269,-5.4816,-5.4335,-5.3953,-5.3696,-5.3543,-5.3508,-5.3644,-5.3683,-5.3683,-5.3683,-5.3683,-5.3683,-5.3683,-5.3683,-5.387,-5.433,-5.4533,-5.4648,-5.4648,-5.4791,-5.4901,-5.4901,-5.4901,-5.4901,-5.4901,-5.4711,-5.4648,-5.4648,-5.4482,-5.4364,-5.4364,-5.4139,-5.4033,-5.4033,-5.4407,-5.4466,-5.424,-5.4839,-5.4894,-4.9338,-4.945,-4.9713,-5.1199,-5.1448,-5.1423,-5.2108,-5.2064,-5.2047,-5.2743,0.0,-5.4153,-5.4218,0.0,-5.5253,-5.4678,0.0,-5.3879,-5.3827,-5.3847,-5.3666,-5.3041,-5.3617,-5.3815,-5.3315,-5.3195,-5.3264,-5.3501,-5.3501,-5.3501,-5.3501,-5.3602,-5.3974,-5.4718,-5.4735,-5.4685,-5.4583,-5.3957,-5.3885,-5.4281,-5.3717,-5.3783,-5.4281,-5.4281,-5.4281,-5.4345,0.0,0.0,-5.6073,-5.6257,-5.6582,-5.7087,-5.7188,-5.7188,-5.7188,-5.7188,-5.7188,-5.7188,-5.7188,-5.7188,-5.7188,-5.7188,-5.7188,-5.7188,-5.7188,-5.7188,-5.7188,-5.7188,-5.7188,-5.7188,-5.7188,-5.6681,-5.612,-5.6029,-5.4979,-5.407,-5.4206,-5.3598,-5.312,-5.3468,-5.3528,-5.3528,-5.3528,-5.3621,-5.3695,-5.3695,-5.3788,-5.3862,-5.3862,-5.4055,-5.4228,-5.4228,-5.4533,-5.4742,-5.4742,-5.4855,-5.4912,-5.4912,-5.4679,-5.453,-5.453,-5.4205,-5.4017,-5.4017,-5.3978,-5.394,-5.394,-5.4663,-5.4976,-5.4914,-5.5658,-5.5802,-4.9025,-4.9937,-5.0877,-5.1852,-5.2305,-5.2595,-5.2738,-5.2723,0.0,0.0,0.0,-5.4811,-5.4323,-5.4966,0.0,-5.42,0.0,0.0,0.0,0.0,-5.3732,0.0,0.0,0.0,0.0,0.0,0.0,0.0,0.0,0.0,-5.3501,-5.4076,-5.4752,-5.5497,-5.553,-5.5226,-5.46,-5.4465,-5.4161,-5.3668,-5.3568,-5.3551,-5.3668,-5.3668,-5.3668,-5.3668,-5.4299,0.0,-5.4809,-5.5887,-5.6366,-5.6528,-5.7036,-5.7188,-5.7188,-5.7188,-5.7188,-5.7188,-5.7188,-5.7188,-5.7188,-5.7188,-5.7188,-5.7188,-5.7188,-5.7188,-5.7188,-5.7188,-5.7188,-5.7188,-5.7188,-5.7098,-5.6808,-5.6156,-5.5794,-5.5299,-5.4041,-5.318,-5.2599,-5.2672,-5.2717,-5.2717,-5.2717,-5.3281,-5.3718,-5.3718,-5.4254,-5.4672,-5.4672,-5.4156,-5.3796,-5.3796,-5.3888,-5.3925,-5.3925,-5.4503,-5.4895,-5.4895,-5.5471,-5.5804,-5.5804,-5.5726,-5.5686,-5.5686,-5.5378,-5.5184,-5.5184,-5.5331,-5.5247,-5.4891,-5.5375,-5.5377,-4.918,-4.9776,-5.0396,-5.1615,-5.2126,-5.2261,-5.2261,0.0,0.0,0.0,0.0,-5.4596,-5.4321,0.0,0.0,0.0,0.0,0.0,0.0,0.0,0.0,0.0,0.0,0.0,0.0,0.0,0.0,0.0,0.0,0.0,-5.4042,-5.5141,-5.5902,-5.6275,-5.5919,-5.5547,-5.5192,-5.4414,-5.4042,-5.4059,-5.3687,-5.3704,-5.4059,-5.3687,-5.3501,-5.3501,-5.3783,0.0,-5.4454,-5.5052,-5.5543,-5.5904,-5.6474,-5.6758,-5.6758,-5.7087,-5.7188,-5.7188,-5.7188,-5.7188,-5.7188,-5.7188,-5.7188,-5.7188,-5.7188,-5.7188,-5.7188,-5.7188,-5.7188,-5.7188,-5.7188,-5.7188,-5.7098,-5.6717,-5.6301,-5.5685,-5.4562,-5.4019,-5.3748,-5.3748,-5.3748,-5.3748,-5.3748,-5.4074,-5.4327,-5.4327,-5.4653,-5.4907,-5.4907,-5.4565,-5.4387,-5.4621,-5.4806,-5.4964,-5.4964,-5.5296,-5.5519,-5.5519,-5.5706,-5.5802,-5.5802,-5.5563,-5.5493,-5.5493,-5.5304,-5.5184,-5.5184,-5.5549,-5.5673,-5.5486,-5.6109,-5.6291,-4.9325,-4.9614,-4.9906,-5.1333,-5.169,-5.169,-5.169,-5.244,0.0,0.0,-5.4234,-5.443,-5.4413,0.0,0.0,0.0,0.0,0.0,0.0,0.0,0.0,0.0,0.0,0.0,0.0,0.0,0.0,0.0,0.0,0.0,-5.4803,-5.6089,-5.6867,-5.7036,-5.6478,-5.6038,-5.5716,-5.4718,-5.4346,-5.4583,-5.4177,-5.4279,-5.482,-5.4245,-5.3974,-5.3974,-5.3974,0.0,0.0,-5.4569,-5.4842,-5.5266,-5.5848,-5.609,-5.6128,-5.6617,-5.6793,-5.6793,-5.6793,-5.6915,-5.7036,-5.7036,-5.7087,-5.7188,-5.7188,-5.7188,-5.7188,-5.7188,-5.7188,-5.7188,-5.7188,-5.7188,-5.7188,-5.7188,-5.6573,-5.583,-5.5269,-5.5015,-5.4907,-5.4907,-5.4907,-5.4907,-5.4907,-5.5033,-5.5142,-5.5142,-5.5287,-5.5395,-5.5395,-5.5395,-5.5504,-5.5825,-5.5834,-5.5826,-5.5826,-5.5992,-5.6085,-5.6085,-5.5923,-5.5871,-5.5871,-5.5552,-5.5395,-5.5395,-5.5395,-5.5395,-5.5395,-5.5957,-5.6247,-5.6265,-5.6899,-5.7188,-4.9227,-4.9852,-5.0602,-5.1476,-5.169,-5.169,-5.169,0.0,0.0,-5.401,-5.4677,-5.5119,-5.4499,-5.3878,0.0,0.0,0.0,0.0,0.0,0.0,0.0,0.0,0.0,0.0,0.0,0.0,0.0,0.0,0.0,0.0,0.0,-5.6376,-5.7103,-5.7763,-5.7729,-5.7053,-5.5733,-5.6241,-5.5852,-5.46,-5.5209,-5.5547,-5.5615,-5.5547,-5.5513,-5.5513,-5.5513,0.0,0.0,-5.5201,-5.5029,-5.4579,-5.5189,-5.5502,-5.5502,-5.5449,-5.5507,-5.556,-5.556,-5.5904,-5.6366,-5.6366,-5.6758,-5.7188,-5.7188,-5.7188,-5.7188,-5.7188,-5.7188,-5.7188,-5.7188,-5.7188,-5.7188,-5.7188,-5.6573,-5.5975,-5.5903,-5.5377,-5.4907,-5.4907,-5.4907,-5.4907,-5.4907,-5.545,-5.5884,-5.5884,-5.6518,-5.6989,-5.6989,-5.6989,-5.6971,-5.7021,-5.5819,-5.5032,-5.5032,-5.5632,-5.6013,-5.6013,-5.6654,-5.7021,-5.7021,-5.7039,-5.6989,-5.6989,-5.6989,-5.6989,-5.6989,-5.7062,-5.708,-5.708,-5.717,-5.7188,-4.9151,-4.9906,-5.0691,-5.1494,-5.169,-5.1696,-5.1829,0.0,0.0,-5.3607,-5.4199,-5.4579,-5.396,-5.3264,-5.2764,0.0,0.0,0.0,0.0,0.0,0.0,0.0,0.0,0.0,0.0,0.0,0.0,0.0,0.0,0.0,0.0,-5.7053,-5.7594,-5.7881,-5.7459,-5.6968,-5.6376,-5.6224,-5.6072,-5.5919,-5.5784,-5.5953,-5.6359,-5.5919,-5.5716,-5.5716,-5.5716,0.0,0.0,-5.5502,-5.5178,-5.4546,-5.5208,-5.5181,-5.4826,-5.5231,-5.5367,-5.5385,-5.5385,-5.556,-5.5733,-5.5733,-5.5904,-5.6239,-5.6966,-5.7188,-5.7188,-5.7188,-5.7188,-5.7188,-5.7188,-5.7188,-5.7188,-5.7188,-5.6953,-5.6717,-5.6717,-5.6482,-5.6283,-5.6283,-5.6283,-5.6283,-5.6283,-5.6518,-5.6717,-5.6717,-5.6989,-5.7188,-5.7188,-5.7188,-5.7188,-5.7188,-5.6645,-5.6283,-5.6283,-5.6554,-5.6717,-5.6717,-5.7025,-5.7188,-5.7188,-5.7188,-5.7188,-5.7188,-5.7188,-5.7188,-5.7188,-5.7188,-5.7188,-5.7188,-5.7188,-5.7188,-4.9174,-5.0066,-5.0994,-5.1547,-5.169,-5.1734,0.0,0.0,0.0,-5.3264,-5.3668,-5.396,-5.3516,-5.2817,-5.2373,0.0,0.0,0.0,0.0,0.0,0.0,0.0,0.0,0.0,0.0,0.0,0.0,0.0,0.0,0.0,0.0,-5.7611,-5.7881,-5.7881,-5.7391,-5.7019,-5.6799,-5.6511,-5.6511,-5.6799,-5.6494,-5.663,-5.7103,-5.6596,-5.6359,-5.6359,0.0,0.0,0.0,-5.6038,-5.5598,-5.499,-5.5398,-5.5118,-5.4497,-5.5005,-5.5052,-5.4861,-5.4861,-5.4966,-5.5069,-5.5069,-5.5266,-5.556,-5.6402,-5.6793,-5.6966,-5.7138,-5.7188,-5.7188,-5.7188,-5.7188,-5.7188,-5.7188,-5.7188,-5.7188,-5.7188,-5.7188,-5.7188,-5.7188,-5.7188,-5.7188,-5.7188,-5.7188,-5.7188,-5.7188,-5.7188,-5.7188,-5.7188,-5.7188,-5.7188,-5.7188,-5.7188,-5.7188,-5.7188,-5.7188,-5.7188,-5.7188,-5.7188,-5.7188,-5.7188,-5.7188,-5.7188,-5.7188,-5.7188,-5.7188,-5.7188,-5.7188,-5.7188,-5.7188,-5.7188,-5.7188,-4.9317,-5.0477,-5.169,-5.169,-5.169,-5.1734,0.0,0.0,0.0,-5.3142,-5.3301,-5.3382,-5.3382,-5.2817,-5.2373,-5.2373,0.0,0.0,0.0,0.0,0.0,0.0,0.0,0.0,0.0,0.0,0.0,0.0,0.0,0.0,0.0,-5.7881,-5.7881,-5.7881,-5.7881,-5.7526,-5.6816,-5.7509,-5.7509,-5.6816,-5.7526,-5.7865,-5.7881,-5.7865,-5.7865,0.0,0.0,0.0,0.0,-5.6799,-5.6359,-5.57,-5.5716,-5.5243,-5.4583,-5.4583,-5.4126,-5.3501,-5.3501,-5.3898,-5.4391,-5.4391,-5.4826,-5.5385,-5.5385,-5.5848,-5.642,-5.7036,-5.7188,-5.7188,-5.7188,-5.7188,-5.7188,-5.7188,-5.7188,-5.7188,-5.7188,-5.7188,-5.7188,-5.7188,-5.7188,-5.7188,-5.7188,-5.7188,-5.7188,-5.7188,-5.7188,-5.7188,-5.7188,-5.7188,-5.7188,-5.7188,-5.7188,-5.7188,-5.7188,-5.7188,-5.7188,-5.7188,-5.7188,-5.7188,-5.7188,-5.7188,-5.7188,-5.7188,-5.7188,-5.7188,-5.7188,-5.7188,-5.7188,-5.7188,-5.7188,-5.7188,-4.9317,-5.0477,-5.169,-5.169,-5.1418,-5.1245,-5.1813,0.0,0.0,-5.2657,-5.3028,-5.3264,-5.2834,-5.257,-5.2373,-5.2373,-5.2373,0.0,0.0,0.0,0.0,0.0,0.0,0.0,0.0,0.0,0.0,0.0,0.0,0.0,0.0,-5.7881,-5.7881,-5.7881,-5.7881,-5.778,-5.7543,-5.7763,-5.7763,-5.7543,-5.778,-5.7881,-5.7881,-5.7881,0.0,0.0,0.0,0.0,0.0,-5.7543,-5.712,-5.6461,-5.6461,-5.6004,-5.5294,-5.4786,-5.4448,-5.4177,-5.367,-5.3618,-5.3783,-5.3783,-5.3898,-5.4205,-5.4596,-5.5189,-5.5733,-5.5904,-5.5961,-5.5961,-5.5961,-5.5961,-5.5961,-5.5961,-5.5961,-5.5961,-5.5961,-5.5961,-5.5961,-5.5961,-5.6294,-5.6582,-5.6582,-5.6933,-5.7188,-5.7188,-5.7188,-5.7188,-5.7188,-5.7188,-5.7188,-5.7188,-5.7188,-5.7188,-5.7188,-5.7188,-5.7188,-5.7188,-5.7188,-5.7188,-5.7188,-5.7188,-5.7188,-5.7188,-5.7188,-5.7188,-5.7188,-5.7188,-5.7188,-5.7188,-5.7188,-5.6984,0.0,-5.0709,-5.164,-5.1418,-5.1088,0.0,0.0,0.0,0.0,-5.2341,-5.2764,-5.2886,-5.2516,-5.2373,-5.2373,-5.2373,-5.2373,0.0,0.0,0.0,0.0,0.0,0.0,0.0,0.0,0.0,0.0,0.0,0.0,0.0,0.0,0.0,-5.7881,-5.7881,-5.7881,-5.7881,-5.7881,-5.7881,-5.7881,-5.7881,-5.7881,-5.7881,-5.7881,-5.7881,0.0,0.0,0.0,0.0,0.0,-5.7881,-5.7628,-5.7222,-5.7222,-5.6765,-5.6072,-5.5598,-5.5074,-5.4515,-5.4059,-5.3737,-5.3501,-5.3501,-5.3501,-5.3551,-5.3946,-5.4658,-5.5385,-5.5385,-5.5385,-5.5385,-5.5385,-5.5385,-5.5385,-5.5385,-5.5385,-5.5385,-5.5385,-5.5385,-5.5385,-5.5385,-5.5676,-5.5961,-5.5961,-5.6294,-5.651,-5.651,-5.651,-5.651,-5.651,-5.651,-5.651,-5.651,-5.651,-5.651,-5.651,-5.6915,-5.7188,-5.7188,-5.7188,-5.7188,-5.7188,-5.7188,-5.7188,-5.7188,-5.7188,-5.7087,-5.6863,-5.6635,-5.6635,-5.6863,-5.6635,-5.6294,0.0,0.0,0.0,0.0,0.0,0.0,0.0,0.0,0.0,0.0,0.0,-5.2373,-5.2373,-5.2373,-5.2373,-5.2373,0.0,0.0,0.0,0.0,0.0,0.0,0.0,0.0,0.0,0.0,0.0,0.0,0.0,0.0,0.0,0.0,-5.7881,-5.7881,-5.7881,-5.7881,-5.7881,-5.7881,-5.7881,-5.7881,-5.7881,-5.7881,-5.7881,-5.7881,0.0,0.0,0.0,0.0,0.0,-5.7881,-5.7881,-5.7881,-5.7881,-5.7476,-5.6867,-5.6816,-5.5902,-5.4668,-5.4617,-5.411,-5.3501,-5.3501,-5.3501,-5.3501,-5.3501,-5.4333,-5.5266,-5.5266,-5.5266,-5.5266,-5.5266,-5.5266,-5.5266,-5.5266,-5.5266,-5.5266,-5.5266,-5.5266,-5.5266,-5.5266,-5.5266,-5.5325,-5.5325,-5.5385,-5.5385,-5.5385,-5.5385,-5.5385,-5.5385,-5.5385,-5.5385,-5.5385,-5.5385,-5.5385,-5.5385,-5.6474,-5.7138,-5.7138,-5.7188,-5.7188,-5.7138,-5.7138,-5.7138,-5.7087,-5.7087,-5.6811,-5.6257,-5.5676,-5.5676,-5.6201,-5.5676,-5.5385,-4.9868,0.0,-5.0982,-5.082,0.0,0.0,0.0,0.0,0.0,0.0,0.0,0.0,0.0,0.0,0.0,0.0,0.0,0.0,0.0,0.0,0.0,0.0,0.0,0.0,0.0,0.0,0.0,0.0,0.0,0.0,0.0,0.0,-5.7881,-5.7881,-5.7881,-5.7881,-5.7881,-5.7881,-5.7881,-5.7881,-5.7881,-5.7881,-5.7881,-5.7881,0.0,0.0,0.0,0.0,-5.7881,-5.7881,-5.7881,-5.7881,-5.7881,-5.778,-5.756,-5.7002,-5.6224,-5.5361,-5.4786,-5.411,-5.3501,-5.3501,-5.3501,-5.3501,-5.3501,-5.3685,-5.398,-5.398,-5.398,-5.398,-5.398,-5.398,-5.398,-5.398,-5.398,-5.398,-5.398,-5.398,-5.398,-5.398,-5.4316,-5.4641,-5.4641,-5.5087,-5.5385,-5.5385,-5.5385,-5.5385,-5.5385,-5.5385,-5.5385,-5.5385,-5.5385,-5.5385,-5.5385,-5.6073,-5.6528,-5.6528,-5.6915,-5.6966,-5.6528,-5.6528,-5.6294,-5.5848,-5.5848,-5.5733,-5.5618,-5.5408,-5.5408,-5.5618,-5.5461,-5.5147,-5.009,-5.0495,-5.0694,-5.0085,-4.9932,-5.0092,0.0,0.0,0.0,0.0,0.0,0.0,0.0,0.0,0.0,0.0,0.0,0.0,0.0,0.0,0.0,0.0,0.0,0.0,0.0,0.0,0.0,0.0,0.0,0.0,0.0,0.0,-5.7391,-5.7391,-5.7712,-5.7881,-5.7881,-5.7881,-5.7881,-5.7881,-5.7881,-5.7881,-5.7881,-5.7881,-5.7881,0.0,0.0,0.0,-5.7881,-5.7881,-5.7881,-5.7881,-5.7881,-5.7881,-5.7831,-5.7442,-5.685,-5.6105,-5.5361,-5.4397,-5.3501,-5.3501,-5.3501,-5.3501,-5.3501,-5.3501,-5.3501,-5.3501,-5.3501,-5.3501,-5.3501,-5.3501,-5.3501,-5.3501,-5.3501,-5.3501,-5.3501,-5.3501,-5.3501,-5.3501,-5.3783,-5.4011,-5.4011,-5.4252,-5.4506,-5.4506,-5.4506,-5.4506,-5.4506,-5.4506,-5.4506,-5.4506,-5.4506,-5.4506,-5.4506,-5.5069,-5.5543,-5.5848,-5.6184,-5.6239,-5.5904,-5.5887,-5.5716,-5.5402,-5.5087,-5.5069,-5.5385,-5.4782,-5.4658,-5.4948,-5.4676,-5.4316,-5.0303,-5.0622,-5.0384,-4.9188,-4.9543,-5.018,0.0,0.0,0.0,0.0,0.0,0.0,0.0,0.0,0.0,0.0,0.0,0.0,0.0,0.0,0.0,0.0,0.0,0.0,0.0,0.0,0.0,0.0,0.0,0.0,0.0,0.0,-5.663,-5.663,-5.734,-5.7729,-5.7729,-5.7831,-5.7881,-5.7881,-5.7881,-5.7881,-5.7881,-5.7881,-5.7881,0.0,0.0,0.0,-5.7881,-5.7881,-5.7881,-5.7881,-5.7881,-5.7881,-5.7881,-5.7881,-5.7425,-5.6681,-5.5835,-5.4718,-5.3653,-5.3551,-5.3501,-5.3501,-5.3501,-5.3501,-5.3501,-5.3501,-5.3501,-5.3501,-5.3501,-5.3501,-5.3501,-5.3501,-5.3501,-5.3501,-5.3501,-5.3501,-5.3501,-5.3501,-5.3501,-5.3501,-5.3501,-5.3501,-5.3501,-5.3501,-5.3501,-5.3501,-5.3501,-5.3501,-5.3501,-5.3501,-5.3501,-5.3501,-5.3501,-5.3946,-5.4534,-5.5087,-5.5266,-5.5325,-5.5266,-5.5112,-5.5052,-5.5104,-5.4534,-5.4534,-5.5104,-5.4045,-5.3783,-5.4218,-5.3717,-5.3501,-4.9104,-4.9629,-4.9901,-4.911,-4.9932,-5.082,0.0,0.0,0.0,0.0,0.0,0.0,0.0,0.0,0.0,0.0,0.0,0.0,0.0,0.0,0.0,0.0,0.0,0.0,0.0,0.0,0.0,0.0,0.0,0.0,0.0,0.0,-5.5886,-5.5886,-5.6579,-5.6968,-5.6968,-5.7577,-5.7881,-5.7881,-5.7881,-5.7881,-5.7881,-5.7881,-5.7881,0.0,0.0,-5.7881,-5.7881,-5.7881,-5.7881,-5.7881,-5.7881,-5.7881,-5.7881,-5.7881,-5.7425,-5.6613,-5.5226,-5.4617,-5.4329,-5.3704,-5.3501,-5.3501,-5.3501,-5.3501,-5.3501,-5.3501,-5.3501,-5.3501,-5.3501,-5.3501,-5.3501,-5.3501,-5.3501,-5.3501,-5.3501,-5.3501,-5.3501,-5.3501,-5.3501,-5.3501,-5.3501,-5.3501,-5.3501,-5.3501,-5.3501,-5.3501,-5.3501,-5.3501,-5.3501,-5.3501,-5.3501,-5.3501,-5.3501,-5.3551,-5.3668,-5.38,-5.4799,-5.5147,-5.4579,-5.4076,-5.3783,-5.38,-5.3668,-5.3685,-5.38,-5.3635,-5.3568,-5.3618,-5.3551,-5.3501,-4.886,-4.9248,-4.9428,-4.8668,-4.9987,-5.1214,-5.0577,0.0,0.0,0.0,0.0,0.0,0.0,0.0,0.0,0.0,0.0,0.0,0.0,0.0,0.0,0.0,0.0,0.0,0.0,0.0,0.0,0.0,0.0,0.0,0.0,0.0,-5.5108,-5.5108,-5.5835,-5.6224,-5.6224,-5.6934,-5.7492,-5.7881,-5.7881,-5.7881,-5.7881,-5.7881,-5.7881,-5.7881,0.0,-5.7881,-5.7881,-5.7881,-5.7881,-5.7881,-5.7881,-5.7881,-5.7881,-5.7881,-5.7425,-5.6647,-5.5581,-5.4921,-5.4465,-5.3737,-5.3501,-5.3501,-5.3501,-5.3501,-5.3501,-5.3501,-5.3501,-5.3501,-5.3501,-5.3501,-5.3501,-5.3501,-5.3501,-5.3501,-5.3501,-5.3501,-5.3501,-5.3501,-5.3501,-5.3501,-5.3501,-5.3501,-5.3501,-5.3501,-5.3501,-5.3501,-5.3501,-5.3501,-5.3501,-5.3501,-5.3501,-5.3501,-5.3501,-5.3501,-5.3501,-5.3501,-5.4028,-5.4269,-5.3963,-5.3685,-5.3501,-5.3501,-5.3501,-5.3501,-5.3501,-5.3501,-5.3501,-5.3501,-5.3501,-5.3501,-4.8883,-4.9101,-4.9168,-4.8858,0.0,-5.1469,-5.0826,0.0,0.0,0.0,0.0,0.0,0.0,0.0,0.0,0.0,0.0,0.0,0.0,0.0,0.0,0.0,0.0,0.0,0.0,0.0,0.0,0.0,0.0,0.0,0.0,0.0,-5.4329,-5.4329,-5.5057,-5.5446,-5.5446,-5.6173,-5.6917,-5.7628,-5.7814,-5.7881,-5.7881,-5.7881,-5.7881,-5.7881,-5.7881,-5.7881,-5.7881,-5.7881,-5.7881,-5.7881,-5.7881,-5.7881,-5.7881,-5.7881,-5.7543,-5.6934,-5.6038,-5.5344,-5.4702,-5.3805,-5.3501,-5.3501,-5.3501,-5.3501,-5.3501,-5.3501,-5.3501,-5.3501,-5.3501,-5.3501,-5.3501,-5.3501,-5.3501,-5.3501,-5.3501,-5.3501,-5.3501,-5.3501,-5.3501,-5.3501,-5.3501,-5.3501,-5.3501,-5.3501,-5.3501,-5.3501,-5.3501,-5.3501,-5.3501,-5.3501,-5.3501,-5.3501,-5.3501,-5.3501,-5.3501,-5.3501,-5.3501,-5.3501,-5.3501,-5.3501,-5.3501,-5.3501,-5.3501,-5.3501,-5.3501,-5.3501,-5.3501,-5.3501,-5.3501,-5.3501,-4.8776,-4.9144,-4.9513,-5.0195,0.0,0.0,-5.0826,-5.1984,0.0,0.0,0.0,0.0,0.0,0.0,0.0,0.0,0.0,0.0,0.0,0.0,0.0,0.0,0.0,0.0,0.0,0.0,0.0,0.0,0.0,0.0,0.0,0.0,0.0,-5.3585,-5.4296,-5.4668,-5.4668,-5.5412,-5.6156,-5.6884,-5.756,-5.7881,-5.7881,-5.7881,-5.7881,-5.7881,-5.7881,-5.7881,-5.7881,-5.7881,-5.7881,-5.7881,-5.7881,-5.7881,-5.7881,-5.7881,-5.7865,-5.7611,-5.6207,-5.5683,-5.5395,-5.3974,-5.3501,-5.3501,-5.3501,-5.3501,-5.3501,-5.3501,-5.3501,-5.3501,-5.3501,-5.3501,-5.3501,-5.3501,-5.3501,-5.3501,-5.3501,-5.3501,-5.3501,-5.3501,-5.3501,-5.3501,-5.3501,-5.3501,-5.3501,-5.3501,-5.3501,-5.3501,-5.3501,-5.3501,-5.3501,-5.3501,-5.3501,-5.3501,-5.3501,-5.3501,-5.3501,-5.3501,-5.3501,-5.3501,-5.3501,-5.3501,-5.3501,-5.3501,-5.3501,-5.3501,-5.3501,-5.3501,-5.3501,-5.3501,-5.3501,-5.3501,-4.8386,-4.8961,-4.9633,-5.0023,0.0,0.0,0.0,0.0,0.0,0.0,0.0,0.0,0.0,0.0,0.0,0.0,0.0,0.0,0.0,0.0,0.0,0.0,0.0,0.0,0.0,0.0,0.0,0.0,0.0,0.0,0.0,0.0,0.0,-5.3501,-5.3771,-5.3923,-5.3923,-5.4651,-5.5158,-5.5429,-5.619,-5.6765,-5.7222,-5.7222,-5.7459,-5.7881,-5.7881,-5.7881,-5.7881,-5.7881,-5.7881,-5.7881,-5.7881,-5.7881,-5.7881,-5.7881,-5.7881,-5.7679,-5.6224,-5.5716,-5.548,-5.3991,-5.3501,-5.3501,-5.3501,-5.3501,-5.3501,-5.3501,-5.3501,-5.3501,-5.3501,-5.3501,-5.3501,-5.3501,-5.3501,-5.3501,-5.3501,-5.3501,-5.3501,-5.3501,-5.3501,-5.3501,-5.3501,-5.3501,-5.3501,-5.3501,-5.3501,-5.3501,-5.3501,-5.3501,-5.3501,-5.3501,-5.3501,-5.3501,-5.3501,-5.3501,-5.3501,-5.3501,-5.3501,-5.3501,-5.3501,-5.3501,-5.3501,-5.3501,-5.3501,-5.3501,-5.3501,-5.3501,-5.3501,-5.3501,-5.3501,-5.3501,-4.8292,-4.8979,-4.9767,0.0,0.0,0.0,0.0,0.0,0.0,0.0,0.0,0.0,0.0,0.0,0.0,0.0,0.0,0.0,0.0,0.0,0.0,0.0,0.0,0.0,0.0,0.0,0.0,0.0,0.0,0.0,0.0,0.0,0.0,0.0,-5.3501,-5.3501,-5.3501,-5.3991,-5.4245,-5.4245,-5.4769,-5.553,-5.6461,-5.6461,-5.6731,-5.7222,-5.7442,-5.7543,-5.756,-5.7797,-5.7881,-5.7881,-5.7881,-5.7881,-5.7881,-5.7881,-5.7881,-5.7679,-5.6224,-5.5716,-5.548,-5.3991,-5.3501,-5.3501,-5.3501,-5.3501,-5.3501,-5.3501,-5.3501,-5.3501,-5.3501,-5.3501,-5.3501,-5.3501,-5.3501,-5.3501,-5.3501,-5.3501,-5.3501,-5.3501,-5.3501,-5.3501,-5.3501,-5.3501,-5.3501,-5.3501,-5.3501,-5.3501,-5.3501,-5.3501,-5.3501,-5.3501,-5.3501,-5.3501,-5.3501,-5.3501,-5.3501,-5.3501,-5.3501,-5.3501,-5.3501,-5.3501,-5.3501,-5.3501,-5.3501,-5.3501,-5.3501,-5.3501,-5.3501,-5.3518,-5.3737,-5.3856,-4.8483,-4.9181,0.0,0.0,0.0,0.0,0.0,0.0,0.0,0.0,0.0,0.0,0.0,0.0,0.0,0.0,0.0,0.0,0.0,0.0,0.0,0.0,0.0,0.0,0.0,0.0,0.0,0.0,0.0,0.0,0.0,0.0,0.0,0.0,-5.3501,-5.3501,-5.3501,-5.3501,-5.3501,-5.3501,-5.3501,-5.4279,-5.57,-5.57,-5.5716,-5.575,-5.6478,-5.6799,-5.6867,-5.7594,-5.7881,-5.7881,-5.7881,-5.7881,-5.7881,-5.7881,-5.7881,-5.7679,-5.6224,-5.5716,-5.5463,-5.3991,-5.3501,-5.3501,-5.3501,-5.3501,-5.3501,-5.3501,-5.3501,-5.3501,-5.3501,-5.3501,-5.3501,-5.3501,-5.3501,-5.3501,-5.3501,-5.3501,-5.3501,-5.3501,-5.3501,-5.3501,-5.3501,-5.3501,-5.3501,-5.3501,-5.3501,-5.3501,-5.3501,-5.3501,-5.3501,-5.3501,-5.3501,-5.3501,-5.3501,-5.3501,-5.3501,-5.3518,-5.3518,-5.3518,-5.3501,-5.3501,-5.3501,-5.3501,-5.3501,-5.3501,-5.3518,-5.3518,-5.3518,-5.3551,-5.4262,-5.46,-4.8707,-4.9321,0.0,0.0,0.0,0.0,0.0,0.0,0.0,0.0,0.0,0.0,0.0,0.0,0.0,0.0,0.0,0.0,0.0,0.0,0.0,0.0,0.0,0.0,0.0,0.0,0.0,0.0,0.0,0.0,0.0,0.0,0.0,0.0,-5.3501,-5.3501,-5.3501,-5.3501,-5.3501,-5.3501,-5.3501,-5.4008,-5.4921,-5.4921,-5.5209,-5.5733,-5.5953,-5.6325,-5.6867,-5.7594,-5.7881,-5.7881,-5.7881,-5.7881,-5.7881,-5.7881,-5.756,-5.6985,-5.6038,-5.5361,-5.4769,-5.3822,-5.3501,-5.3501,-5.3501,-5.3501,-5.3501,-5.3501,-5.3501,-5.3501,-5.3501,-5.3501,-5.3501,-5.3501,-5.3501,-5.3501,-5.3501,-5.3501,-5.3501,-5.3501,-5.3501,-5.3501,-5.3501,-5.3501,-5.3501,-5.3501,-5.3501,-5.3501,-5.3501,-5.3501,-5.3501,-5.3501,-5.3501,-5.3501,-5.3501,-5.3501,-5.3721,-5.4228,-5.4262,-5.4042,-5.3518,-5.3501,-5.3501,-5.3501,-5.3501,-5.3754,-5.4262,-5.4262,-5.4532,-5.5074,-5.5277,-5.5378,-4.8894,0.0,0.0,0.0,0.0,0.0,0.0,0.0,0.0,0.0,0.0,0.0,0.0,0.0,0.0,0.0,0.0,0.0,0.0,0.0,0.0,0.0,0.0,0.0,0.0,0.0,0.0,0.0,0.0,0.0,0.0,0.0,0.0,0.0,-5.3501,-5.3501,-5.3501,-5.3501,-5.3501,-5.3501,-5.3501,-5.3737,-5.416,-5.416,-5.4414,-5.4854,-5.5141,-5.5683,-5.6427,-5.7154,-5.7459,-5.7492,-5.778,-5.7712,-5.7459,-5.7459,-5.7002,-5.6275,-5.553,-5.4972,-5.4465,-5.3737,-5.3501,-5.3501,-5.3501,-5.3501,-5.3501,-5.3501,-5.3501,-5.3501,-5.3501,-5.3501,-5.3501,-5.3501,-5.3501,-5.3501,-5.3501,-5.3501,-5.3501,-5.3501,-5.3501,-5.3501,-5.3501,-5.3501,-5.3501,-5.3501,-5.3501,-5.3501,-5.3501,-5.3501,-5.3619,-5.3907,-5.394,-5.4059,-5.4363,-5.438,-5.4566,-5.5006,-5.504,-5.4837,-5.4397,-5.438,-5.438,-5.438,-5.438,-5.46,-5.504,-5.504,-5.5277,-5.5733,-5.6004,-5.6156,0.0,0.0,0.0,0.0,0.0,0.0,0.0,0.0,0.0,0.0,0.0,0.0,0.0,0.0,0.0,0.0,0.0,0.0,0.0,0.0,0.0,0.0,0.0,0.0,0.0,0.0,0.0,0.0,0.0,0.0,0.0,0.0,0.0,0.0,-5.3501,-5.3501,-5.3501,-5.3501,-5.3501,0.0,-5.3501,-5.3501,-5.3501,-5.3501,-5.3501,-5.3551,-5.4279,-5.4972,-5.5683,-5.641,-5.6714,-5.6765,-5.7442,-5.7289,-5.6714,-5.6714,-5.6241,-5.5513,-5.482,-5.4549,-5.438,-5.3721,-5.3501,-5.3501,-5.3501,-5.3501,-5.3501,-5.3501,-5.3501,-5.3501,-5.3501,-5.3501,-5.3501,-5.3501,-5.3501,-5.3501,-5.3501,-5.3501,-5.3501,-5.3501,-5.3501,-5.3501,-5.3501,-5.3501,-5.3501,-5.3501,-5.3568,-5.3602,-5.3602,-5.367,-5.3957,-5.4617,-5.4685,-5.4972,-5.5649,-5.5716,-5.575,-5.5818,-5.5818,-5.5852,-5.5919,-5.5784,-5.5716,-5.5716,-5.5716,-5.575,-5.5818,-5.5818,-5.5852,-5.5936,-5.6596,-5.69,0.0,0.0,0.0,0.0,0.0,0.0,0.0,0.0,0.0,0.0,0.0,0.0,0.0,0.0,0.0,0.0,0.0,0.0,0.0,0.0,0.0,0.0,0.0,0.0,0.0,0.0,0.0,0.0,0.0,0.0,0.0,0.0,0.0,-5.3501,-5.3501,-5.3501,-5.3501,-5.3501,-5.3501,0.0,-5.3501,-5.3501,-5.3501,-5.3501,-5.3501,-5.3551,-5.4279,-5.4685,-5.4888,-5.5632,-5.5953,-5.597,-5.6122,-5.6089,-5.5953,-5.5953,-5.548,-5.4803,-5.4651,-5.4211,-5.3704,-5.3551,-5.3501,-5.3501,-5.3501,-5.3501,-5.3501,-5.3501,-5.3501,-5.3501,-5.3501,-5.3501,-5.3501,-5.3501,-5.3501,-5.3501,-5.3501,-5.3501,-5.3501,-5.3501,-5.3501,-5.3501,-5.3501,-5.3501,-5.3501,-5.3501,-5.3991,-5.4346,-5.4346,-5.4871,-5.531,-5.5463,-5.548,-5.5547,-5.57,-5.5716,-5.5953,-5.6528,-5.6562,-5.6816,-5.7391,-5.6325,-5.5716,-5.5716,-5.5716,-5.6004,-5.6562,-5.6562,-5.6867,-5.7425,-5.7577,-5.7645,0.0,0.0,0.0,0.0,0.0,0.0,0.0,0.0,0.0,0.0,0.0,0.0,0.0,0.0,0.0,0.0,0.0,0.0,0.0,0.0,0.0,0.0,0.0,0.0,0.0,0.0,0.0,0.0,0.0,0.0,0.0,-5.3501,-5.3501,-5.3501,-5.3501,-5.3501,-5.3501,-5.3501,-5.3501,-5.3501,-5.3501,-5.3501,-5.3501,-5.3501,-5.3501,-5.3518,-5.3907,-5.4059,-5.4126,-5.4871,-5.5175,-5.5209,-5.5581,-5.5497,-5.5175,-5.5175,-5.4718,-5.4059,-5.4059,-5.3822,-5.3501,-5.3501,-5.3501,-5.3501,-5.3501,-5.3501,-5.3501,-5.3501,-5.3501,-5.3501,-5.3501,-5.3501,-5.3501,-5.3501,-5.3501,-5.3501,-5.3501,-5.3501,-5.3501,-5.3501,-5.3501,-5.3501,-5.3501,-5.3788,-5.4143,-5.4515,-5.4888,-5.5141,-5.5141,-5.548,-5.5852,-5.6207,-5.6241,-5.6376,-5.6731,-5.6748,-5.6917,-5.7289,-5.7323,-5.7492,-5.7865,-5.7154,-5.6748,-5.6748,-5.6748,-5.6934,-5.7323,-5.7323,-5.7509,-5.7881,-5.7881,-5.7881,0.0,0.0,0.0,0.0,0.0,0.0,0.0,0.0,0.0,0.0,0.0,0.0,0.0,0.0,0.0,0.0,0.0,0.0,0.0,0.0,0.0,0.0,0.0,0.0,0.0,0.0,0.0,0.0,0.0,0.0,-5.3501,-5.3501,-5.3501,-5.3501,-5.3501,-5.3501,-5.3501,-5.3501,-5.3501,-5.3501,-5.3501,-5.3501,-5.3501,-5.3501,-5.3501,-5.3501,-5.3501,-5.3501,-5.3551,-5.416,-5.4397,-5.4465,-5.5091,-5.4955,-5.4397,-5.4397,-5.4025,-5.3501,-5.3501,-5.3501,-5.3501,-5.3501,-5.3501,-5.3501,-5.3501,-5.3501,-5.3501,-5.3501,-5.3501,-5.3501,-5.3501,-5.3501,-5.3501,-5.3501,-5.3501,-5.3501,-5.3501,-5.3501,-5.3501,-5.3501,-5.3602,-5.3737,-5.3873,-5.4397,-5.5006,-5.5632,-5.5818,-5.5902,-5.5902,-5.6004,-5.6325,-5.6917,-5.6985,-5.7239,-5.7831,-5.7881,-5.7881,-5.7881,-5.7881,-5.7881,-5.7881,-5.7881,-5.7881,-5.7881,-5.7881,-5.7881,-5.7881,-5.7881,-5.7881,-5.7881,-5.7881,-5.7881,0.0,0.0,0.0,0.0,0.0,0.0,0.0,0.0,0.0,0.0,0.0,0.0,0.0,0.0,0.0,0.0,0.0,0.0,0.0,0.0,0.0,0.0,0.0,0.0,0.0,0.0,0.0,0.0,0.0,0.0,-5.3501,-5.3501,-5.3501,-5.3501,-5.3501,-5.3501,-5.3501,-5.3501,-5.3501,-5.3501,-5.3501,-5.3501,-5.3501,-5.3501,-5.3501,-5.3501,-5.3501,-5.3501,-5.3518,-5.3619,-5.3653,-5.367,-5.3771,-5.3737,-5.3653,-5.3653,-5.3585,-5.3501,-5.3501,-5.3501,-5.3501,-5.3501,-5.3501,-5.3501,-5.3501,-5.3501,-5.3501,-5.3501,-5.3501,-5.3501,-5.3501,-5.3501,-5.3501,-5.3501,-5.3501,-5.3501,-5.3501,-5.3501,-5.3501,-5.3501,-5.4008,-5.4651,-5.531,-5.5497,-5.5598,-5.57,-5.6258,-5.6664,-5.6664,-5.7205,-5.7628,-5.7729,-5.7746,-5.778,-5.7881,-5.7881,-5.7881,-5.7881,-5.7881,-5.7881,-5.7881,-5.7881,-5.7881,-5.7881,-5.7881,-5.7881,-5.7881,-5.7881,-5.7881,-5.7881,-5.7881,-5.7881,0.0,0.0,0.0,0.0,0.0,0.0,0.0,0.0,0.0,0.0,0.0,0.0,0.0,0.0,0.0,0.0,0.0,0.0,0.0,0.0,0.0,0.0,0.0,0.0,0.0,0.0,0.0,0.0,0.0,-5.3501,-5.3501,-5.3501,-5.3501,-5.3501,-5.3501,-5.3501,-5.3501,-5.3501,-5.3501,-5.3501,-5.3501,-5.3501,-5.3501,-5.3501,-5.3501,-5.3501,-5.3501,-5.3501,-5.3501,-5.3501,-5.3501,-5.3501,-5.3501,-5.3501,-5.3501,-5.3501,-5.3501,-5.3501,-5.3501,-5.3433,-5.3348,-5.3433,-5.3416,-5.3348,-5.3433,-5.3501,-5.3501,-5.3501,-5.3501,-5.3501,-5.3501,-5.3501,-5.3501,-5.3501,-5.3501,-5.3501,-5.3501,-5.3501,-5.3619,-5.4042,-5.4718,-5.5463,-5.619,-5.6325,-5.6461,-5.6867,-5.7205,-5.7408,-5.7408,-5.7695,-5.7881,-5.7881,-5.7881,-5.7881,-5.7881,-5.7881,-5.7881,-5.7881,-5.7881,-5.7881,-5.7881,-5.7881,-5.7881,-5.7881,-5.7881,-5.7881,-5.7881,-5.7881,-5.7881,-5.7881,-5.7881,-5.7881,0.0,0.0,0.0,0.0,0.0,0.0,0.0,0.0,0.0,0.0,0.0,0.0,0.0,0.0,0.0,0.0,0.0,0.0,0.0,0.0,0.0,0.0,0.0,0.0,0.0,0.0,0.0,0.0,0.0,-5.3501,-5.3501,-5.3501,-5.3501,-5.3501,-5.3501,-5.3501,-5.3501,-5.3501,-5.3501,-5.3501,-5.3501,-5.3501,-5.3501,-5.3501,-5.3501,-5.3501,-5.3501,-5.3501,-5.3501,-5.3501,-5.3501,-5.3501,-5.3501,-5.3501,-5.3501,-5.3501,-5.3501,-5.3501,-5.3501,-5.3416,-5.3264,-5.3433,-5.3416,-5.3332,-5.3433,-5.3501,-5.3501,-5.3501,-5.3501,-5.3501,-5.3501,-5.3501,-5.3501,-5.3501,-5.3501,-5.3551,-5.3737,-5.3788,-5.4059,-5.4972,-5.5598,-5.6224,-5.6951,-5.707,-5.7256,-5.7814,-5.7881,-5.7881,-5.7881,-5.7881,-5.7881,-5.7881,-5.7881,-5.7881,-5.7881,-5.7881,-5.7881,-5.7881,-5.7881,-5.7881,-5.7881,-5.7881,-5.7881,-5.7881,-5.7881,-5.7881,-5.7881,-5.7881,-5.7881,-5.7881,-5.7881,-5.7881,0.0,0.0,0.0,0.0,0.0,0.0,0.0,0.0,0.0,0.0,0.0,0.0,0.0,0.0,0.0,0.0,0.0,0.0,0.0,0.0,0.0,0.0,0.0,0.0,0.0,0.0,0.0,0.0,0.0,-5.3501,-5.3501,-5.3501,-5.3501,-5.3501,-5.3501,-5.3501,-5.3501,-5.3501,-5.3501,-5.3501,-5.3501,-5.3501,-5.3501,-5.3501,-5.3501,-5.3501,-5.3501,-5.3501,-5.3501,-5.3501,-5.3501,-5.3501,-5.3501,-5.3501,-5.3501,-5.3501,-5.3501,-5.3501,-5.3501,-5.3501,-5.3501,-5.3501,-5.3501,-5.3501,-5.3501,-5.3501,-5.3501,-5.3501,-5.3501,-5.3501,-5.3501,-5.3501,-5.3501,-5.3501,-5.3501,-5.3687,-5.438,-5.4532,-5.4955,-5.641,-5.6714,-5.6985,-5.7712,-5.7831,-5.7848,-5.7881,-5.7881,-5.7881,-5.7881,-5.7881,-5.7881,-5.7881,-5.7881,-5.7881,-5.7881,-5.7881,-5.7881,-5.7881,-5.7881,-5.7881,-5.7881,-5.7881,-5.7881,-5.7881,-5.7881,-5.7881,-5.7881,-5.7881,-5.7881,-5.7881,-5.7881,-5.7881,0.0,0.0,0.0,0.0,0.0,0.0,0.0,0.0,0.0,0.0,0.0,0.0,0.0,0.0,0.0,0.0,0.0,0.0,0.0,0.0,0.0,0.0,0.0,0.0,0.0,0.0,0.0,0.0,0.0,0.0,-5.3501,-5.3501,-5.3501,-5.3501,-5.3501,-5.3501,-5.3501,-5.3501,-5.3501,-5.3501,-5.3501,-5.3501,-5.3501,-5.3501,-5.3501,-5.3501,-5.3501,-5.3501,-5.3501,-5.3501,-5.3501,-5.3501,-5.3501,-5.3501,-5.3501,-5.3501,-5.3501,-5.3501,-5.3501,-5.3433,-5.3348,-5.3433,-5.3348,-5.3127,-5.3433,-5.3348,-5.3144,-5.3433,-5.3416,-5.3348,-5.3501,-5.3501,-5.3619,-5.4093,-5.4211,-5.4532,-5.575,-5.6004,-5.6173,-5.6697,-5.7171,-5.7577,-5.7848,-5.7881,-5.7881,-5.7881,-5.7881,-5.7881,-5.7881,-5.7881,-5.7881,-5.7881,-5.7881,-5.7881,-5.7881,-5.7881,-5.7881,-5.7881,-5.7881,-5.7881,-5.7881,-5.7881,-5.7881,-5.7881,-5.7881,-5.7881,-5.7881,-5.7881,-5.7881,-5.7881,-5.7881,-5.7881,0.0,0.0,0.0,0.0,0.0,0.0,0.0,0.0,0.0,0.0,0.0,0.0,0.0,0.0,0.0,0.0,0.0,0.0,0.0,0.0,0.0,0.0,0.0,0.0,0.0,0.0,0.0,0.0,0.0,0.0,-5.3501,-5.3501,-5.3501,-5.3501,-5.3501,-5.3501,-5.3501,-5.3501,-5.3501,-5.3501,-5.3501,-5.3501,-5.3501,-5.3501,-5.3501,-5.3501,-5.3501,-5.3501,-5.3501,-5.3501,-5.3501,-5.3501,-5.3501,-5.3501,-5.3501,-5.3501,-5.3501,-5.3501,-5.3501,-5.3416,-5.3332,-5.3433,-5.3348,-5.3127,-5.3433,-5.328,-5.3127,-5.3433,-5.3348,-5.3264,-5.3433,-5.3687,-5.3991,-5.4482,-5.4972,-5.5598,-5.6596,-5.6799,-5.6867,-5.712,-5.756,-5.7881,-5.7881,-5.7881,-5.7881,-5.7881,-5.7881,-5.7881,-5.7881,-5.7881,-5.7881,-5.7881,-5.7881,-5.7881,-5.7881,-5.7881,-5.7881,-5.7881,-5.7881,-5.7881,-5.7881,-5.7881,-5.7881,-5.7881,-5.7881,-5.7881,-5.7881,-5.7881,-5.7881,-5.7881,-5.7881,-5.7881,0.0,0.0,0.0,0.0,0.0,0.0,0.0,0.0,0.0,0.0,0.0,0.0,0.0,0.0,0.0,0.0,0.0,0.0,0.0,0.0,0.0,0.0,0.0,0.0,0.0,0.0,0.0,0.0,0.0,-5.3501,-5.3501,-5.3501,-5.3501,-5.3501,-5.3501,-5.3501,-5.3501,-5.3501,-5.3501,-5.3501,-5.3501,-5.3501,-5.3501,-5.3501,-5.3501,-5.3501,-5.3501,-5.3501,-5.3501,-5.3501,-5.3501,-5.3501,-5.3501,-5.3501,-5.3501,-5.3501,-5.3501,-5.3501,-5.3501,-5.3501,-5.3501,-5.3501,-5.3518,-5.3501,-5.3501,-5.3501,-5.3501,-5.3518,-5.3348,-5.3264,-5.345,-5.4059,-5.46,-5.4634,-5.575,-5.6816,-5.6833,-5.6833,-5.7036,-5.7746,-5.7881,-5.7881,-5.7881,-5.7881,-5.7881,-5.7881,-5.7881,-5.7881,-5.7881,-5.7881,-5.7881,-5.7881,-5.7881,-5.7881,-5.7881,-5.7881,-5.7881,-5.7881,-5.7881,-5.7881,-5.7881,-5.7881,-5.7881,-5.7881,-5.7881,-5.7881,-5.7881,-5.7881,-5.7881,-5.7881,-5.7881,-5.7881,-4.9001,0.0,0.0,0.0,0.0,0.0,0.0,0.0,0.0,0.0,0.0,0.0,0.0,0.0,0.0,0.0,0.0,0.0,0.0,0.0,0.0,0.0,0.0,0.0,0.0,0.0,0.0,0.0,-5.3501,-5.3501,-5.3501,-5.3501,-5.3501,-5.3501,-5.3501,-5.3501,-5.3501,-5.3501,-5.3501,-5.3501,-5.3501,-5.3501,-5.3501,-5.3501,-5.3501,-5.3501,-5.3501,-5.3501,-5.3501,-5.3501,-5.3501,-5.3501,-5.3501,-5.3501,-5.3501,-5.3501,-5.3501,-5.3501,-5.3501,-5.3501,-5.3501,-5.3501,-5.3416,-5.3332,-5.3433,-5.328,-5.3127,-5.3433,-5.3348,-5.3382,-5.4075,-5.4448,-5.4854,-5.5936,-5.6494,-5.6951,-5.7476,-5.7594,-5.7645,-5.7848,-5.7881,-5.7881,-5.7881,-5.7881,-5.7881,-5.7881,-5.7881,-5.7881,-5.7881,-5.7881,-5.7881,-5.7881,-5.7881,-5.7881,-5.7881,-5.7881,-5.7881,-5.7881,-5.7881,-5.7881,-5.7881,-5.7881,-5.7881,-5.7881,-5.7881,-5.7881,-5.7881,-5.7881,-5.7881,-5.7881,-5.7881,-5.7881,0.0,0.0,0.0,0.0,0.0,0.0,0.0,-5.2926,0.0,0.0,0.0,0.0,0.0,0.0,0.0,0.0,0.0,0.0,0.0,0.0,0.0,0.0,0.0,0.0,0.0,0.0,0.0,-5.3484,-5.3501,-5.3501,-5.3501,-5.3501,-5.3501,-5.3501,-5.3501,-5.3501,-5.3501,-5.3501,-5.3501,-5.3501,-5.3501,-5.3501,-5.3501,-5.3501,-5.3501,-5.3501,-5.3501,-5.3501,-5.3501,-5.3501,-5.3501,-5.3501,-5.3501,-5.3501,-5.3501,-5.3501,-5.3501,-5.3501,-5.3501,-5.3501,-5.3501,-5.3501,-5.3433,-5.3348,-5.3433,-5.3365,-5.3212,-5.3433,-5.3433,-5.35,-5.426,-5.4751,-5.5344,-5.6528,-5.7036,-5.7374,-5.7797,-5.7881,-5.7881,-5.7881,-5.7881,-5.7881,-5.7881,-5.7881,-5.7881,-5.7881,-5.7881,-5.7881,-5.7881,-5.7881,-5.7881,-5.7881,-5.7881,-5.7881,-5.7881,-5.7881,-5.7881,-5.7881,-5.7881,-5.7881,-5.7881,-5.7881,-5.7881,-5.7881,-5.7881,-5.7881,-5.7881,-5.7881,-5.7881,-5.7881,-5.7881,-5.7881,0.0,0.0,0.0,0.0,0.0,0.0,-5.2012,-5.279,-5.3399,0.0,0.0,0.0,0.0,0.0,0.0,0.0,0.0,0.0,0.0,0.0,0.0,0.0,0.0,0.0,0.0,-5.2181,-5.2469,-5.3196,-5.3331,-5.3365,-5.3365,-5.345,-5.3501,-5.3501,-5.3501,-5.3501,-5.3501,-5.3501,-5.3501,-5.3501,-5.3501,-5.3501,-5.3501,-5.3501,-5.3501,-5.3501,-5.3501,-5.3501,-5.3501,-5.3501,-5.3501,-5.3501,-5.3501,-5.3501,-5.3501,-5.3501,-5.3501,-5.3501,-5.3501,-5.3501,-5.3501,-5.3501,-5.3501,-5.3501,-5.3501,-5.3501,-5.3501,-5.3501,-5.3568,-5.372,-5.4308,-5.5137,-5.6021,-5.6748,-5.7408,-5.7881,-5.7881,-5.7881,-5.7881,-5.7881,-5.7881,-5.7881,-5.7881,-5.7881,-5.7881,-5.7881,-5.7881,-5.7881,-5.7881,-5.7881,-5.7881,-5.7881,-5.7881,-5.7881,-5.7881,-5.7881,-5.7881,-5.7881,-5.7881,-5.7881,-5.7881,-5.7881,-5.7881,-5.7881,-5.7881,-5.7881,-5.7881,-5.7881,-5.7881,-5.7881,-5.7881,-5.7898,0.0,0.0,0.0,0.0,0.0,0.0,-5.1251,-5.2012,-5.2723,0.0,0.0,0.0,0.0,0.0,0.0,0.0,0.0,0.0,0.0,0.0,0.0,0.0,0.0,0.0,0.0,-5.142,-5.1505,-5.1657,-5.2198,-5.2536,-5.2536,-5.3145,-5.3501,-5.3501,-5.3501,-5.3501,-5.3501,-5.3501,-5.3501,-5.3501,-5.3501,-5.3501,-5.3501,-5.3501,-5.3501,-5.3501,-5.3501,-5.3501,-5.3501,-5.3501,-5.3501,-5.3501,-5.3501,-5.3501,-5.3501,-5.3501,-5.3501,-5.3501,-5.3501,-5.3501,-5.3501,-5.3501,-5.3501,-5.3501,-5.3501,-5.3501,-5.3501,-5.3501,-5.3923,-5.4549,-5.5241,-5.5967,-5.6765,-5.7509,-5.778,-5.7881,-5.7881,-5.7881,-5.7881,-5.7881,-5.7881,-5.7881,-5.7881,-5.7881,-5.7881,-5.7881,-5.7881,-5.7881,-5.7881,-5.7881,-5.7881,-5.7881,-5.7881,-5.7881,-5.7881,-5.7881,-5.7881,-5.7881,-5.7881,-5.7881,-5.7881,-5.7881,-5.7881,-5.7881,-5.7881,-5.7881,-5.7881,-5.7881,-5.7881,-5.7898,-5.7735,-5.7662,0.0,0.0,0.0,-4.9001,0.0,0.0,0.0,-5.1775,-5.2536,0.0,0.0,0.0,0.0,0.0,0.0,0.0,0.0,0.0,0.0,0.0,0.0,0.0,0.0,0.0,0.0,-5.0659,-5.0811,-5.1183,-5.1555,-5.1758,-5.1758,-5.2486,-5.2909,-5.2909,-5.3298,-5.3501,-5.3501,-5.3501,-5.3501,-5.3501,-5.3501,-5.3501,-5.3501,-5.3501,-5.3501,-5.3501,-5.3501,-5.3501,-5.3501,-5.3501,-5.3501,-5.3501,-5.3501,-5.3501,-5.3501,-5.3501,-5.3501,-5.3501,-5.3501,-5.3501,-5.3501,-5.3501,-5.3501,-5.3501,-5.3501,-5.3501,-5.3585,-5.394,-5.4296,-5.4837,-5.597,-5.6528,-5.6985,-5.7712,-5.7881,-5.7881,-5.7881,-5.7881,-5.7881,-5.7881,-5.7571,-5.7406,-5.7808,-5.7881,-5.7881,-5.7881,-5.7881,-5.7881,-5.7881,-5.7881,-5.7881,-5.7881,-5.7881,-5.7881,-5.7881,-5.7881,-5.7881,-5.7881,-5.7881,-5.7881,-5.7881,-5.7881,-5.7881,-5.7881,-5.7881,-5.7881,-5.7881,-5.7881,-5.7881,-5.7898,-5.7662,-5.7588,0.0,0.0,0.0,0.0,0.0,-5.0067,0.0,0.0,0.0,0.0,0.0,0.0,0.0,0.0,0.0,0.0,0.0,0.0,0.0,0.0,0.0,0.0,0.0,0.0,0.0,-4.9881,-5.0135,-5.0744,-5.093,-5.0997,-5.0997,-5.1826,-5.23,-5.23,-5.3078,-5.3501,-5.3501,-5.3501,-5.3501,-5.3501,-5.3501,-5.3501,-5.3501,-5.3501,-5.3501,-5.3501,-5.3501,-5.3501,-5.3501,-5.3501,-5.3501,-5.3501,-5.3501,-5.3501,-5.3501,-5.3501,-5.3501,-5.3501,-5.3501,-5.3501,-5.3501,-5.3501,-5.3501,-5.3501,-5.3501,-5.3602,-5.3839,-5.4431,-5.4786,-5.5294,-5.6494,-5.6917,-5.7154,-5.7746,-5.7881,-5.7881,-5.7662,-5.7645,-5.7571,-5.7406,-5.6844,-5.6614,-5.748,-5.7645,-5.7571,-5.7406,-5.7718,-5.7808,-5.7645,-5.7808,-5.7881,-5.7881,-5.7881,-5.7881,-5.7881,-5.7881,-5.7881,-5.7881,-5.7881,-5.7881,-5.7881,-5.7881,-5.7881,-5.7881,-5.7881,-5.7808,-5.7808,-5.7808,-5.7808,-5.7808,-5.7662,-5.7514,0.0,0.0,0.0,0.0,-4.9069,0.0,0.0,0.0,0.0,0.0,0.0,0.0,0.0,0.0,0.0,0.0,0.0,0.0,0.0,0.0,0.0,0.0,0.0,0.0,0.0,0.0,-4.9171,-4.9238,-4.9864,-5.0219,-5.0219,-5.1539,-5.23,-5.23,-5.3078,-5.3501,-5.3501,-5.3501,-5.3501,-5.3501,-5.3501,-5.3501,-5.3501,-5.3501,-5.3501,-5.3501,-5.3501,-5.3501,-5.3501,-5.3501,-5.3501,-5.3501,-5.3501,-5.3501,-5.3501,-5.3501,-5.3501,-5.3501,-5.3501,-5.3501,-5.3501,-5.3501,-5.3501,-5.3501,-5.3501,-5.3957,-5.4482,-5.4566,-5.553,-5.6596,-5.6765,-5.7289,-5.778,-5.7865,-5.7881,-5.7662,-5.6937,-5.6768,-5.6536,-5.5716,-5.5539,-5.5716,-5.6614,-5.6768,-5.6459,-5.57,-5.692,-5.7645,-5.6861,-5.7406,-5.7881,-5.7881,-5.7881,-5.7881,-5.7881,-5.7881,-5.7881,-5.7881,-5.7881,-5.7881,-5.7881,-5.7881,-5.7881,-5.7881,-5.7735,-5.7662,-5.7662,-5.7439,-5.7439,-5.7662,-5.7439,-5.7214,0.0,0.0,0.0,0.0,0.0,0.0,-4.9915,0.0,-5.0896,0.0,0.0,0.0,0.0,0.0,0.0,0.0,0.0,0.0,0.0,0.0,0.0,0.0,0.0,0.0,0.0,0.0,0.0,0.0,0.0,-4.9458,-4.9458,-5.0439,-5.1217,-5.1657,-5.2401,-5.3027,-5.3501,-5.3501,-5.3501,-5.3501,-5.3501,-5.3501,-5.3501,-5.3501,-5.3501,-5.3501,-5.3501,-5.3501,-5.3501,-5.3501,-5.3501,-5.3501,-5.3501,-5.3501,-5.3501,-5.3501,-5.3501,-5.3501,-5.3501,-5.3501,-5.3501,-5.3501,-5.3501,-5.3585,-5.3871,-5.4278,-5.4769,-5.5491,-5.5845,-5.6178,-5.6612,-5.6535,-5.6426,-5.6426,-5.6426,-5.627,-5.5955,-5.5876,-5.5716,-5.5377,-5.4886,-5.4637,-5.5051,-5.5539,-5.5716,-5.5377,-5.6348,-5.7013,-5.6614,-5.7331,-5.7881,-5.7881,-5.7881,-5.7881,-5.7881,-5.7881,-5.7881,-5.7881,-5.7808,-5.7662,-5.7588,-5.7588,-5.7588,-5.7588,-5.7439,-5.7439,-5.7439,-5.7364,-5.7289,-5.7289,-5.7139,-5.7063,-4.9001,0.0,0.0,0.0,0.0,0.0,0.0,0.0,0.0,0.0,0.0,0.0,0.0,0.0,0.0,0.0,0.0,0.0,0.0,0.0,0.0,0.0,0.0,0.0,0.0,0.0,0.0,0.0,-4.9001,-4.9001,-4.9001,-4.9695,-5.0439,-5.12,-5.1928,-5.2689,-5.3501,-5.3501,-5.3501,-5.3501,-5.3501,-5.3501,-5.3501,-5.3501,-5.3501,-5.3501,-5.3501,-5.3501,-5.3501,-5.3501,-5.3501,-5.3501,-5.3501,-5.3501,-5.3501,-5.3501,-5.3501,-5.3501,-5.3501,-5.3501,-5.3501,-5.3501,-5.3433,-5.3483,-5.3827,-5.4109,-5.4527,-5.5414,-5.5501,-5.5439,-5.5982,-5.5716,-5.5296,-5.5215,-5.5215,-5.5215,-5.487,-5.4886,-5.4886,-5.4653,-5.4078,-5.3664,-5.3664,-5.4401,-5.4886,-5.4653,-5.5716,-5.6364,-5.5859,-5.6996,-5.7718,-5.7147,-5.7554,-5.7735,-5.7497,-5.7645,-5.7735,-5.7735,-5.7588,-5.7439,-5.7289,-5.7289,-5.7289,-5.7289,-5.7214,-5.7214,-5.7214,-5.7139,-5.7063,-5.6911,-5.6987,-5.6987,0.0,0.0,0.0,-4.9001,0.0,0.0,0.0,0.0,-5.0101,0.0,0.0,0.0,0.0,0.0,0.0,-4.939,0.0,0.0,0.0,0.0,0.0,0.0,0.0,0.0,0.0,0.0,0.0,-4.9001,-4.9001,-4.9001,-4.9001,-4.9695,-5.0439,-5.12,-5.1928,-5.2689,-5.3501,-5.3501,-5.3501,-5.3501,-5.3501,-5.3501,-5.3501,-5.3501,-5.3501,-5.3501,-5.3501,-5.3501,-5.3501,-5.3501,-5.3501,-5.3501,-5.3501,-5.3501,-5.3501,-5.3501,-5.3501,-5.3501,-5.3501,-5.3501,-5.3501,-5.3501,-5.3348,-5.3159,-5.3013,-5.332,-5.3721,-5.36,-5.4225,-5.4904,-5.4936,-5.5117,-5.5215,-5.4936,-5.5117,-5.4968,-5.3875,-5.3891,-5.3821,-5.2951,-5.2803,-5.2713,-5.2713,-5.3418,-5.375,-5.2862,-5.4985,-5.5876,-5.3945,-5.6159,-5.7147,-5.5166,-5.6581,-5.7273,-5.6397,-5.697,-5.7289,-5.7289,-5.7289,-5.7289,-5.7289,-5.7289,-5.7289,-5.7289,-5.7139,-5.6987,-5.6987,-5.6834,-5.668,-5.668,-5.6911,-5.6911,0.0,0.0,-4.9001,-4.9001,0.0,0.0,0.0,0.0,0.0,0.0,0.0,0.0,0.0,0.0,0.0,-5.0557,-5.0879,0.0,0.0,0.0,0.0,0.0,0.0,0.0,0.0,0.0,0.0,-4.9001,-4.9001,-4.9001,0.0,-4.9238,-4.9932,-5.1183,-5.1454,-5.2198,-5.3501,-5.3501,-5.3501,-5.3501,-5.3501,-5.3501,-5.3501,-5.3501,-5.3501,-5.3501,-5.3501,-5.3501,-5.3501,-5.3501,-5.3501,-5.3501,-5.3348,-5.2939,-5.247,-5.2661,-5.2694,-5.2607,-5.2131,-5.1898,-5.1898,-5.1898,-5.2461,-5.3063,-5.2746,-5.3428,-5.4395,-5.4143,-5.3925,-5.3843,-5.3843,-5.3459,-5.3066,-5.2978,-5.3066,-5.2993,-5.2652,-5.2562,-5.2577,-5.2261,-5.2276,-5.2276,-5.2276,-5.2503,-5.2667,-5.2713,-5.3821,-5.4369,-5.3703,-5.4936,-5.5587,-5.4755,-5.5747,-5.6331,-5.6097,-5.6784,-5.7214,-5.7139,-5.7139,-5.7063,-5.6911,-5.6911,-5.6911,-5.6911,-5.6834,-5.6834,-5.6834,-5.6757,-5.668,-5.668,-5.6757,-5.6757,-4.9001,-4.9001,0.0,-4.9001,-4.9001,0.0,-4.9001,0.0,0.0,0.0,0.0,0.0,0.0,0.0,0.0,-5.0439,-5.0439,-5.0253,0.0,-4.9306,0.0,0.0,0.0,0.0,0.0,0.0,-4.9001,-4.9001,-4.9001,-4.9001,0.0,0.0,-4.956,-5.0777,-5.1065,-5.1809,-5.3061,-5.3365,-5.3501,-5.3501,-5.3501,-5.3501,-5.3501,-5.3501,-5.3501,-5.3501,-5.3501,-5.3501,-5.3501,-5.3501,-5.3501,-5.3433,-5.2956,-5.2383,-5.1921,-5.2026,-5.1898,-5.1516,-5.1054,-5.0903,-5.0978,-5.0978,-5.1615,-5.2405,-5.2141,-5.2745,-5.3611,-5.3326,-5.2931,-5.268,-5.268,-5.2382,-5.1987,-5.1895,-5.1895,-5.1987,-5.1895,-5.1895,-5.2002,-5.2002,-5.2002,-5.2002,-5.2002,-5.1895,-5.1987,-5.2352,-5.3066,-5.3371,-5.2931,-5.4014,-5.4505,-5.3585,-5.492,-5.5922,-5.6192,-5.6724,-5.7063,-5.6911,-5.6911,-5.6834,-5.6697,-5.668,-5.668,-5.668,-5.668,-5.668,-5.668,-5.668,-5.668,-5.668,-5.668,-5.668]}]]